<?xml version="1.0" encoding="UTF-8" standalone="no" ?>
<gpx xmlns="http://www.topografix.com/GPX/1/1" xmlns:xsi="http://www.w3.org/2001/XMLSchema-instance" xsi:schemaLocation="http://www.topografix.com/GPX/1/1 http://www.topografix.com/GPX/1/1/gpx.xsd" version="1.1" creator="VisuGPX - https://www.visugpx.com">
  <metadata>
    <name>Joyeux Randonneurs à L'Isle (2)</name>
    <desc><![CDATA[Randonnée accessible à tous. Il existe pratiquement toujours des possibilités  pour raccourcir le circuit à environ  6km.  ]]></desc>
  </metadata>
  <trk>
    <name><![CDATA[Tracé 21 juin 2016 13:58:05 L Isle avec Tocane]]></name>
    <trkseg>
      <trkpt lat="45.27895" lon="0.54912">
        <ele>90</ele>
        <time>2016-06-21T11:58:24Z</time>
      </trkpt>
      <trkpt lat="45.27895" lon="0.54912">
        <ele>90</ele>
        <time>2016-06-21T11:58:34Z</time>
      </trkpt>
      <trkpt lat="45.27895" lon="0.54912">
        <ele>90</ele>
        <time>2016-06-21T11:58:35Z</time>
      </trkpt>
      <trkpt lat="45.27906" lon="0.54906">
        <ele>74</ele>
        <time>2016-06-21T12:04:54Z</time>
      </trkpt>
      <trkpt lat="45.27914" lon="0.54873">
        <ele>89</ele>
        <time>2016-06-21T12:04:58Z</time>
      </trkpt>
      <trkpt lat="45.27917" lon="0.5488">
        <ele>94</ele>
        <time>2016-06-21T12:05:03Z</time>
      </trkpt>
      <trkpt lat="45.27918" lon="0.54885">
        <ele>95</ele>
        <time>2016-06-21T12:05:08Z</time>
      </trkpt>
      <trkpt lat="45.27921" lon="0.54888">
        <ele>100</ele>
        <time>2016-06-21T12:05:15Z</time>
      </trkpt>
      <trkpt lat="45.27928" lon="0.54889">
        <ele>99</ele>
        <time>2016-06-21T12:05:19Z</time>
      </trkpt>
      <trkpt lat="45.27935" lon="0.54893">
        <ele>100</ele>
        <time>2016-06-21T12:05:23Z</time>
      </trkpt>
      <trkpt lat="45.27941" lon="0.54894">
        <ele>98</ele>
        <time>2016-06-21T12:05:28Z</time>
      </trkpt>
      <trkpt lat="45.27945" lon="0.54898">
        <ele>99</ele>
        <time>2016-06-21T12:05:33Z</time>
      </trkpt>
      <trkpt lat="45.27948" lon="0.54904">
        <ele>98</ele>
        <time>2016-06-21T12:05:38Z</time>
      </trkpt>
      <trkpt lat="45.27952" lon="0.5491">
        <ele>95</ele>
        <time>2016-06-21T12:05:43Z</time>
      </trkpt>
      <trkpt lat="45.2796" lon="0.54915">
        <ele>95</ele>
        <time>2016-06-21T12:05:47Z</time>
      </trkpt>
      <trkpt lat="45.27961" lon="0.5492">
        <ele>97</ele>
        <time>2016-06-21T12:05:55Z</time>
      </trkpt>
      <trkpt lat="45.27962" lon="0.54925">
        <ele>97</ele>
        <time>2016-06-21T12:05:59Z</time>
      </trkpt>
      <trkpt lat="45.27966" lon="0.54929">
        <ele>98</ele>
        <time>2016-06-21T12:06:06Z</time>
      </trkpt>
      <trkpt lat="45.27969" lon="0.54937">
        <ele>98</ele>
        <time>2016-06-21T12:06:11Z</time>
      </trkpt>
      <trkpt lat="45.27971" lon="0.54943">
        <ele>96</ele>
        <time>2016-06-21T12:06:15Z</time>
      </trkpt>
      <trkpt lat="45.27973" lon="0.54949">
        <ele>97</ele>
        <time>2016-06-21T12:06:21Z</time>
      </trkpt>
      <trkpt lat="45.27975" lon="0.54953">
        <ele>96</ele>
        <time>2016-06-21T12:06:25Z</time>
      </trkpt>
      <trkpt lat="45.27976" lon="0.54959">
        <ele>96</ele>
        <time>2016-06-21T12:06:29Z</time>
      </trkpt>
      <trkpt lat="45.27979" lon="0.54966">
        <ele>95</ele>
        <time>2016-06-21T12:06:34Z</time>
      </trkpt>
      <trkpt lat="45.2798" lon="0.54972">
        <ele>96</ele>
        <time>2016-06-21T12:06:38Z</time>
      </trkpt>
      <trkpt lat="45.27982" lon="0.54977">
        <ele>97</ele>
        <time>2016-06-21T12:06:42Z</time>
      </trkpt>
      <trkpt lat="45.27984" lon="0.54983">
        <ele>98</ele>
        <time>2016-06-21T12:06:47Z</time>
      </trkpt>
      <trkpt lat="45.27986" lon="0.5499">
        <ele>98</ele>
        <time>2016-06-21T12:06:52Z</time>
      </trkpt>
      <trkpt lat="45.27986" lon="0.54996">
        <ele>100</ele>
        <time>2016-06-21T12:06:57Z</time>
      </trkpt>
      <trkpt lat="45.27989" lon="0.55002">
        <ele>100</ele>
        <time>2016-06-21T12:07:01Z</time>
      </trkpt>
      <trkpt lat="45.27989" lon="0.55008">
        <ele>101</ele>
        <time>2016-06-21T12:07:05Z</time>
      </trkpt>
      <trkpt lat="45.27989" lon="0.55015">
        <ele>103</ele>
        <time>2016-06-21T12:07:10Z</time>
      </trkpt>
      <trkpt lat="45.27992" lon="0.5502">
        <ele>102</ele>
        <time>2016-06-21T12:07:14Z</time>
      </trkpt>
      <trkpt lat="45.27993" lon="0.55028">
        <ele>102</ele>
        <time>2016-06-21T12:07:18Z</time>
      </trkpt>
      <trkpt lat="45.27996" lon="0.55031">
        <ele>102</ele>
        <time>2016-06-21T12:07:22Z</time>
      </trkpt>
      <trkpt lat="45.27999" lon="0.55037">
        <ele>103</ele>
        <time>2016-06-21T12:07:26Z</time>
      </trkpt>
      <trkpt lat="45.28002" lon="0.55042">
        <ele>103</ele>
        <time>2016-06-21T12:07:30Z</time>
      </trkpt>
      <trkpt lat="45.28005" lon="0.55046">
        <ele>104</ele>
        <time>2016-06-21T12:07:34Z</time>
      </trkpt>
      <trkpt lat="45.28009" lon="0.55052">
        <ele>108</ele>
        <time>2016-06-21T12:07:39Z</time>
      </trkpt>
      <trkpt lat="45.28012" lon="0.55059">
        <ele>109</ele>
        <time>2016-06-21T12:07:43Z</time>
      </trkpt>
      <trkpt lat="45.28012" lon="0.55066">
        <ele>109</ele>
        <time>2016-06-21T12:07:48Z</time>
      </trkpt>
      <trkpt lat="45.28014" lon="0.55072">
        <ele>108</ele>
        <time>2016-06-21T12:07:52Z</time>
      </trkpt>
      <trkpt lat="45.28015" lon="0.55077">
        <ele>107</ele>
        <time>2016-06-21T12:07:56Z</time>
      </trkpt>
      <trkpt lat="45.28017" lon="0.55085">
        <ele>106</ele>
        <time>2016-06-21T12:08:01Z</time>
      </trkpt>
      <trkpt lat="45.28018" lon="0.55091">
        <ele>105</ele>
        <time>2016-06-21T12:08:05Z</time>
      </trkpt>
      <trkpt lat="45.28019" lon="0.55098">
        <ele>105</ele>
        <time>2016-06-21T12:08:09Z</time>
      </trkpt>
      <trkpt lat="45.2802" lon="0.55102">
        <ele>106</ele>
        <time>2016-06-21T12:08:15Z</time>
      </trkpt>
      <trkpt lat="45.28019" lon="0.55109">
        <ele>109</ele>
        <time>2016-06-21T12:08:21Z</time>
      </trkpt>
      <trkpt lat="45.28022" lon="0.55119">
        <ele>107</ele>
        <time>2016-06-21T12:08:26Z</time>
      </trkpt>
      <trkpt lat="45.28024" lon="0.55124">
        <ele>110</ele>
        <time>2016-06-21T12:08:31Z</time>
      </trkpt>
      <trkpt lat="45.28025" lon="0.55135">
        <ele>109</ele>
        <time>2016-06-21T12:08:36Z</time>
      </trkpt>
      <trkpt lat="45.28027" lon="0.5514">
        <ele>109</ele>
        <time>2016-06-21T12:08:40Z</time>
      </trkpt>
      <trkpt lat="45.28027" lon="0.55149">
        <ele>109</ele>
        <time>2016-06-21T12:08:45Z</time>
      </trkpt>
      <trkpt lat="45.28028" lon="0.55156">
        <ele>110</ele>
        <time>2016-06-21T12:08:50Z</time>
      </trkpt>
      <trkpt lat="45.28028" lon="0.55163">
        <ele>109</ele>
        <time>2016-06-21T12:08:54Z</time>
      </trkpt>
      <trkpt lat="45.28028" lon="0.55173">
        <ele>110</ele>
        <time>2016-06-21T12:08:59Z</time>
      </trkpt>
      <trkpt lat="45.28029" lon="0.5518">
        <ele>110</ele>
        <time>2016-06-21T12:09:04Z</time>
      </trkpt>
      <trkpt lat="45.28028" lon="0.55186">
        <ele>111</ele>
        <time>2016-06-21T12:09:08Z</time>
      </trkpt>
      <trkpt lat="45.28027" lon="0.55193">
        <ele>111</ele>
        <time>2016-06-21T12:09:12Z</time>
      </trkpt>
      <trkpt lat="45.28027" lon="0.552">
        <ele>113</ele>
        <time>2016-06-21T12:09:17Z</time>
      </trkpt>
      <trkpt lat="45.28026" lon="0.55209">
        <ele>114</ele>
        <time>2016-06-21T12:09:21Z</time>
      </trkpt>
      <trkpt lat="45.28026" lon="0.55219">
        <ele>115</ele>
        <time>2016-06-21T12:09:26Z</time>
      </trkpt>
      <trkpt lat="45.28025" lon="0.55228">
        <ele>115</ele>
        <time>2016-06-21T12:09:31Z</time>
      </trkpt>
      <trkpt lat="45.28026" lon="0.55236">
        <ele>115</ele>
        <time>2016-06-21T12:09:35Z</time>
      </trkpt>
      <trkpt lat="45.28029" lon="0.55244">
        <ele>115</ele>
        <time>2016-06-21T12:09:40Z</time>
      </trkpt>
      <trkpt lat="45.2803" lon="0.55253">
        <ele>117</ele>
        <time>2016-06-21T12:09:44Z</time>
      </trkpt>
      <trkpt lat="45.28032" lon="0.5526">
        <ele>119</ele>
        <time>2016-06-21T12:09:49Z</time>
      </trkpt>
      <trkpt lat="45.28036" lon="0.55269">
        <ele>120</ele>
        <time>2016-06-21T12:09:54Z</time>
      </trkpt>
      <trkpt lat="45.28039" lon="0.55276">
        <ele>120</ele>
        <time>2016-06-21T12:09:58Z</time>
      </trkpt>
      <trkpt lat="45.28042" lon="0.55284">
        <ele>119</ele>
        <time>2016-06-21T12:10:03Z</time>
      </trkpt>
      <trkpt lat="45.28046" lon="0.55292">
        <ele>119</ele>
        <time>2016-06-21T12:10:08Z</time>
      </trkpt>
      <trkpt lat="45.2805" lon="0.55299">
        <ele>120</ele>
        <time>2016-06-21T12:10:12Z</time>
      </trkpt>
      <trkpt lat="45.28054" lon="0.55306">
        <ele>120</ele>
        <time>2016-06-21T12:10:17Z</time>
      </trkpt>
      <trkpt lat="45.28057" lon="0.55312">
        <ele>120</ele>
        <time>2016-06-21T12:10:22Z</time>
      </trkpt>
      <trkpt lat="45.2806" lon="0.55318">
        <ele>122</ele>
        <time>2016-06-21T12:10:26Z</time>
      </trkpt>
      <trkpt lat="45.28063" lon="0.55323">
        <ele>121</ele>
        <time>2016-06-21T12:10:30Z</time>
      </trkpt>
      <trkpt lat="45.28066" lon="0.5533">
        <ele>121</ele>
        <time>2016-06-21T12:10:34Z</time>
      </trkpt>
      <trkpt lat="45.28071" lon="0.55337">
        <ele>121</ele>
        <time>2016-06-21T12:10:39Z</time>
      </trkpt>
      <trkpt lat="45.28072" lon="0.55344">
        <ele>120</ele>
        <time>2016-06-21T12:10:43Z</time>
      </trkpt>
      <trkpt lat="45.28071" lon="0.55349">
        <ele>120</ele>
        <time>2016-06-21T12:10:48Z</time>
      </trkpt>
      <trkpt lat="45.2807" lon="0.55354">
        <ele>122</ele>
        <time>2016-06-21T12:10:52Z</time>
      </trkpt>
      <trkpt lat="45.28065" lon="0.55359">
        <ele>123</ele>
        <time>2016-06-21T12:10:57Z</time>
      </trkpt>
      <trkpt lat="45.28062" lon="0.55363">
        <ele>122</ele>
        <time>2016-06-21T12:11:01Z</time>
      </trkpt>
      <trkpt lat="45.28059" lon="0.55373">
        <ele>119</ele>
        <time>2016-06-21T12:11:06Z</time>
      </trkpt>
      <trkpt lat="45.28055" lon="0.55377">
        <ele>119</ele>
        <time>2016-06-21T12:11:10Z</time>
      </trkpt>
      <trkpt lat="45.2805" lon="0.55378">
        <ele>123</ele>
        <time>2016-06-21T12:11:14Z</time>
      </trkpt>
      <trkpt lat="45.28046" lon="0.55379">
        <ele>126</ele>
        <time>2016-06-21T12:11:18Z</time>
      </trkpt>
      <trkpt lat="45.28041" lon="0.55382">
        <ele>126</ele>
        <time>2016-06-21T12:11:23Z</time>
      </trkpt>
      <trkpt lat="45.28036" lon="0.55384">
        <ele>127</ele>
        <time>2016-06-21T12:11:28Z</time>
      </trkpt>
      <trkpt lat="45.28031" lon="0.55387">
        <ele>128</ele>
        <time>2016-06-21T12:11:32Z</time>
      </trkpt>
      <trkpt lat="45.28027" lon="0.55391">
        <ele>129</ele>
        <time>2016-06-21T12:11:36Z</time>
      </trkpt>
      <trkpt lat="45.28024" lon="0.55394">
        <ele>128</ele>
        <time>2016-06-21T12:11:40Z</time>
      </trkpt>
      <trkpt lat="45.28019" lon="0.554">
        <ele>128</ele>
        <time>2016-06-21T12:11:45Z</time>
      </trkpt>
      <trkpt lat="45.28016" lon="0.55404">
        <ele>127</ele>
        <time>2016-06-21T12:11:49Z</time>
      </trkpt>
      <trkpt lat="45.28013" lon="0.55406">
        <ele>127</ele>
        <time>2016-06-21T12:11:52Z</time>
      </trkpt>
      <trkpt lat="45.28011" lon="0.55417">
        <ele>127</ele>
        <time>2016-06-21T12:11:57Z</time>
      </trkpt>
      <trkpt lat="45.28017" lon="0.55426">
        <ele>128</ele>
        <time>2016-06-21T12:12:02Z</time>
      </trkpt>
      <trkpt lat="45.28019" lon="0.55432">
        <ele>130</ele>
        <time>2016-06-21T12:12:10Z</time>
      </trkpt>
      <trkpt lat="45.28023" lon="0.55432">
        <ele>132</ele>
        <time>2016-06-21T12:12:15Z</time>
      </trkpt>
      <trkpt lat="45.28024" lon="0.5544">
        <ele>133</ele>
        <time>2016-06-21T12:12:19Z</time>
      </trkpt>
      <trkpt lat="45.28026" lon="0.55447">
        <ele>133</ele>
        <time>2016-06-21T12:12:23Z</time>
      </trkpt>
      <trkpt lat="45.28027" lon="0.55453">
        <ele>134</ele>
        <time>2016-06-21T12:12:28Z</time>
      </trkpt>
      <trkpt lat="45.28032" lon="0.55462">
        <ele>133</ele>
        <time>2016-06-21T12:12:33Z</time>
      </trkpt>
      <trkpt lat="45.28034" lon="0.55466">
        <ele>136</ele>
        <time>2016-06-21T12:12:38Z</time>
      </trkpt>
      <trkpt lat="45.28035" lon="0.55476">
        <ele>135</ele>
        <time>2016-06-21T12:12:42Z</time>
      </trkpt>
      <trkpt lat="45.28039" lon="0.55476">
        <ele>135</ele>
        <time>2016-06-21T12:12:46Z</time>
      </trkpt>
      <trkpt lat="45.28042" lon="0.55481">
        <ele>136</ele>
        <time>2016-06-21T12:12:55Z</time>
      </trkpt>
      <trkpt lat="45.28043" lon="0.55487">
        <ele>134</ele>
        <time>2016-06-21T12:12:59Z</time>
      </trkpt>
      <trkpt lat="45.28043" lon="0.55495">
        <ele>134</ele>
        <time>2016-06-21T12:13:04Z</time>
      </trkpt>
      <trkpt lat="45.28045" lon="0.555">
        <ele>134</ele>
        <time>2016-06-21T12:13:09Z</time>
      </trkpt>
      <trkpt lat="45.28047" lon="0.55508">
        <ele>135</ele>
        <time>2016-06-21T12:13:14Z</time>
      </trkpt>
      <trkpt lat="45.28049" lon="0.55512">
        <ele>133</ele>
        <time>2016-06-21T12:13:18Z</time>
      </trkpt>
      <trkpt lat="45.28053" lon="0.55517">
        <ele>131</ele>
        <time>2016-06-21T12:13:22Z</time>
      </trkpt>
      <trkpt lat="45.28056" lon="0.5552">
        <ele>134</ele>
        <time>2016-06-21T12:13:27Z</time>
      </trkpt>
      <trkpt lat="45.28057" lon="0.55525">
        <ele>133</ele>
        <time>2016-06-21T12:13:32Z</time>
      </trkpt>
      <trkpt lat="45.28064" lon="0.55533">
        <ele>129</ele>
        <time>2016-06-21T12:13:37Z</time>
      </trkpt>
      <trkpt lat="45.28065" lon="0.55537">
        <ele>131</ele>
        <time>2016-06-21T12:13:42Z</time>
      </trkpt>
      <trkpt lat="45.28059" lon="0.55544">
        <ele>133</ele>
        <time>2016-06-21T12:13:47Z</time>
      </trkpt>
      <trkpt lat="45.28067" lon="0.5555">
        <ele>132</ele>
        <time>2016-06-21T12:13:51Z</time>
      </trkpt>
      <trkpt lat="45.2807" lon="0.55554">
        <ele>134</ele>
        <time>2016-06-21T12:13:56Z</time>
      </trkpt>
      <trkpt lat="45.2807" lon="0.55565">
        <ele>128</ele>
        <time>2016-06-21T12:14:00Z</time>
      </trkpt>
      <trkpt lat="45.2807" lon="0.55571">
        <ele>128</ele>
        <time>2016-06-21T12:14:04Z</time>
      </trkpt>
      <trkpt lat="45.28069" lon="0.55578">
        <ele>129</ele>
        <time>2016-06-21T12:14:08Z</time>
      </trkpt>
      <trkpt lat="45.2807" lon="0.55585">
        <ele>127</ele>
        <time>2016-06-21T12:14:12Z</time>
      </trkpt>
      <trkpt lat="45.28071" lon="0.55591">
        <ele>129</ele>
        <time>2016-06-21T12:14:17Z</time>
      </trkpt>
      <trkpt lat="45.28073" lon="0.55597">
        <ele>127</ele>
        <time>2016-06-21T12:14:21Z</time>
      </trkpt>
      <trkpt lat="45.28074" lon="0.55606">
        <ele>126</ele>
        <time>2016-06-21T12:14:26Z</time>
      </trkpt>
      <trkpt lat="45.28077" lon="0.55618">
        <ele>124</ele>
        <time>2016-06-21T12:14:31Z</time>
      </trkpt>
      <trkpt lat="45.28077" lon="0.55623">
        <ele>124</ele>
        <time>2016-06-21T12:14:35Z</time>
      </trkpt>
      <trkpt lat="45.28079" lon="0.5563">
        <ele>123</ele>
        <time>2016-06-21T12:14:40Z</time>
      </trkpt>
      <trkpt lat="45.28081" lon="0.55635">
        <ele>121</ele>
        <time>2016-06-21T12:14:46Z</time>
      </trkpt>
      <trkpt lat="45.2808" lon="0.55644">
        <ele>123</ele>
        <time>2016-06-21T12:14:50Z</time>
      </trkpt>
      <trkpt lat="45.2808" lon="0.55649">
        <ele>124</ele>
        <time>2016-06-21T12:14:56Z</time>
      </trkpt>
      <trkpt lat="45.28079" lon="0.55654">
        <ele>124</ele>
        <time>2016-06-21T12:15:01Z</time>
      </trkpt>
      <trkpt lat="45.2808" lon="0.55661">
        <ele>125</ele>
        <time>2016-06-21T12:15:05Z</time>
      </trkpt>
      <trkpt lat="45.28084" lon="0.55671">
        <ele>121</ele>
        <time>2016-06-21T12:15:10Z</time>
      </trkpt>
      <trkpt lat="45.28083" lon="0.55678">
        <ele>123</ele>
        <time>2016-06-21T12:15:14Z</time>
      </trkpt>
      <trkpt lat="45.28085" lon="0.55683">
        <ele>125</ele>
        <time>2016-06-21T12:15:20Z</time>
      </trkpt>
      <trkpt lat="45.28087" lon="0.55693">
        <ele>122</ele>
        <time>2016-06-21T12:15:25Z</time>
      </trkpt>
      <trkpt lat="45.28087" lon="0.55696">
        <ele>122</ele>
        <time>2016-06-21T12:15:31Z</time>
      </trkpt>
      <trkpt lat="45.28088" lon="0.55709">
        <ele>120</ele>
        <time>2016-06-21T12:15:36Z</time>
      </trkpt>
      <trkpt lat="45.28086" lon="0.55713">
        <ele>121</ele>
        <time>2016-06-21T12:15:40Z</time>
      </trkpt>
      <trkpt lat="45.28088" lon="0.55722">
        <ele>122</ele>
        <time>2016-06-21T12:15:45Z</time>
      </trkpt>
      <trkpt lat="45.28091" lon="0.55726">
        <ele>120</ele>
        <time>2016-06-21T12:15:49Z</time>
      </trkpt>
      <trkpt lat="45.28091" lon="0.55733">
        <ele>123</ele>
        <time>2016-06-21T12:15:53Z</time>
      </trkpt>
      <trkpt lat="45.28093" lon="0.55738">
        <ele>123</ele>
        <time>2016-06-21T12:16:02Z</time>
      </trkpt>
      <trkpt lat="45.28093" lon="0.55744">
        <ele>124</ele>
        <time>2016-06-21T12:16:07Z</time>
      </trkpt>
      <trkpt lat="45.28094" lon="0.55754">
        <ele>123</ele>
        <time>2016-06-21T12:16:11Z</time>
      </trkpt>
      <trkpt lat="45.28096" lon="0.55759">
        <ele>121</ele>
        <time>2016-06-21T12:16:16Z</time>
      </trkpt>
      <trkpt lat="45.28096" lon="0.55767">
        <ele>121</ele>
        <time>2016-06-21T12:16:20Z</time>
      </trkpt>
      <trkpt lat="45.28098" lon="0.55775">
        <ele>124</ele>
        <time>2016-06-21T12:16:24Z</time>
      </trkpt>
      <trkpt lat="45.28099" lon="0.55779">
        <ele>124</ele>
        <time>2016-06-21T12:16:29Z</time>
      </trkpt>
      <trkpt lat="45.28102" lon="0.55792">
        <ele>122</ele>
        <time>2016-06-21T12:16:34Z</time>
      </trkpt>
      <trkpt lat="45.28104" lon="0.55797">
        <ele>119</ele>
        <time>2016-06-21T12:16:39Z</time>
      </trkpt>
      <trkpt lat="45.28106" lon="0.55802">
        <ele>119</ele>
        <time>2016-06-21T12:16:43Z</time>
      </trkpt>
      <trkpt lat="45.28107" lon="0.55809">
        <ele>121</ele>
        <time>2016-06-21T12:16:48Z</time>
      </trkpt>
      <trkpt lat="45.28109" lon="0.55811">
        <ele>121</ele>
        <time>2016-06-21T12:16:52Z</time>
      </trkpt>
      <trkpt lat="45.2811" lon="0.55817">
        <ele>120</ele>
        <time>2016-06-21T12:16:56Z</time>
      </trkpt>
      <trkpt lat="45.28109" lon="0.55829">
        <ele>123</ele>
        <time>2016-06-21T12:17:01Z</time>
      </trkpt>
      <trkpt lat="45.28109" lon="0.55834">
        <ele>125</ele>
        <time>2016-06-21T12:17:06Z</time>
      </trkpt>
      <trkpt lat="45.2811" lon="0.55844">
        <ele>123</ele>
        <time>2016-06-21T12:17:10Z</time>
      </trkpt>
      <trkpt lat="45.2811" lon="0.55848">
        <ele>125</ele>
        <time>2016-06-21T12:17:14Z</time>
      </trkpt>
      <trkpt lat="45.2811" lon="0.55856">
        <ele>122</ele>
        <time>2016-06-21T12:17:19Z</time>
      </trkpt>
      <trkpt lat="45.28111" lon="0.55864">
        <ele>120</ele>
        <time>2016-06-21T12:17:23Z</time>
      </trkpt>
      <trkpt lat="45.28113" lon="0.55876">
        <ele>120</ele>
        <time>2016-06-21T12:17:28Z</time>
      </trkpt>
      <trkpt lat="45.28113" lon="0.55882">
        <ele>119</ele>
        <time>2016-06-21T12:17:32Z</time>
      </trkpt>
      <trkpt lat="45.28113" lon="0.5589">
        <ele>119</ele>
        <time>2016-06-21T12:17:36Z</time>
      </trkpt>
      <trkpt lat="45.28114" lon="0.55898">
        <ele>117</ele>
        <time>2016-06-21T12:17:40Z</time>
      </trkpt>
      <trkpt lat="45.28113" lon="0.55903">
        <ele>117</ele>
        <time>2016-06-21T12:17:44Z</time>
      </trkpt>
      <trkpt lat="45.2812" lon="0.55913">
        <ele>114</ele>
        <time>2016-06-21T12:17:49Z</time>
      </trkpt>
      <trkpt lat="45.28121" lon="0.55921">
        <ele>114</ele>
        <time>2016-06-21T12:17:54Z</time>
      </trkpt>
      <trkpt lat="45.2812" lon="0.55925">
        <ele>114</ele>
        <time>2016-06-21T12:17:58Z</time>
      </trkpt>
      <trkpt lat="45.2812" lon="0.55933">
        <ele>122</ele>
        <time>2016-06-21T12:18:03Z</time>
      </trkpt>
      <trkpt lat="45.28122" lon="0.5594">
        <ele>121</ele>
        <time>2016-06-21T12:18:08Z</time>
      </trkpt>
      <trkpt lat="45.28124" lon="0.55945">
        <ele>120</ele>
        <time>2016-06-21T12:18:13Z</time>
      </trkpt>
      <trkpt lat="45.28125" lon="0.55952">
        <ele>120</ele>
        <time>2016-06-21T12:18:17Z</time>
      </trkpt>
      <trkpt lat="45.28128" lon="0.55958">
        <ele>121</ele>
        <time>2016-06-21T12:18:22Z</time>
      </trkpt>
      <trkpt lat="45.28128" lon="0.55964">
        <ele>124</ele>
        <time>2016-06-21T12:18:26Z</time>
      </trkpt>
      <trkpt lat="45.28128" lon="0.5597">
        <ele>124</ele>
        <time>2016-06-21T12:18:30Z</time>
      </trkpt>
      <trkpt lat="45.28131" lon="0.5598">
        <ele>121</ele>
        <time>2016-06-21T12:18:35Z</time>
      </trkpt>
      <trkpt lat="45.28131" lon="0.55985">
        <ele>124</ele>
        <time>2016-06-21T12:18:40Z</time>
      </trkpt>
      <trkpt lat="45.28133" lon="0.55991">
        <ele>124</ele>
        <time>2016-06-21T12:18:44Z</time>
      </trkpt>
      <trkpt lat="45.28132" lon="0.56">
        <ele>127</ele>
        <time>2016-06-21T12:18:49Z</time>
      </trkpt>
      <trkpt lat="45.28132" lon="0.56008">
        <ele>128</ele>
        <time>2016-06-21T12:18:54Z</time>
      </trkpt>
      <trkpt lat="45.28133" lon="0.56014">
        <ele>129</ele>
        <time>2016-06-21T12:18:59Z</time>
      </trkpt>
      <trkpt lat="45.28136" lon="0.56016">
        <ele>133</ele>
        <time>2016-06-21T12:19:04Z</time>
      </trkpt>
      <trkpt lat="45.28138" lon="0.56023">
        <ele>131</ele>
        <time>2016-06-21T12:19:09Z</time>
      </trkpt>
      <trkpt lat="45.28138" lon="0.56031">
        <ele>133</ele>
        <time>2016-06-21T12:19:13Z</time>
      </trkpt>
      <trkpt lat="45.28142" lon="0.56038">
        <ele>132</ele>
        <time>2016-06-21T12:19:18Z</time>
      </trkpt>
      <trkpt lat="45.28143" lon="0.56047">
        <ele>132</ele>
        <time>2016-06-21T12:19:23Z</time>
      </trkpt>
      <trkpt lat="45.28143" lon="0.56055">
        <ele>132</ele>
        <time>2016-06-21T12:19:28Z</time>
      </trkpt>
      <trkpt lat="45.28145" lon="0.56059">
        <ele>133</ele>
        <time>2016-06-21T12:19:33Z</time>
      </trkpt>
      <trkpt lat="45.28144" lon="0.56069">
        <ele>131</ele>
        <time>2016-06-21T12:19:37Z</time>
      </trkpt>
      <trkpt lat="45.28147" lon="0.56077">
        <ele>129</ele>
        <time>2016-06-21T12:19:41Z</time>
      </trkpt>
      <trkpt lat="45.28148" lon="0.56087">
        <ele>129</ele>
        <time>2016-06-21T12:19:46Z</time>
      </trkpt>
      <trkpt lat="45.2815" lon="0.56091">
        <ele>130</ele>
        <time>2016-06-21T12:19:53Z</time>
      </trkpt>
      <trkpt lat="45.28153" lon="0.56098">
        <ele>130</ele>
        <time>2016-06-21T12:19:57Z</time>
      </trkpt>
      <trkpt lat="45.28158" lon="0.56101">
        <ele>126</ele>
        <time>2016-06-21T12:20:01Z</time>
      </trkpt>
      <trkpt lat="45.28161" lon="0.56106">
        <ele>123</ele>
        <time>2016-06-21T12:20:05Z</time>
      </trkpt>
      <trkpt lat="45.28163" lon="0.56111">
        <ele>121</ele>
        <time>2016-06-21T12:20:09Z</time>
      </trkpt>
      <trkpt lat="45.28162" lon="0.56119">
        <ele>122</ele>
        <time>2016-06-21T12:20:13Z</time>
      </trkpt>
      <trkpt lat="45.28164" lon="0.5613">
        <ele>121</ele>
        <time>2016-06-21T12:20:18Z</time>
      </trkpt>
      <trkpt lat="45.28167" lon="0.56136">
        <ele>123</ele>
        <time>2016-06-21T12:20:22Z</time>
      </trkpt>
      <trkpt lat="45.28171" lon="0.56139">
        <ele>121</ele>
        <time>2016-06-21T12:20:26Z</time>
      </trkpt>
      <trkpt lat="45.28174" lon="0.56148">
        <ele>119</ele>
        <time>2016-06-21T12:20:31Z</time>
      </trkpt>
      <trkpt lat="45.28175" lon="0.56155">
        <ele>120</ele>
        <time>2016-06-21T12:20:35Z</time>
      </trkpt>
      <trkpt lat="45.28175" lon="0.56162">
        <ele>125</ele>
        <time>2016-06-21T12:20:39Z</time>
      </trkpt>
      <trkpt lat="45.28176" lon="0.5617">
        <ele>127</ele>
        <time>2016-06-21T12:20:43Z</time>
      </trkpt>
      <trkpt lat="45.28179" lon="0.5618">
        <ele>127</ele>
        <time>2016-06-21T12:20:48Z</time>
      </trkpt>
      <trkpt lat="45.2818" lon="0.56184">
        <ele>130</ele>
        <time>2016-06-21T12:20:53Z</time>
      </trkpt>
      <trkpt lat="45.28184" lon="0.56191">
        <ele>129</ele>
        <time>2016-06-21T12:20:57Z</time>
      </trkpt>
      <trkpt lat="45.28186" lon="0.56195">
        <ele>128</ele>
        <time>2016-06-21T12:21:02Z</time>
      </trkpt>
      <trkpt lat="45.28189" lon="0.56202">
        <ele>127</ele>
        <time>2016-06-21T12:21:06Z</time>
      </trkpt>
      <trkpt lat="45.2819" lon="0.56209">
        <ele>128</ele>
        <time>2016-06-21T12:21:11Z</time>
      </trkpt>
      <trkpt lat="45.28192" lon="0.56216">
        <ele>127</ele>
        <time>2016-06-21T12:21:15Z</time>
      </trkpt>
      <trkpt lat="45.28194" lon="0.56222">
        <ele>128</ele>
        <time>2016-06-21T12:21:20Z</time>
      </trkpt>
      <trkpt lat="45.28195" lon="0.56227">
        <ele>129</ele>
        <time>2016-06-21T12:21:24Z</time>
      </trkpt>
      <trkpt lat="45.28199" lon="0.56233">
        <ele>127</ele>
        <time>2016-06-21T12:21:28Z</time>
      </trkpt>
      <trkpt lat="45.282" lon="0.56238">
        <ele>129</ele>
        <time>2016-06-21T12:21:33Z</time>
      </trkpt>
      <trkpt lat="45.28201" lon="0.56245">
        <ele>132</ele>
        <time>2016-06-21T12:21:38Z</time>
      </trkpt>
      <trkpt lat="45.28203" lon="0.56251">
        <ele>131</ele>
        <time>2016-06-21T12:21:42Z</time>
      </trkpt>
      <trkpt lat="45.28206" lon="0.56255">
        <ele>131</ele>
        <time>2016-06-21T12:21:47Z</time>
      </trkpt>
      <trkpt lat="45.28207" lon="0.56259">
        <ele>133</ele>
        <time>2016-06-21T12:21:52Z</time>
      </trkpt>
      <trkpt lat="45.28207" lon="0.56267">
        <ele>131</ele>
        <time>2016-06-21T12:21:56Z</time>
      </trkpt>
      <trkpt lat="45.28211" lon="0.56272">
        <ele>133</ele>
        <time>2016-06-21T12:22:00Z</time>
      </trkpt>
      <trkpt lat="45.28212" lon="0.56277">
        <ele>136</ele>
        <time>2016-06-21T12:22:05Z</time>
      </trkpt>
      <trkpt lat="45.28215" lon="0.56283">
        <ele>136</ele>
        <time>2016-06-21T12:22:10Z</time>
      </trkpt>
      <trkpt lat="45.28217" lon="0.56287">
        <ele>136</ele>
        <time>2016-06-21T12:22:16Z</time>
      </trkpt>
      <trkpt lat="45.28218" lon="0.56297">
        <ele>134</ele>
        <time>2016-06-21T12:22:20Z</time>
      </trkpt>
      <trkpt lat="45.28223" lon="0.56299">
        <ele>134</ele>
        <time>2016-06-21T12:22:25Z</time>
      </trkpt>
      <trkpt lat="45.28225" lon="0.56304">
        <ele>136</ele>
        <time>2016-06-21T12:22:35Z</time>
      </trkpt>
      <trkpt lat="45.28227" lon="0.56309">
        <ele>140</ele>
        <time>2016-06-21T12:22:40Z</time>
      </trkpt>
      <trkpt lat="45.28229" lon="0.56314">
        <ele>141</ele>
        <time>2016-06-21T12:22:45Z</time>
      </trkpt>
      <trkpt lat="45.28231" lon="0.5632">
        <ele>142</ele>
        <time>2016-06-21T12:22:49Z</time>
      </trkpt>
      <trkpt lat="45.28234" lon="0.56328">
        <ele>138</ele>
        <time>2016-06-21T12:22:54Z</time>
      </trkpt>
      <trkpt lat="45.28234" lon="0.56334">
        <ele>142</ele>
        <time>2016-06-21T12:22:59Z</time>
      </trkpt>
      <trkpt lat="45.28237" lon="0.5634">
        <ele>143</ele>
        <time>2016-06-21T12:23:03Z</time>
      </trkpt>
      <trkpt lat="45.2824" lon="0.56344">
        <ele>142</ele>
        <time>2016-06-21T12:23:11Z</time>
      </trkpt>
      <trkpt lat="45.28241" lon="0.56352">
        <ele>146</ele>
        <time>2016-06-21T12:23:16Z</time>
      </trkpt>
      <trkpt lat="45.28242" lon="0.56356">
        <ele>147</ele>
        <time>2016-06-21T12:23:20Z</time>
      </trkpt>
      <trkpt lat="45.28242" lon="0.56362">
        <ele>150</ele>
        <time>2016-06-21T12:23:25Z</time>
      </trkpt>
      <trkpt lat="45.28245" lon="0.56366">
        <ele>149</ele>
        <time>2016-06-21T12:23:31Z</time>
      </trkpt>
      <trkpt lat="45.28249" lon="0.56368">
        <ele>147</ele>
        <time>2016-06-21T12:23:37Z</time>
      </trkpt>
      <trkpt lat="45.28254" lon="0.56376">
        <ele>146</ele>
        <time>2016-06-21T12:23:42Z</time>
      </trkpt>
      <trkpt lat="45.28257" lon="0.56383">
        <ele>145</ele>
        <time>2016-06-21T12:23:46Z</time>
      </trkpt>
      <trkpt lat="45.28259" lon="0.56388">
        <ele>146</ele>
        <time>2016-06-21T12:23:50Z</time>
      </trkpt>
      <trkpt lat="45.28261" lon="0.56392">
        <ele>147</ele>
        <time>2016-06-21T12:23:54Z</time>
      </trkpt>
      <trkpt lat="45.28262" lon="0.56397">
        <ele>146</ele>
        <time>2016-06-21T12:23:58Z</time>
      </trkpt>
      <trkpt lat="45.28266" lon="0.56406">
        <ele>145</ele>
        <time>2016-06-21T12:24:03Z</time>
      </trkpt>
      <trkpt lat="45.28273" lon="0.56408">
        <ele>141</ele>
        <time>2016-06-21T12:24:07Z</time>
      </trkpt>
      <trkpt lat="45.28276" lon="0.56414">
        <ele>141</ele>
        <time>2016-06-21T12:24:11Z</time>
      </trkpt>
      <trkpt lat="45.28279" lon="0.56423">
        <ele>143</ele>
        <time>2016-06-21T12:24:16Z</time>
      </trkpt>
      <trkpt lat="45.28283" lon="0.5643">
        <ele>143</ele>
        <time>2016-06-21T12:24:21Z</time>
      </trkpt>
      <trkpt lat="45.28286" lon="0.56438">
        <ele>145</ele>
        <time>2016-06-21T12:24:26Z</time>
      </trkpt>
      <trkpt lat="45.2829" lon="0.56442">
        <ele>145</ele>
        <time>2016-06-21T12:24:30Z</time>
      </trkpt>
      <trkpt lat="45.28293" lon="0.56446">
        <ele>146</ele>
        <time>2016-06-21T12:24:35Z</time>
      </trkpt>
      <trkpt lat="45.28297" lon="0.56449">
        <ele>147</ele>
        <time>2016-06-21T12:24:40Z</time>
      </trkpt>
      <trkpt lat="45.28299" lon="0.56453">
        <ele>147</ele>
        <time>2016-06-21T12:24:44Z</time>
      </trkpt>
      <trkpt lat="45.28303" lon="0.56457">
        <ele>145</ele>
        <time>2016-06-21T12:24:49Z</time>
      </trkpt>
      <trkpt lat="45.28307" lon="0.5646">
        <ele>145</ele>
        <time>2016-06-21T12:24:54Z</time>
      </trkpt>
      <trkpt lat="45.28311" lon="0.56466">
        <ele>145</ele>
        <time>2016-06-21T12:24:59Z</time>
      </trkpt>
      <trkpt lat="45.28314" lon="0.5647">
        <ele>147</ele>
        <time>2016-06-21T12:25:07Z</time>
      </trkpt>
      <trkpt lat="45.28318" lon="0.56479">
        <ele>147</ele>
        <time>2016-06-21T12:25:12Z</time>
      </trkpt>
      <trkpt lat="45.2832" lon="0.56484">
        <ele>150</ele>
        <time>2016-06-21T12:25:18Z</time>
      </trkpt>
      <trkpt lat="45.28323" lon="0.5649">
        <ele>151</ele>
        <time>2016-06-21T12:25:23Z</time>
      </trkpt>
      <trkpt lat="45.28326" lon="0.56496">
        <ele>151</ele>
        <time>2016-06-21T12:25:28Z</time>
      </trkpt>
      <trkpt lat="45.2833" lon="0.56498">
        <ele>151</ele>
        <time>2016-06-21T12:25:32Z</time>
      </trkpt>
      <trkpt lat="45.28333" lon="0.56501">
        <ele>149</ele>
        <time>2016-06-21T12:25:36Z</time>
      </trkpt>
      <trkpt lat="45.28334" lon="0.56507">
        <ele>151</ele>
        <time>2016-06-21T12:25:40Z</time>
      </trkpt>
      <trkpt lat="45.28339" lon="0.56513">
        <ele>149</ele>
        <time>2016-06-21T12:25:45Z</time>
      </trkpt>
      <trkpt lat="45.2834" lon="0.56518">
        <ele>151</ele>
        <time>2016-06-21T12:25:50Z</time>
      </trkpt>
      <trkpt lat="45.28343" lon="0.56525">
        <ele>151</ele>
        <time>2016-06-21T12:25:55Z</time>
      </trkpt>
      <trkpt lat="45.28344" lon="0.5653">
        <ele>151</ele>
        <time>2016-06-21T12:25:59Z</time>
      </trkpt>
      <trkpt lat="45.28347" lon="0.56534">
        <ele>153</ele>
        <time>2016-06-21T12:26:05Z</time>
      </trkpt>
      <trkpt lat="45.28348" lon="0.56539">
        <ele>154</ele>
        <time>2016-06-21T12:26:09Z</time>
      </trkpt>
      <trkpt lat="45.28349" lon="0.56546">
        <ele>157</ele>
        <time>2016-06-21T12:26:13Z</time>
      </trkpt>
      <trkpt lat="45.28352" lon="0.56553">
        <ele>155</ele>
        <time>2016-06-21T12:26:18Z</time>
      </trkpt>
      <trkpt lat="45.28354" lon="0.5656">
        <ele>156</ele>
        <time>2016-06-21T12:26:23Z</time>
      </trkpt>
      <trkpt lat="45.28358" lon="0.56565">
        <ele>154</ele>
        <time>2016-06-21T12:26:27Z</time>
      </trkpt>
      <trkpt lat="45.28361" lon="0.5657">
        <ele>154</ele>
        <time>2016-06-21T12:26:37Z</time>
      </trkpt>
      <trkpt lat="45.28361" lon="0.56576">
        <ele>149</ele>
        <time>2016-06-21T12:29:34Z</time>
      </trkpt>
      <trkpt lat="45.28364" lon="0.56581">
        <ele>149</ele>
        <time>2016-06-21T12:29:39Z</time>
      </trkpt>
      <trkpt lat="45.28367" lon="0.56584">
        <ele>150</ele>
        <time>2016-06-21T12:29:43Z</time>
      </trkpt>
      <trkpt lat="45.28371" lon="0.56586">
        <ele>151</ele>
        <time>2016-06-21T12:29:47Z</time>
      </trkpt>
      <trkpt lat="45.28374" lon="0.56589">
        <ele>152</ele>
        <time>2016-06-21T12:29:52Z</time>
      </trkpt>
      <trkpt lat="45.28379" lon="0.5659">
        <ele>151</ele>
        <time>2016-06-21T12:29:56Z</time>
      </trkpt>
      <trkpt lat="45.28383" lon="0.56596">
        <ele>151</ele>
        <time>2016-06-21T12:30:01Z</time>
      </trkpt>
      <trkpt lat="45.28387" lon="0.56596">
        <ele>152</ele>
        <time>2016-06-21T12:30:06Z</time>
      </trkpt>
      <trkpt lat="45.28392" lon="0.56599">
        <ele>151</ele>
        <time>2016-06-21T12:30:11Z</time>
      </trkpt>
      <trkpt lat="45.28395" lon="0.56603">
        <ele>150</ele>
        <time>2016-06-21T12:30:15Z</time>
      </trkpt>
      <trkpt lat="45.28399" lon="0.56605">
        <ele>149</ele>
        <time>2016-06-21T12:30:20Z</time>
      </trkpt>
      <trkpt lat="45.28405" lon="0.5661">
        <ele>146</ele>
        <time>2016-06-21T12:30:25Z</time>
      </trkpt>
      <trkpt lat="45.28409" lon="0.56614">
        <ele>147</ele>
        <time>2016-06-21T12:30:29Z</time>
      </trkpt>
      <trkpt lat="45.28413" lon="0.56616">
        <ele>146</ele>
        <time>2016-06-21T12:30:33Z</time>
      </trkpt>
      <trkpt lat="45.28418" lon="0.5662">
        <ele>145</ele>
        <time>2016-06-21T12:30:38Z</time>
      </trkpt>
      <trkpt lat="45.28423" lon="0.56625">
        <ele>146</ele>
        <time>2016-06-21T12:30:43Z</time>
      </trkpt>
      <trkpt lat="45.28428" lon="0.56628">
        <ele>145</ele>
        <time>2016-06-21T12:30:47Z</time>
      </trkpt>
      <trkpt lat="45.28432" lon="0.56631">
        <ele>143</ele>
        <time>2016-06-21T12:30:51Z</time>
      </trkpt>
      <trkpt lat="45.28437" lon="0.56635">
        <ele>142</ele>
        <time>2016-06-21T12:30:56Z</time>
      </trkpt>
      <trkpt lat="45.28442" lon="0.56638">
        <ele>142</ele>
        <time>2016-06-21T12:31:00Z</time>
      </trkpt>
      <trkpt lat="45.28445" lon="0.56643">
        <ele>142</ele>
        <time>2016-06-21T12:31:04Z</time>
      </trkpt>
      <trkpt lat="45.28449" lon="0.56647">
        <ele>142</ele>
        <time>2016-06-21T12:31:08Z</time>
      </trkpt>
      <trkpt lat="45.28452" lon="0.56652">
        <ele>142</ele>
        <time>2016-06-21T12:31:12Z</time>
      </trkpt>
      <trkpt lat="45.28456" lon="0.56654">
        <ele>142</ele>
        <time>2016-06-21T12:31:16Z</time>
      </trkpt>
      <trkpt lat="45.28459" lon="0.56658">
        <ele>141</ele>
        <time>2016-06-21T12:31:21Z</time>
      </trkpt>
      <trkpt lat="45.28465" lon="0.56662">
        <ele>142</ele>
        <time>2016-06-21T12:31:25Z</time>
      </trkpt>
      <trkpt lat="45.28469" lon="0.56669">
        <ele>142</ele>
        <time>2016-06-21T12:31:30Z</time>
      </trkpt>
      <trkpt lat="45.28473" lon="0.5667">
        <ele>141</ele>
        <time>2016-06-21T12:31:34Z</time>
      </trkpt>
      <trkpt lat="45.28476" lon="0.56675">
        <ele>141</ele>
        <time>2016-06-21T12:31:38Z</time>
      </trkpt>
      <trkpt lat="45.28479" lon="0.56681">
        <ele>140</ele>
        <time>2016-06-21T12:31:42Z</time>
      </trkpt>
      <trkpt lat="45.28482" lon="0.56686">
        <ele>142</ele>
        <time>2016-06-21T12:31:46Z</time>
      </trkpt>
      <trkpt lat="45.28485" lon="0.56695">
        <ele>143</ele>
        <time>2016-06-21T12:31:50Z</time>
      </trkpt>
      <trkpt lat="45.28489" lon="0.56697">
        <ele>143</ele>
        <time>2016-06-21T12:31:54Z</time>
      </trkpt>
      <trkpt lat="45.28495" lon="0.56701">
        <ele>143</ele>
        <time>2016-06-21T12:31:59Z</time>
      </trkpt>
      <trkpt lat="45.28499" lon="0.56703">
        <ele>143</ele>
        <time>2016-06-21T12:32:03Z</time>
      </trkpt>
      <trkpt lat="45.28503" lon="0.56706">
        <ele>143</ele>
        <time>2016-06-21T12:32:07Z</time>
      </trkpt>
      <trkpt lat="45.28507" lon="0.5671">
        <ele>144</ele>
        <time>2016-06-21T12:32:12Z</time>
      </trkpt>
      <trkpt lat="45.28511" lon="0.56716">
        <ele>144</ele>
        <time>2016-06-21T12:32:17Z</time>
      </trkpt>
      <trkpt lat="45.28517" lon="0.56713">
        <ele>138</ele>
        <time>2016-06-21T12:32:21Z</time>
      </trkpt>
      <trkpt lat="45.28519" lon="0.56717">
        <ele>136</ele>
        <time>2016-06-21T12:32:25Z</time>
      </trkpt>
      <trkpt lat="45.28523" lon="0.56724">
        <ele>137</ele>
        <time>2016-06-21T12:32:29Z</time>
      </trkpt>
      <trkpt lat="45.28528" lon="0.56728">
        <ele>133</ele>
        <time>2016-06-21T12:32:34Z</time>
      </trkpt>
      <trkpt lat="45.28534" lon="0.56735">
        <ele>133</ele>
        <time>2016-06-21T12:32:39Z</time>
      </trkpt>
      <trkpt lat="45.28537" lon="0.56737">
        <ele>133</ele>
        <time>2016-06-21T12:32:43Z</time>
      </trkpt>
      <trkpt lat="45.28545" lon="0.56734">
        <ele>131</ele>
        <time>2016-06-21T12:32:48Z</time>
      </trkpt>
      <trkpt lat="45.28548" lon="0.56739">
        <ele>132</ele>
        <time>2016-06-21T12:32:55Z</time>
      </trkpt>
      <trkpt lat="45.28549" lon="0.56744">
        <ele>131</ele>
        <time>2016-06-21T12:33:01Z</time>
      </trkpt>
      <trkpt lat="45.28545" lon="0.56748">
        <ele>132</ele>
        <time>2016-06-21T12:33:06Z</time>
      </trkpt>
      <trkpt lat="45.28542" lon="0.56753">
        <ele>132</ele>
        <time>2016-06-21T12:33:10Z</time>
      </trkpt>
      <trkpt lat="45.28542" lon="0.5676">
        <ele>131</ele>
        <time>2016-06-21T12:33:14Z</time>
      </trkpt>
      <trkpt lat="45.28538" lon="0.56765">
        <ele>130</ele>
        <time>2016-06-21T12:33:19Z</time>
      </trkpt>
      <trkpt lat="45.28533" lon="0.56774">
        <ele>129</ele>
        <time>2016-06-21T12:33:24Z</time>
      </trkpt>
      <trkpt lat="45.28528" lon="0.56777">
        <ele>130</ele>
        <time>2016-06-21T12:33:29Z</time>
      </trkpt>
      <trkpt lat="45.28524" lon="0.56778">
        <ele>132</ele>
        <time>2016-06-21T12:33:33Z</time>
      </trkpt>
      <trkpt lat="45.2852" lon="0.56781">
        <ele>132</ele>
        <time>2016-06-21T12:33:37Z</time>
      </trkpt>
      <trkpt lat="45.28518" lon="0.56791">
        <ele>130</ele>
        <time>2016-06-21T12:33:41Z</time>
      </trkpt>
      <trkpt lat="45.28515" lon="0.56798">
        <ele>128</ele>
        <time>2016-06-21T12:33:45Z</time>
      </trkpt>
      <trkpt lat="45.28508" lon="0.56802">
        <ele>128</ele>
        <time>2016-06-21T12:33:50Z</time>
      </trkpt>
      <trkpt lat="45.28506" lon="0.56807">
        <ele>128</ele>
        <time>2016-06-21T12:33:54Z</time>
      </trkpt>
      <trkpt lat="45.28502" lon="0.56812">
        <ele>125</ele>
        <time>2016-06-21T12:33:59Z</time>
      </trkpt>
      <trkpt lat="45.28497" lon="0.56818">
        <ele>124</ele>
        <time>2016-06-21T12:34:03Z</time>
      </trkpt>
      <trkpt lat="45.28491" lon="0.56824">
        <ele>123</ele>
        <time>2016-06-21T12:34:08Z</time>
      </trkpt>
      <trkpt lat="45.28484" lon="0.56826">
        <ele>126</ele>
        <time>2016-06-21T12:34:13Z</time>
      </trkpt>
      <trkpt lat="45.28481" lon="0.5683">
        <ele>125</ele>
        <time>2016-06-21T12:34:18Z</time>
      </trkpt>
      <trkpt lat="45.28482" lon="0.56835">
        <ele>124</ele>
        <time>2016-06-21T12:34:22Z</time>
      </trkpt>
      <trkpt lat="45.28486" lon="0.5684">
        <ele>121</ele>
        <time>2016-06-21T12:34:26Z</time>
      </trkpt>
      <trkpt lat="45.28489" lon="0.56844">
        <ele>120</ele>
        <time>2016-06-21T12:34:32Z</time>
      </trkpt>
      <trkpt lat="45.2849" lon="0.56849">
        <ele>119</ele>
        <time>2016-06-21T12:34:38Z</time>
      </trkpt>
      <trkpt lat="45.28494" lon="0.56852">
        <ele>123</ele>
        <time>2016-06-21T12:34:42Z</time>
      </trkpt>
      <trkpt lat="45.28499" lon="0.56855">
        <ele>123</ele>
        <time>2016-06-21T12:34:46Z</time>
      </trkpt>
      <trkpt lat="45.28504" lon="0.56855">
        <ele>123</ele>
        <time>2016-06-21T12:34:50Z</time>
      </trkpt>
      <trkpt lat="45.28509" lon="0.56862">
        <ele>124</ele>
        <time>2016-06-21T12:34:54Z</time>
      </trkpt>
      <trkpt lat="45.28514" lon="0.56867">
        <ele>124</ele>
        <time>2016-06-21T12:34:58Z</time>
      </trkpt>
      <trkpt lat="45.28519" lon="0.56871">
        <ele>126</ele>
        <time>2016-06-21T12:35:03Z</time>
      </trkpt>
      <trkpt lat="45.28525" lon="0.56878">
        <ele>126</ele>
        <time>2016-06-21T12:35:08Z</time>
      </trkpt>
      <trkpt lat="45.2853" lon="0.56878">
        <ele>127</ele>
        <time>2016-06-21T12:35:12Z</time>
      </trkpt>
      <trkpt lat="45.28533" lon="0.56884">
        <ele>129</ele>
        <time>2016-06-21T12:35:16Z</time>
      </trkpt>
      <trkpt lat="45.28539" lon="0.56884">
        <ele>128</ele>
        <time>2016-06-21T12:35:20Z</time>
      </trkpt>
      <trkpt lat="45.28546" lon="0.56885">
        <ele>125</ele>
        <time>2016-06-21T12:35:24Z</time>
      </trkpt>
      <trkpt lat="45.28552" lon="0.56889">
        <ele>125</ele>
        <time>2016-06-21T12:35:29Z</time>
      </trkpt>
      <trkpt lat="45.28559" lon="0.56888">
        <ele>126</ele>
        <time>2016-06-21T12:35:34Z</time>
      </trkpt>
      <trkpt lat="45.28566" lon="0.56891">
        <ele>125</ele>
        <time>2016-06-21T12:35:38Z</time>
      </trkpt>
      <trkpt lat="45.28572" lon="0.56896">
        <ele>122</ele>
        <time>2016-06-21T12:35:43Z</time>
      </trkpt>
      <trkpt lat="45.28579" lon="0.56901">
        <ele>121</ele>
        <time>2016-06-21T12:35:48Z</time>
      </trkpt>
      <trkpt lat="45.28582" lon="0.56906">
        <ele>121</ele>
        <time>2016-06-21T12:35:52Z</time>
      </trkpt>
      <trkpt lat="45.28587" lon="0.56913">
        <ele>121</ele>
        <time>2016-06-21T12:35:57Z</time>
      </trkpt>
      <trkpt lat="45.28591" lon="0.56916">
        <ele>123</ele>
        <time>2016-06-21T12:36:01Z</time>
      </trkpt>
      <trkpt lat="45.28599" lon="0.56918">
        <ele>121</ele>
        <time>2016-06-21T12:36:06Z</time>
      </trkpt>
      <trkpt lat="45.28605" lon="0.56922">
        <ele>121</ele>
        <time>2016-06-21T12:36:10Z</time>
      </trkpt>
      <trkpt lat="45.28609" lon="0.56924">
        <ele>119</ele>
        <time>2016-06-21T12:36:14Z</time>
      </trkpt>
      <trkpt lat="45.28613" lon="0.56926">
        <ele>120</ele>
        <time>2016-06-21T12:36:18Z</time>
      </trkpt>
      <trkpt lat="45.28619" lon="0.56929">
        <ele>118</ele>
        <time>2016-06-21T12:36:22Z</time>
      </trkpt>
      <trkpt lat="45.28624" lon="0.5693">
        <ele>115</ele>
        <time>2016-06-21T12:36:26Z</time>
      </trkpt>
      <trkpt lat="45.28629" lon="0.56932">
        <ele>116</ele>
        <time>2016-06-21T12:36:31Z</time>
      </trkpt>
      <trkpt lat="45.28634" lon="0.56938">
        <ele>116</ele>
        <time>2016-06-21T12:36:36Z</time>
      </trkpt>
      <trkpt lat="45.28637" lon="0.56942">
        <ele>126</ele>
        <time>2016-06-21T12:36:43Z</time>
      </trkpt>
      <trkpt lat="45.28644" lon="0.56945">
        <ele>119</ele>
        <time>2016-06-21T12:36:47Z</time>
      </trkpt>
      <trkpt lat="45.28651" lon="0.56949">
        <ele>118</ele>
        <time>2016-06-21T12:36:52Z</time>
      </trkpt>
      <trkpt lat="45.28659" lon="0.56949">
        <ele>113</ele>
        <time>2016-06-21T12:36:56Z</time>
      </trkpt>
      <trkpt lat="45.28664" lon="0.56953">
        <ele>112</ele>
        <time>2016-06-21T12:37:01Z</time>
      </trkpt>
      <trkpt lat="45.28669" lon="0.5695">
        <ele>111</ele>
        <time>2016-06-21T12:37:05Z</time>
      </trkpt>
      <trkpt lat="45.28675" lon="0.56942">
        <ele>109</ele>
        <time>2016-06-21T12:37:09Z</time>
      </trkpt>
      <trkpt lat="45.28678" lon="0.56934">
        <ele>108</ele>
        <time>2016-06-21T12:37:14Z</time>
      </trkpt>
      <trkpt lat="45.28679" lon="0.56928">
        <ele>108</ele>
        <time>2016-06-21T12:37:18Z</time>
      </trkpt>
      <trkpt lat="45.28678" lon="0.56922">
        <ele>108</ele>
        <time>2016-06-21T12:37:22Z</time>
      </trkpt>
      <trkpt lat="45.28678" lon="0.56915">
        <ele>107</ele>
        <time>2016-06-21T12:37:26Z</time>
      </trkpt>
      <trkpt lat="45.28677" lon="0.56906">
        <ele>104</ele>
        <time>2016-06-21T12:37:30Z</time>
      </trkpt>
      <trkpt lat="45.28678" lon="0.56898">
        <ele>105</ele>
        <time>2016-06-21T12:37:35Z</time>
      </trkpt>
      <trkpt lat="45.28676" lon="0.56891">
        <ele>105</ele>
        <time>2016-06-21T12:37:40Z</time>
      </trkpt>
      <trkpt lat="45.28677" lon="0.56886">
        <ele>111</ele>
        <time>2016-06-21T12:37:47Z</time>
      </trkpt>
      <trkpt lat="45.28677" lon="0.5688">
        <ele>112</ele>
        <time>2016-06-21T12:37:52Z</time>
      </trkpt>
      <trkpt lat="45.28676" lon="0.56872">
        <ele>111</ele>
        <time>2016-06-21T12:37:57Z</time>
      </trkpt>
      <trkpt lat="45.28676" lon="0.56866">
        <ele>111</ele>
        <time>2016-06-21T12:38:01Z</time>
      </trkpt>
      <trkpt lat="45.28678" lon="0.56861">
        <ele>115</ele>
        <time>2016-06-21T12:38:06Z</time>
      </trkpt>
      <trkpt lat="45.28677" lon="0.56855">
        <ele>114</ele>
        <time>2016-06-21T12:38:11Z</time>
      </trkpt>
      <trkpt lat="45.28677" lon="0.56851">
        <ele>114</ele>
        <time>2016-06-21T12:38:16Z</time>
      </trkpt>
      <trkpt lat="45.28675" lon="0.5684">
        <ele>113</ele>
        <time>2016-06-21T12:38:21Z</time>
      </trkpt>
      <trkpt lat="45.28677" lon="0.56834">
        <ele>120</ele>
        <time>2016-06-21T12:38:34Z</time>
      </trkpt>
      <trkpt lat="45.28679" lon="0.56827">
        <ele>122</ele>
        <time>2016-06-21T12:38:38Z</time>
      </trkpt>
      <trkpt lat="45.28677" lon="0.56819">
        <ele>121</ele>
        <time>2016-06-21T12:38:43Z</time>
      </trkpt>
      <trkpt lat="45.28678" lon="0.5681">
        <ele>122</ele>
        <time>2016-06-21T12:38:48Z</time>
      </trkpt>
      <trkpt lat="45.28676" lon="0.56804">
        <ele>121</ele>
        <time>2016-06-21T12:38:53Z</time>
      </trkpt>
      <trkpt lat="45.28676" lon="0.56799">
        <ele>121</ele>
        <time>2016-06-21T12:38:57Z</time>
      </trkpt>
      <trkpt lat="45.28675" lon="0.56788">
        <ele>118</ele>
        <time>2016-06-21T12:39:01Z</time>
      </trkpt>
      <trkpt lat="45.28675" lon="0.56778">
        <ele>119</ele>
        <time>2016-06-21T12:39:06Z</time>
      </trkpt>
      <trkpt lat="45.28677" lon="0.56773">
        <ele>119</ele>
        <time>2016-06-21T12:39:10Z</time>
      </trkpt>
      <trkpt lat="45.28678" lon="0.56767">
        <ele>122</ele>
        <time>2016-06-21T12:39:15Z</time>
      </trkpt>
      <trkpt lat="45.28681" lon="0.56756">
        <ele>123</ele>
        <time>2016-06-21T12:39:20Z</time>
      </trkpt>
      <trkpt lat="45.28683" lon="0.56747">
        <ele>120</ele>
        <time>2016-06-21T12:39:24Z</time>
      </trkpt>
      <trkpt lat="45.28686" lon="0.56738">
        <ele>121</ele>
        <time>2016-06-21T12:39:29Z</time>
      </trkpt>
      <trkpt lat="45.28691" lon="0.56729">
        <ele>119</ele>
        <time>2016-06-21T12:39:33Z</time>
      </trkpt>
      <trkpt lat="45.28694" lon="0.56719">
        <ele>119</ele>
        <time>2016-06-21T12:39:38Z</time>
      </trkpt>
      <trkpt lat="45.28695" lon="0.5671">
        <ele>117</ele>
        <time>2016-06-21T12:39:43Z</time>
      </trkpt>
      <trkpt lat="45.28699" lon="0.56704">
        <ele>118</ele>
        <time>2016-06-21T12:39:48Z</time>
      </trkpt>
      <trkpt lat="45.28699" lon="0.56695">
        <ele>117</ele>
        <time>2016-06-21T12:39:52Z</time>
      </trkpt>
      <trkpt lat="45.28701" lon="0.56692">
        <ele>117</ele>
        <time>2016-06-21T12:39:57Z</time>
      </trkpt>
      <trkpt lat="45.28704" lon="0.56686">
        <ele>117</ele>
        <time>2016-06-21T12:40:01Z</time>
      </trkpt>
      <trkpt lat="45.28705" lon="0.56679">
        <ele>117</ele>
        <time>2016-06-21T12:40:05Z</time>
      </trkpt>
      <trkpt lat="45.28706" lon="0.56673">
        <ele>120</ele>
        <time>2016-06-21T12:40:10Z</time>
      </trkpt>
      <trkpt lat="45.28705" lon="0.56667">
        <ele>119</ele>
        <time>2016-06-21T12:40:14Z</time>
      </trkpt>
      <trkpt lat="45.28707" lon="0.56659">
        <ele>117</ele>
        <time>2016-06-21T12:40:18Z</time>
      </trkpt>
      <trkpt lat="45.28712" lon="0.56655">
        <ele>120</ele>
        <time>2016-06-21T12:40:23Z</time>
      </trkpt>
      <trkpt lat="45.28713" lon="0.5665">
        <ele>120</ele>
        <time>2016-06-21T12:40:27Z</time>
      </trkpt>
      <trkpt lat="45.28716" lon="0.56637">
        <ele>116</ele>
        <time>2016-06-21T12:40:32Z</time>
      </trkpt>
      <trkpt lat="45.28719" lon="0.5663">
        <ele>113</ele>
        <time>2016-06-21T12:40:36Z</time>
      </trkpt>
      <trkpt lat="45.28722" lon="0.56622">
        <ele>112</ele>
        <time>2016-06-21T12:40:41Z</time>
      </trkpt>
      <trkpt lat="45.28725" lon="0.56617">
        <ele>112</ele>
        <time>2016-06-21T12:40:46Z</time>
      </trkpt>
      <trkpt lat="45.28728" lon="0.56613">
        <ele>111</ele>
        <time>2016-06-21T12:40:56Z</time>
      </trkpt>
      <trkpt lat="45.28733" lon="0.56608">
        <ele>113</ele>
        <time>2016-06-21T12:41:00Z</time>
      </trkpt>
      <trkpt lat="45.28738" lon="0.56604">
        <ele>114</ele>
        <time>2016-06-21T12:41:04Z</time>
      </trkpt>
      <trkpt lat="45.28742" lon="0.56599">
        <ele>114</ele>
        <time>2016-06-21T12:41:08Z</time>
      </trkpt>
      <trkpt lat="45.28743" lon="0.56593">
        <ele>115</ele>
        <time>2016-06-21T12:41:12Z</time>
      </trkpt>
      <trkpt lat="45.28746" lon="0.56585">
        <ele>113</ele>
        <time>2016-06-21T12:41:17Z</time>
      </trkpt>
      <trkpt lat="45.28748" lon="0.56576">
        <ele>112</ele>
        <time>2016-06-21T12:41:22Z</time>
      </trkpt>
      <trkpt lat="45.2875" lon="0.56571">
        <ele>111</ele>
        <time>2016-06-21T12:41:26Z</time>
      </trkpt>
      <trkpt lat="45.28752" lon="0.56562">
        <ele>111</ele>
        <time>2016-06-21T12:41:31Z</time>
      </trkpt>
      <trkpt lat="45.28758" lon="0.56557">
        <ele>113</ele>
        <time>2016-06-21T12:41:36Z</time>
      </trkpt>
      <trkpt lat="45.28756" lon="0.56551">
        <ele>113</ele>
        <time>2016-06-21T12:41:40Z</time>
      </trkpt>
      <trkpt lat="45.28761" lon="0.56552">
        <ele>116</ele>
        <time>2016-06-21T12:41:56Z</time>
      </trkpt>
      <trkpt lat="45.28764" lon="0.56549">
        <ele>114</ele>
        <time>2016-06-21T12:43:20Z</time>
      </trkpt>
      <trkpt lat="45.28765" lon="0.56544">
        <ele>110</ele>
        <time>2016-06-21T12:43:27Z</time>
      </trkpt>
      <trkpt lat="45.28768" lon="0.56546">
        <ele>106</ele>
        <time>2016-06-21T12:43:33Z</time>
      </trkpt>
      <trkpt lat="45.28757" lon="0.56552">
        <ele>104</ele>
        <time>2016-06-21T12:43:37Z</time>
      </trkpt>
      <trkpt lat="45.28767" lon="0.56559">
        <ele>109</ele>
        <time>2016-06-21T12:43:42Z</time>
      </trkpt>
      <trkpt lat="45.28779" lon="0.56566">
        <ele>111</ele>
        <time>2016-06-21T12:43:46Z</time>
      </trkpt>
      <trkpt lat="45.28779" lon="0.56575">
        <ele>110</ele>
        <time>2016-06-21T12:43:50Z</time>
      </trkpt>
      <trkpt lat="45.28781" lon="0.56578">
        <ele>108</ele>
        <time>2016-06-21T12:43:55Z</time>
      </trkpt>
      <trkpt lat="45.28785" lon="0.56581">
        <ele>108</ele>
        <time>2016-06-21T12:43:59Z</time>
      </trkpt>
      <trkpt lat="45.28793" lon="0.56587">
        <ele>110</ele>
        <time>2016-06-21T12:44:04Z</time>
      </trkpt>
      <trkpt lat="45.28799" lon="0.56594">
        <ele>106</ele>
        <time>2016-06-21T12:44:08Z</time>
      </trkpt>
      <trkpt lat="45.28801" lon="0.566">
        <ele>107</ele>
        <time>2016-06-21T12:44:12Z</time>
      </trkpt>
      <trkpt lat="45.28804" lon="0.56606">
        <ele>108</ele>
        <time>2016-06-21T12:44:17Z</time>
      </trkpt>
      <trkpt lat="45.2881" lon="0.56607">
        <ele>103</ele>
        <time>2016-06-21T12:44:21Z</time>
      </trkpt>
      <trkpt lat="45.28813" lon="0.5661">
        <ele>108</ele>
        <time>2016-06-21T12:44:28Z</time>
      </trkpt>
      <trkpt lat="45.28822" lon="0.56616">
        <ele>103</ele>
        <time>2016-06-21T12:44:32Z</time>
      </trkpt>
      <trkpt lat="45.28827" lon="0.5662">
        <ele>103</ele>
        <time>2016-06-21T12:44:36Z</time>
      </trkpt>
      <trkpt lat="45.28835" lon="0.56622">
        <ele>99</ele>
        <time>2016-06-21T12:44:40Z</time>
      </trkpt>
      <trkpt lat="45.28838" lon="0.56625">
        <ele>100</ele>
        <time>2016-06-21T12:44:44Z</time>
      </trkpt>
      <trkpt lat="45.28843" lon="0.5663">
        <ele>104</ele>
        <time>2016-06-21T12:44:48Z</time>
      </trkpt>
      <trkpt lat="45.28846" lon="0.56635">
        <ele>105</ele>
        <time>2016-06-21T12:44:52Z</time>
      </trkpt>
      <trkpt lat="45.28851" lon="0.56639">
        <ele>104</ele>
        <time>2016-06-21T12:44:56Z</time>
      </trkpt>
      <trkpt lat="45.28855" lon="0.56642">
        <ele>104</ele>
        <time>2016-06-21T12:45:02Z</time>
      </trkpt>
      <trkpt lat="45.28863" lon="0.56644">
        <ele>100</ele>
        <time>2016-06-21T12:45:07Z</time>
      </trkpt>
      <trkpt lat="45.28867" lon="0.56646">
        <ele>98</ele>
        <time>2016-06-21T12:45:11Z</time>
      </trkpt>
      <trkpt lat="45.2887" lon="0.5665">
        <ele>99</ele>
        <time>2016-06-21T12:45:26Z</time>
      </trkpt>
      <trkpt lat="45.28884" lon="0.5666">
        <ele>96</ele>
        <time>2016-06-21T12:45:31Z</time>
      </trkpt>
      <trkpt lat="45.28895" lon="0.5667">
        <ele>95</ele>
        <time>2016-06-21T12:45:35Z</time>
      </trkpt>
      <trkpt lat="45.28898" lon="0.56674">
        <ele>98</ele>
        <time>2016-06-21T12:45:41Z</time>
      </trkpt>
      <trkpt lat="45.28906" lon="0.56681">
        <ele>97</ele>
        <time>2016-06-21T12:45:46Z</time>
      </trkpt>
      <trkpt lat="45.2891" lon="0.56687">
        <ele>96</ele>
        <time>2016-06-21T12:45:50Z</time>
      </trkpt>
      <trkpt lat="45.28913" lon="0.56696">
        <ele>95</ele>
        <time>2016-06-21T12:45:55Z</time>
      </trkpt>
      <trkpt lat="45.28912" lon="0.56703">
        <ele>97</ele>
        <time>2016-06-21T12:45:59Z</time>
      </trkpt>
      <trkpt lat="45.28912" lon="0.56712">
        <ele>95</ele>
        <time>2016-06-21T12:46:03Z</time>
      </trkpt>
      <trkpt lat="45.28911" lon="0.56719">
        <ele>96</ele>
        <time>2016-06-21T12:46:08Z</time>
      </trkpt>
      <trkpt lat="45.28912" lon="0.56725">
        <ele>97</ele>
        <time>2016-06-21T12:46:12Z</time>
      </trkpt>
      <trkpt lat="45.2891" lon="0.5673">
        <ele>97</ele>
        <time>2016-06-21T12:46:16Z</time>
      </trkpt>
      <trkpt lat="45.28908" lon="0.5674">
        <ele>96</ele>
        <time>2016-06-21T12:46:21Z</time>
      </trkpt>
      <trkpt lat="45.28906" lon="0.56753">
        <ele>97</ele>
        <time>2016-06-21T12:46:25Z</time>
      </trkpt>
      <trkpt lat="45.28904" lon="0.56756">
        <ele>98</ele>
        <time>2016-06-21T12:46:29Z</time>
      </trkpt>
      <trkpt lat="45.28904" lon="0.56767">
        <ele>95</ele>
        <time>2016-06-21T12:46:34Z</time>
      </trkpt>
      <trkpt lat="45.28901" lon="0.56774">
        <ele>97</ele>
        <time>2016-06-21T12:46:39Z</time>
      </trkpt>
      <trkpt lat="45.28899" lon="0.56779">
        <ele>98</ele>
        <time>2016-06-21T12:46:43Z</time>
      </trkpt>
      <trkpt lat="45.28896" lon="0.56782">
        <ele>96</ele>
        <time>2016-06-21T12:46:47Z</time>
      </trkpt>
      <trkpt lat="45.28895" lon="0.56793">
        <ele>95</ele>
        <time>2016-06-21T12:46:52Z</time>
      </trkpt>
      <trkpt lat="45.28894" lon="0.56805">
        <ele>91</ele>
        <time>2016-06-21T12:46:56Z</time>
      </trkpt>
      <trkpt lat="45.28893" lon="0.56812">
        <ele>91</ele>
        <time>2016-06-21T12:47:00Z</time>
      </trkpt>
      <trkpt lat="45.2889" lon="0.56821">
        <ele>92</ele>
        <time>2016-06-21T12:47:05Z</time>
      </trkpt>
      <trkpt lat="45.28888" lon="0.56831">
        <ele>90</ele>
        <time>2016-06-21T12:47:10Z</time>
      </trkpt>
      <trkpt lat="45.28887" lon="0.56838">
        <ele>90</ele>
        <time>2016-06-21T12:47:14Z</time>
      </trkpt>
      <trkpt lat="45.28885" lon="0.56844">
        <ele>92</ele>
        <time>2016-06-21T12:47:18Z</time>
      </trkpt>
      <trkpt lat="45.28884" lon="0.56854">
        <ele>90</ele>
        <time>2016-06-21T12:47:23Z</time>
      </trkpt>
      <trkpt lat="45.28881" lon="0.56859">
        <ele>91</ele>
        <time>2016-06-21T12:47:27Z</time>
      </trkpt>
      <trkpt lat="45.2888" lon="0.56869">
        <ele>91</ele>
        <time>2016-06-21T12:47:32Z</time>
      </trkpt>
      <trkpt lat="45.28879" lon="0.56879">
        <ele>91</ele>
        <time>2016-06-21T12:47:37Z</time>
      </trkpt>
      <trkpt lat="45.28879" lon="0.56885">
        <ele>91</ele>
        <time>2016-06-21T12:47:41Z</time>
      </trkpt>
      <trkpt lat="45.28878" lon="0.56895">
        <ele>91</ele>
        <time>2016-06-21T12:47:46Z</time>
      </trkpt>
      <trkpt lat="45.28878" lon="0.56903">
        <ele>89</ele>
        <time>2016-06-21T12:47:50Z</time>
      </trkpt>
      <trkpt lat="45.28878" lon="0.5691">
        <ele>90</ele>
        <time>2016-06-21T12:47:54Z</time>
      </trkpt>
      <trkpt lat="45.28877" lon="0.56918">
        <ele>91</ele>
        <time>2016-06-21T12:47:58Z</time>
      </trkpt>
      <trkpt lat="45.28877" lon="0.56924">
        <ele>92</ele>
        <time>2016-06-21T12:48:02Z</time>
      </trkpt>
      <trkpt lat="45.28878" lon="0.56931">
        <ele>92</ele>
        <time>2016-06-21T12:48:06Z</time>
      </trkpt>
      <trkpt lat="45.28881" lon="0.56934">
        <ele>93</ele>
        <time>2016-06-21T12:48:10Z</time>
      </trkpt>
      <trkpt lat="45.28883" lon="0.5694">
        <ele>94</ele>
        <time>2016-06-21T12:48:14Z</time>
      </trkpt>
      <trkpt lat="45.28888" lon="0.56948">
        <ele>93</ele>
        <time>2016-06-21T12:48:19Z</time>
      </trkpt>
      <trkpt lat="45.28888" lon="0.56953">
        <ele>100</ele>
        <time>2016-06-21T12:48:29Z</time>
      </trkpt>
      <trkpt lat="45.28892" lon="0.56957">
        <ele>101</ele>
        <time>2016-06-21T12:48:33Z</time>
      </trkpt>
      <trkpt lat="45.289" lon="0.56965">
        <ele>97</ele>
        <time>2016-06-21T12:48:38Z</time>
      </trkpt>
      <trkpt lat="45.28904" lon="0.56971">
        <ele>95</ele>
        <time>2016-06-21T12:48:43Z</time>
      </trkpt>
      <trkpt lat="45.2891" lon="0.56976">
        <ele>93</ele>
        <time>2016-06-21T12:48:47Z</time>
      </trkpt>
      <trkpt lat="45.28914" lon="0.56981">
        <ele>93</ele>
        <time>2016-06-21T12:48:51Z</time>
      </trkpt>
      <trkpt lat="45.28918" lon="0.56983">
        <ele>94</ele>
        <time>2016-06-21T12:48:55Z</time>
      </trkpt>
      <trkpt lat="45.28924" lon="0.56984">
        <ele>95</ele>
        <time>2016-06-21T12:49:00Z</time>
      </trkpt>
      <trkpt lat="45.28928" lon="0.56988">
        <ele>99</ele>
        <time>2016-06-21T12:49:06Z</time>
      </trkpt>
      <trkpt lat="45.28931" lon="0.56992">
        <ele>106</ele>
        <time>2016-06-21T12:49:14Z</time>
      </trkpt>
      <trkpt lat="45.28935" lon="0.56996">
        <ele>108</ele>
        <time>2016-06-21T12:49:20Z</time>
      </trkpt>
      <trkpt lat="45.2894" lon="0.56999">
        <ele>108</ele>
        <time>2016-06-21T12:49:25Z</time>
      </trkpt>
      <trkpt lat="45.28945" lon="0.57004">
        <ele>109</ele>
        <time>2016-06-21T12:49:29Z</time>
      </trkpt>
      <trkpt lat="45.28949" lon="0.57008">
        <ele>110</ele>
        <time>2016-06-21T12:49:33Z</time>
      </trkpt>
      <trkpt lat="45.28953" lon="0.57015">
        <ele>106</ele>
        <time>2016-06-21T12:49:38Z</time>
      </trkpt>
      <trkpt lat="45.28958" lon="0.57018">
        <ele>105</ele>
        <time>2016-06-21T12:49:42Z</time>
      </trkpt>
      <trkpt lat="45.28962" lon="0.57022">
        <ele>103</ele>
        <time>2016-06-21T12:49:47Z</time>
      </trkpt>
      <trkpt lat="45.28965" lon="0.57025">
        <ele>105</ele>
        <time>2016-06-21T12:49:51Z</time>
      </trkpt>
      <trkpt lat="45.2897" lon="0.57028">
        <ele>107</ele>
        <time>2016-06-21T12:49:56Z</time>
      </trkpt>
      <trkpt lat="45.28974" lon="0.57032">
        <ele>107</ele>
        <time>2016-06-21T12:50:00Z</time>
      </trkpt>
      <trkpt lat="45.28981" lon="0.5704">
        <ele>100</ele>
        <time>2016-06-21T12:50:05Z</time>
      </trkpt>
      <trkpt lat="45.28984" lon="0.57044">
        <ele>98</ele>
        <time>2016-06-21T12:50:11Z</time>
      </trkpt>
      <trkpt lat="45.28988" lon="0.57047">
        <ele>98</ele>
        <time>2016-06-21T12:50:16Z</time>
      </trkpt>
      <trkpt lat="45.28991" lon="0.57052">
        <ele>100</ele>
        <time>2016-06-21T12:50:24Z</time>
      </trkpt>
      <trkpt lat="45.28996" lon="0.57053">
        <ele>105</ele>
        <time>2016-06-21T12:50:29Z</time>
      </trkpt>
      <trkpt lat="45.28999" lon="0.57056">
        <ele>112</ele>
        <time>2016-06-21T12:50:36Z</time>
      </trkpt>
      <trkpt lat="45.29002" lon="0.57059">
        <ele>115</ele>
        <time>2016-06-21T12:50:41Z</time>
      </trkpt>
      <trkpt lat="45.29008" lon="0.57063">
        <ele>114</ele>
        <time>2016-06-21T12:50:46Z</time>
      </trkpt>
      <trkpt lat="45.29013" lon="0.57071">
        <ele>115</ele>
        <time>2016-06-21T12:50:50Z</time>
      </trkpt>
      <trkpt lat="45.29017" lon="0.5707">
        <ele>116</ele>
        <time>2016-06-21T12:50:55Z</time>
      </trkpt>
      <trkpt lat="45.29021" lon="0.57069">
        <ele>124</ele>
        <time>2016-06-21T12:51:02Z</time>
      </trkpt>
      <trkpt lat="45.29026" lon="0.57071">
        <ele>127</ele>
        <time>2016-06-21T12:51:07Z</time>
      </trkpt>
      <trkpt lat="45.29032" lon="0.57074">
        <ele>129</ele>
        <time>2016-06-21T12:51:12Z</time>
      </trkpt>
      <trkpt lat="45.29034" lon="0.57076">
        <ele>133</ele>
        <time>2016-06-21T12:51:17Z</time>
      </trkpt>
      <trkpt lat="45.29044" lon="0.57085">
        <ele>123</ele>
        <time>2016-06-21T12:51:21Z</time>
      </trkpt>
      <trkpt lat="45.29048" lon="0.57089">
        <ele>122</ele>
        <time>2016-06-21T12:51:25Z</time>
      </trkpt>
      <trkpt lat="45.29053" lon="0.5709">
        <ele>125</ele>
        <time>2016-06-21T12:51:29Z</time>
      </trkpt>
      <trkpt lat="45.29057" lon="0.57093">
        <ele>125</ele>
        <time>2016-06-21T12:51:34Z</time>
      </trkpt>
      <trkpt lat="45.2906" lon="0.57097">
        <ele>129</ele>
        <time>2016-06-21T12:51:40Z</time>
      </trkpt>
      <trkpt lat="45.29066" lon="0.57103">
        <ele>131</ele>
        <time>2016-06-21T12:51:45Z</time>
      </trkpt>
      <trkpt lat="45.29071" lon="0.57107">
        <ele>130</ele>
        <time>2016-06-21T12:51:49Z</time>
      </trkpt>
      <trkpt lat="45.29077" lon="0.57111">
        <ele>133</ele>
        <time>2016-06-21T12:51:54Z</time>
      </trkpt>
      <trkpt lat="45.29079" lon="0.57113">
        <ele>134</ele>
        <time>2016-06-21T12:51:58Z</time>
      </trkpt>
      <trkpt lat="45.29087" lon="0.57118">
        <ele>132</ele>
        <time>2016-06-21T12:52:03Z</time>
      </trkpt>
      <trkpt lat="45.29092" lon="0.5712">
        <ele>133</ele>
        <time>2016-06-21T12:52:07Z</time>
      </trkpt>
      <trkpt lat="45.29097" lon="0.57121">
        <ele>134</ele>
        <time>2016-06-21T12:52:12Z</time>
      </trkpt>
      <trkpt lat="45.29101" lon="0.5712">
        <ele>137</ele>
        <time>2016-06-21T12:52:16Z</time>
      </trkpt>
      <trkpt lat="45.29107" lon="0.57119">
        <ele>137</ele>
        <time>2016-06-21T12:52:20Z</time>
      </trkpt>
      <trkpt lat="45.29112" lon="0.57121">
        <ele>135</ele>
        <time>2016-06-21T12:52:24Z</time>
      </trkpt>
      <trkpt lat="45.29116" lon="0.57123">
        <ele>135</ele>
        <time>2016-06-21T12:52:28Z</time>
      </trkpt>
      <trkpt lat="45.29121" lon="0.57122">
        <ele>133</ele>
        <time>2016-06-21T12:53:13Z</time>
      </trkpt>
      <trkpt lat="45.29124" lon="0.57121">
        <ele>133</ele>
        <time>2016-06-21T12:54:55Z</time>
      </trkpt>
      <trkpt lat="45.29127" lon="0.57122">
        <ele>132</ele>
        <time>2016-06-21T12:55:07Z</time>
      </trkpt>
      <trkpt lat="45.29129" lon="0.57128">
        <ele>132</ele>
        <time>2016-06-21T12:55:17Z</time>
      </trkpt>
      <trkpt lat="45.29129" lon="0.57134">
        <ele>132</ele>
        <time>2016-06-21T12:55:23Z</time>
      </trkpt>
      <trkpt lat="45.29131" lon="0.57139">
        <ele>132</ele>
        <time>2016-06-21T12:55:29Z</time>
      </trkpt>
      <trkpt lat="45.29133" lon="0.57144">
        <ele>132</ele>
        <time>2016-06-21T12:55:34Z</time>
      </trkpt>
      <trkpt lat="45.29135" lon="0.5715">
        <ele>133</ele>
        <time>2016-06-21T12:55:40Z</time>
      </trkpt>
      <trkpt lat="45.29134" lon="0.57156">
        <ele>137</ele>
        <time>2016-06-21T12:55:48Z</time>
      </trkpt>
      <trkpt lat="45.29137" lon="0.57162">
        <ele>136</ele>
        <time>2016-06-21T12:55:53Z</time>
      </trkpt>
      <trkpt lat="45.29138" lon="0.57168">
        <ele>137</ele>
        <time>2016-06-21T12:55:57Z</time>
      </trkpt>
      <trkpt lat="45.29141" lon="0.57173">
        <ele>137</ele>
        <time>2016-06-21T12:56:03Z</time>
      </trkpt>
      <trkpt lat="45.29144" lon="0.57178">
        <ele>139</ele>
        <time>2016-06-21T12:56:08Z</time>
      </trkpt>
      <trkpt lat="45.29148" lon="0.5718">
        <ele>138</ele>
        <time>2016-06-21T12:56:14Z</time>
      </trkpt>
      <trkpt lat="45.29151" lon="0.57186">
        <ele>138</ele>
        <time>2016-06-21T12:56:19Z</time>
      </trkpt>
      <trkpt lat="45.29155" lon="0.57186">
        <ele>139</ele>
        <time>2016-06-21T12:56:24Z</time>
      </trkpt>
      <trkpt lat="45.29158" lon="0.5719">
        <ele>136</ele>
        <time>2016-06-21T12:56:32Z</time>
      </trkpt>
      <trkpt lat="45.2916" lon="0.57194">
        <ele>135</ele>
        <time>2016-06-21T12:56:36Z</time>
      </trkpt>
      <trkpt lat="45.29164" lon="0.57197">
        <ele>134</ele>
        <time>2016-06-21T12:56:41Z</time>
      </trkpt>
      <trkpt lat="45.29168" lon="0.57202">
        <ele>134</ele>
        <time>2016-06-21T12:56:46Z</time>
      </trkpt>
      <trkpt lat="45.2917" lon="0.57205">
        <ele>135</ele>
        <time>2016-06-21T12:56:51Z</time>
      </trkpt>
      <trkpt lat="45.29175" lon="0.57209">
        <ele>135</ele>
        <time>2016-06-21T12:56:56Z</time>
      </trkpt>
      <trkpt lat="45.29178" lon="0.57213">
        <ele>134</ele>
        <time>2016-06-21T12:57:01Z</time>
      </trkpt>
      <trkpt lat="45.29182" lon="0.57219">
        <ele>136</ele>
        <time>2016-06-21T12:57:06Z</time>
      </trkpt>
      <trkpt lat="45.29185" lon="0.57224">
        <ele>137</ele>
        <time>2016-06-21T12:57:10Z</time>
      </trkpt>
      <trkpt lat="45.29189" lon="0.57228">
        <ele>135</ele>
        <time>2016-06-21T12:57:15Z</time>
      </trkpt>
      <trkpt lat="45.29192" lon="0.57231">
        <ele>139</ele>
        <time>2016-06-21T12:57:20Z</time>
      </trkpt>
      <trkpt lat="45.29196" lon="0.57235">
        <ele>139</ele>
        <time>2016-06-21T12:57:25Z</time>
      </trkpt>
      <trkpt lat="45.29199" lon="0.57238">
        <ele>138</ele>
        <time>2016-06-21T12:57:29Z</time>
      </trkpt>
      <trkpt lat="45.29203" lon="0.57245">
        <ele>136</ele>
        <time>2016-06-21T12:57:34Z</time>
      </trkpt>
      <trkpt lat="45.29206" lon="0.57248">
        <ele>138</ele>
        <time>2016-06-21T12:57:38Z</time>
      </trkpt>
      <trkpt lat="45.29211" lon="0.57253">
        <ele>139</ele>
        <time>2016-06-21T12:57:43Z</time>
      </trkpt>
      <trkpt lat="45.29214" lon="0.57257">
        <ele>140</ele>
        <time>2016-06-21T12:57:47Z</time>
      </trkpt>
      <trkpt lat="45.29219" lon="0.57258">
        <ele>144</ele>
        <time>2016-06-21T12:57:52Z</time>
      </trkpt>
      <trkpt lat="45.29224" lon="0.57264">
        <ele>146</ele>
        <time>2016-06-21T12:57:57Z</time>
      </trkpt>
      <trkpt lat="45.29228" lon="0.57269">
        <ele>144</ele>
        <time>2016-06-21T12:58:01Z</time>
      </trkpt>
      <trkpt lat="45.29232" lon="0.57274">
        <ele>143</ele>
        <time>2016-06-21T12:58:05Z</time>
      </trkpt>
      <trkpt lat="45.29237" lon="0.57276">
        <ele>143</ele>
        <time>2016-06-21T12:58:09Z</time>
      </trkpt>
      <trkpt lat="45.2924" lon="0.57282">
        <ele>142</ele>
        <time>2016-06-21T12:58:14Z</time>
      </trkpt>
      <trkpt lat="45.29244" lon="0.57288">
        <ele>141</ele>
        <time>2016-06-21T12:58:19Z</time>
      </trkpt>
      <trkpt lat="45.29247" lon="0.57292">
        <ele>140</ele>
        <time>2016-06-21T12:58:23Z</time>
      </trkpt>
      <trkpt lat="45.29251" lon="0.57299">
        <ele>143</ele>
        <time>2016-06-21T12:58:28Z</time>
      </trkpt>
      <trkpt lat="45.29255" lon="0.57302">
        <ele>142</ele>
        <time>2016-06-21T12:58:33Z</time>
      </trkpt>
      <trkpt lat="45.29259" lon="0.57303">
        <ele>141</ele>
        <time>2016-06-21T12:58:37Z</time>
      </trkpt>
      <trkpt lat="45.29264" lon="0.57306">
        <ele>142</ele>
        <time>2016-06-21T12:58:42Z</time>
      </trkpt>
      <trkpt lat="45.29267" lon="0.57311">
        <ele>142</ele>
        <time>2016-06-21T12:58:46Z</time>
      </trkpt>
      <trkpt lat="45.2927" lon="0.57316">
        <ele>142</ele>
        <time>2016-06-21T12:58:50Z</time>
      </trkpt>
      <trkpt lat="45.29273" lon="0.5732">
        <ele>143</ele>
        <time>2016-06-21T12:58:54Z</time>
      </trkpt>
      <trkpt lat="45.29277" lon="0.57325">
        <ele>142</ele>
        <time>2016-06-21T12:58:58Z</time>
      </trkpt>
      <trkpt lat="45.2928" lon="0.57329">
        <ele>141</ele>
        <time>2016-06-21T12:59:02Z</time>
      </trkpt>
      <trkpt lat="45.29284" lon="0.57334">
        <ele>141</ele>
        <time>2016-06-21T12:59:07Z</time>
      </trkpt>
      <trkpt lat="45.29292" lon="0.57334">
        <ele>138</ele>
        <time>2016-06-21T12:59:12Z</time>
      </trkpt>
      <trkpt lat="45.29296" lon="0.57338">
        <ele>138</ele>
        <time>2016-06-21T12:59:17Z</time>
      </trkpt>
      <trkpt lat="45.29301" lon="0.57343">
        <ele>138</ele>
        <time>2016-06-21T12:59:22Z</time>
      </trkpt>
      <trkpt lat="45.29306" lon="0.57345">
        <ele>138</ele>
        <time>2016-06-21T12:59:26Z</time>
      </trkpt>
      <trkpt lat="45.29309" lon="0.57351">
        <ele>139</ele>
        <time>2016-06-21T12:59:31Z</time>
      </trkpt>
      <trkpt lat="45.29311" lon="0.57356">
        <ele>141</ele>
        <time>2016-06-21T12:59:35Z</time>
      </trkpt>
      <trkpt lat="45.29316" lon="0.57359">
        <ele>140</ele>
        <time>2016-06-21T12:59:39Z</time>
      </trkpt>
      <trkpt lat="45.29318" lon="0.57364">
        <ele>142</ele>
        <time>2016-06-21T12:59:43Z</time>
      </trkpt>
      <trkpt lat="45.29321" lon="0.57368">
        <ele>142</ele>
        <time>2016-06-21T12:59:47Z</time>
      </trkpt>
      <trkpt lat="45.29324" lon="0.57372">
        <ele>141</ele>
        <time>2016-06-21T12:59:51Z</time>
      </trkpt>
      <trkpt lat="45.29326" lon="0.57379">
        <ele>144</ele>
        <time>2016-06-21T12:59:56Z</time>
      </trkpt>
      <trkpt lat="45.2933" lon="0.57381">
        <ele>144</ele>
        <time>2016-06-21T13:00:00Z</time>
      </trkpt>
      <trkpt lat="45.29334" lon="0.57387">
        <ele>142</ele>
        <time>2016-06-21T13:00:05Z</time>
      </trkpt>
      <trkpt lat="45.29337" lon="0.57392">
        <ele>144</ele>
        <time>2016-06-21T13:00:09Z</time>
      </trkpt>
      <trkpt lat="45.29342" lon="0.57397">
        <ele>145</ele>
        <time>2016-06-21T13:00:14Z</time>
      </trkpt>
      <trkpt lat="45.29348" lon="0.57399">
        <ele>144</ele>
        <time>2016-06-21T13:00:19Z</time>
      </trkpt>
      <trkpt lat="45.29351" lon="0.57404">
        <ele>145</ele>
        <time>2016-06-21T13:00:23Z</time>
      </trkpt>
      <trkpt lat="45.29357" lon="0.57407">
        <ele>144</ele>
        <time>2016-06-21T13:00:28Z</time>
      </trkpt>
      <trkpt lat="45.29359" lon="0.57414">
        <ele>145</ele>
        <time>2016-06-21T13:00:32Z</time>
      </trkpt>
      <trkpt lat="45.29361" lon="0.57422">
        <ele>147</ele>
        <time>2016-06-21T13:00:37Z</time>
      </trkpt>
      <trkpt lat="45.29365" lon="0.57425">
        <ele>146</ele>
        <time>2016-06-21T13:00:41Z</time>
      </trkpt>
      <trkpt lat="45.2937" lon="0.57427">
        <ele>145</ele>
        <time>2016-06-21T13:00:45Z</time>
      </trkpt>
      <trkpt lat="45.29372" lon="0.57434">
        <ele>146</ele>
        <time>2016-06-21T13:00:49Z</time>
      </trkpt>
      <trkpt lat="45.29378" lon="0.57436">
        <ele>145</ele>
        <time>2016-06-21T13:00:54Z</time>
      </trkpt>
      <trkpt lat="45.29381" lon="0.57442">
        <ele>147</ele>
        <time>2016-06-21T13:00:59Z</time>
      </trkpt>
      <trkpt lat="45.29386" lon="0.57444">
        <ele>144</ele>
        <time>2016-06-21T13:01:03Z</time>
      </trkpt>
      <trkpt lat="45.29388" lon="0.57452">
        <ele>146</ele>
        <time>2016-06-21T13:01:07Z</time>
      </trkpt>
      <trkpt lat="45.29393" lon="0.57453">
        <ele>146</ele>
        <time>2016-06-21T13:01:11Z</time>
      </trkpt>
      <trkpt lat="45.29398" lon="0.57458">
        <ele>147</ele>
        <time>2016-06-21T13:01:16Z</time>
      </trkpt>
      <trkpt lat="45.29401" lon="0.57462">
        <ele>149</ele>
        <time>2016-06-21T13:01:20Z</time>
      </trkpt>
      <trkpt lat="45.29406" lon="0.57468">
        <ele>148</ele>
        <time>2016-06-21T13:01:25Z</time>
      </trkpt>
      <trkpt lat="45.2941" lon="0.57471">
        <ele>147</ele>
        <time>2016-06-21T13:01:29Z</time>
      </trkpt>
      <trkpt lat="45.29413" lon="0.57475">
        <ele>147</ele>
        <time>2016-06-21T13:01:33Z</time>
      </trkpt>
      <trkpt lat="45.29418" lon="0.57482">
        <ele>149</ele>
        <time>2016-06-21T13:01:38Z</time>
      </trkpt>
      <trkpt lat="45.29422" lon="0.57488">
        <ele>151</ele>
        <time>2016-06-21T13:01:42Z</time>
      </trkpt>
      <trkpt lat="45.29427" lon="0.57492">
        <ele>150</ele>
        <time>2016-06-21T13:01:47Z</time>
      </trkpt>
      <trkpt lat="45.29429" lon="0.57498">
        <ele>149</ele>
        <time>2016-06-21T13:01:51Z</time>
      </trkpt>
      <trkpt lat="45.29434" lon="0.57501">
        <ele>147</ele>
        <time>2016-06-21T13:01:56Z</time>
      </trkpt>
      <trkpt lat="45.29439" lon="0.57504">
        <ele>148</ele>
        <time>2016-06-21T13:02:00Z</time>
      </trkpt>
      <trkpt lat="45.29443" lon="0.57508">
        <ele>147</ele>
        <time>2016-06-21T13:02:05Z</time>
      </trkpt>
      <trkpt lat="45.29447" lon="0.57513">
        <ele>147</ele>
        <time>2016-06-21T13:02:09Z</time>
      </trkpt>
      <trkpt lat="45.29451" lon="0.57517">
        <ele>149</ele>
        <time>2016-06-21T13:02:14Z</time>
      </trkpt>
      <trkpt lat="45.29454" lon="0.57522">
        <ele>151</ele>
        <time>2016-06-21T13:02:18Z</time>
      </trkpt>
      <trkpt lat="45.29458" lon="0.5753">
        <ele>152</ele>
        <time>2016-06-21T13:02:23Z</time>
      </trkpt>
      <trkpt lat="45.29462" lon="0.57532">
        <ele>152</ele>
        <time>2016-06-21T13:02:27Z</time>
      </trkpt>
      <trkpt lat="45.2947" lon="0.57532">
        <ele>151</ele>
        <time>2016-06-21T13:02:32Z</time>
      </trkpt>
      <trkpt lat="45.29473" lon="0.57538">
        <ele>150</ele>
        <time>2016-06-21T13:02:36Z</time>
      </trkpt>
      <trkpt lat="45.29479" lon="0.57543">
        <ele>151</ele>
        <time>2016-06-21T13:02:41Z</time>
      </trkpt>
      <trkpt lat="45.29481" lon="0.57549">
        <ele>153</ele>
        <time>2016-06-21T13:02:45Z</time>
      </trkpt>
      <trkpt lat="45.29486" lon="0.57552">
        <ele>150</ele>
        <time>2016-06-21T13:02:50Z</time>
      </trkpt>
      <trkpt lat="45.2949" lon="0.57556">
        <ele>152</ele>
        <time>2016-06-21T13:02:54Z</time>
      </trkpt>
      <trkpt lat="45.29494" lon="0.57561">
        <ele>152</ele>
        <time>2016-06-21T13:02:58Z</time>
      </trkpt>
      <trkpt lat="45.29498" lon="0.57565">
        <ele>154</ele>
        <time>2016-06-21T13:03:02Z</time>
      </trkpt>
      <trkpt lat="45.29501" lon="0.57569">
        <ele>154</ele>
        <time>2016-06-21T13:03:06Z</time>
      </trkpt>
      <trkpt lat="45.29506" lon="0.57572">
        <ele>152</ele>
        <time>2016-06-21T13:03:10Z</time>
      </trkpt>
      <trkpt lat="45.29512" lon="0.57575">
        <ele>151</ele>
        <time>2016-06-21T13:03:15Z</time>
      </trkpt>
      <trkpt lat="45.29517" lon="0.57577">
        <ele>149</ele>
        <time>2016-06-21T13:03:20Z</time>
      </trkpt>
      <trkpt lat="45.2952" lon="0.57582">
        <ele>149</ele>
        <time>2016-06-21T13:03:24Z</time>
      </trkpt>
      <trkpt lat="45.29524" lon="0.57585">
        <ele>149</ele>
        <time>2016-06-21T13:03:29Z</time>
      </trkpt>
      <trkpt lat="45.29527" lon="0.57592">
        <ele>150</ele>
        <time>2016-06-21T13:03:34Z</time>
      </trkpt>
      <trkpt lat="45.2953" lon="0.57599">
        <ele>152</ele>
        <time>2016-06-21T13:03:38Z</time>
      </trkpt>
      <trkpt lat="45.29532" lon="0.57603">
        <ele>153</ele>
        <time>2016-06-21T13:03:42Z</time>
      </trkpt>
      <trkpt lat="45.29538" lon="0.57604">
        <ele>153</ele>
        <time>2016-06-21T13:03:47Z</time>
      </trkpt>
      <trkpt lat="45.29542" lon="0.57609">
        <ele>156</ele>
        <time>2016-06-21T13:03:51Z</time>
      </trkpt>
      <trkpt lat="45.29546" lon="0.57609">
        <ele>160</ele>
        <time>2016-06-21T13:03:55Z</time>
      </trkpt>
      <trkpt lat="45.29548" lon="0.57614">
        <ele>160</ele>
        <time>2016-06-21T13:03:59Z</time>
      </trkpt>
      <trkpt lat="45.29553" lon="0.57616">
        <ele>156</ele>
        <time>2016-06-21T13:04:04Z</time>
      </trkpt>
      <trkpt lat="45.29557" lon="0.57619">
        <ele>156</ele>
        <time>2016-06-21T13:04:08Z</time>
      </trkpt>
      <trkpt lat="45.2956" lon="0.57623">
        <ele>157</ele>
        <time>2016-06-21T13:04:12Z</time>
      </trkpt>
      <trkpt lat="45.29564" lon="0.57629">
        <ele>158</ele>
        <time>2016-06-21T13:04:17Z</time>
      </trkpt>
      <trkpt lat="45.29569" lon="0.57631">
        <ele>158</ele>
        <time>2016-06-21T13:04:21Z</time>
      </trkpt>
      <trkpt lat="45.29572" lon="0.57635">
        <ele>158</ele>
        <time>2016-06-21T13:04:25Z</time>
      </trkpt>
      <trkpt lat="45.29575" lon="0.5764">
        <ele>158</ele>
        <time>2016-06-21T13:04:30Z</time>
      </trkpt>
      <trkpt lat="45.29576" lon="0.57646">
        <ele>159</ele>
        <time>2016-06-21T13:04:34Z</time>
      </trkpt>
      <trkpt lat="45.2958" lon="0.57651">
        <ele>157</ele>
        <time>2016-06-21T13:04:38Z</time>
      </trkpt>
      <trkpt lat="45.29583" lon="0.57654">
        <ele>157</ele>
        <time>2016-06-21T13:04:42Z</time>
      </trkpt>
      <trkpt lat="45.29587" lon="0.57656">
        <ele>156</ele>
        <time>2016-06-21T13:04:46Z</time>
      </trkpt>
      <trkpt lat="45.29589" lon="0.57663">
        <ele>157</ele>
        <time>2016-06-21T13:04:50Z</time>
      </trkpt>
      <trkpt lat="45.29594" lon="0.57666">
        <ele>156</ele>
        <time>2016-06-21T13:04:54Z</time>
      </trkpt>
      <trkpt lat="45.29597" lon="0.57669">
        <ele>155</ele>
        <time>2016-06-21T13:04:58Z</time>
      </trkpt>
      <trkpt lat="45.29602" lon="0.57677">
        <ele>156</ele>
        <time>2016-06-21T13:05:03Z</time>
      </trkpt>
      <trkpt lat="45.29606" lon="0.57678">
        <ele>156</ele>
        <time>2016-06-21T13:05:07Z</time>
      </trkpt>
      <trkpt lat="45.29609" lon="0.57684">
        <ele>156</ele>
        <time>2016-06-21T13:05:12Z</time>
      </trkpt>
      <trkpt lat="45.29616" lon="0.57687">
        <ele>155</ele>
        <time>2016-06-21T13:05:17Z</time>
      </trkpt>
      <trkpt lat="45.29619" lon="0.5769">
        <ele>157</ele>
        <time>2016-06-21T13:05:21Z</time>
      </trkpt>
      <trkpt lat="45.29622" lon="0.57694">
        <ele>157</ele>
        <time>2016-06-21T13:05:25Z</time>
      </trkpt>
      <trkpt lat="45.29628" lon="0.57697">
        <ele>156</ele>
        <time>2016-06-21T13:05:30Z</time>
      </trkpt>
      <trkpt lat="45.29631" lon="0.57703">
        <ele>157</ele>
        <time>2016-06-21T13:05:34Z</time>
      </trkpt>
      <trkpt lat="45.29635" lon="0.57706">
        <ele>158</ele>
        <time>2016-06-21T13:05:39Z</time>
      </trkpt>
      <trkpt lat="45.29639" lon="0.57713">
        <ele>158</ele>
        <time>2016-06-21T13:05:44Z</time>
      </trkpt>
      <trkpt lat="45.29643" lon="0.57716">
        <ele>156</ele>
        <time>2016-06-21T13:05:48Z</time>
      </trkpt>
      <trkpt lat="45.29646" lon="0.57723">
        <ele>156</ele>
        <time>2016-06-21T13:05:53Z</time>
      </trkpt>
      <trkpt lat="45.29649" lon="0.57726">
        <ele>158</ele>
        <time>2016-06-21T13:05:57Z</time>
      </trkpt>
      <trkpt lat="45.29653" lon="0.57734">
        <ele>158</ele>
        <time>2016-06-21T13:06:02Z</time>
      </trkpt>
      <trkpt lat="45.29657" lon="0.57738">
        <ele>157</ele>
        <time>2016-06-21T13:06:06Z</time>
      </trkpt>
      <trkpt lat="45.29664" lon="0.57742">
        <ele>157</ele>
        <time>2016-06-21T13:06:11Z</time>
      </trkpt>
      <trkpt lat="45.2967" lon="0.57746">
        <ele>157</ele>
        <time>2016-06-21T13:06:15Z</time>
      </trkpt>
      <trkpt lat="45.29675" lon="0.5775">
        <ele>158</ele>
        <time>2016-06-21T13:06:19Z</time>
      </trkpt>
      <trkpt lat="45.29678" lon="0.57754">
        <ele>157</ele>
        <time>2016-06-21T13:06:23Z</time>
      </trkpt>
      <trkpt lat="45.29684" lon="0.57759">
        <ele>156</ele>
        <time>2016-06-21T13:06:28Z</time>
      </trkpt>
      <trkpt lat="45.29687" lon="0.57763">
        <ele>156</ele>
        <time>2016-06-21T13:06:32Z</time>
      </trkpt>
      <trkpt lat="45.29692" lon="0.57767">
        <ele>156</ele>
        <time>2016-06-21T13:06:37Z</time>
      </trkpt>
      <trkpt lat="45.29695" lon="0.57771">
        <ele>155</ele>
        <time>2016-06-21T13:06:41Z</time>
      </trkpt>
      <trkpt lat="45.29699" lon="0.57777">
        <ele>157</ele>
        <time>2016-06-21T13:06:46Z</time>
      </trkpt>
      <trkpt lat="45.29702" lon="0.57781">
        <ele>158</ele>
        <time>2016-06-21T13:06:50Z</time>
      </trkpt>
      <trkpt lat="45.29705" lon="0.57784">
        <ele>159</ele>
        <time>2016-06-21T13:06:55Z</time>
      </trkpt>
      <trkpt lat="45.29707" lon="0.57786">
        <ele>160</ele>
        <time>2016-06-21T13:07:02Z</time>
      </trkpt>
      <trkpt lat="45.29711" lon="0.57794">
        <ele>162</ele>
        <time>2016-06-21T13:07:06Z</time>
      </trkpt>
      <trkpt lat="45.29714" lon="0.57798">
        <ele>163</ele>
        <time>2016-06-21T13:07:10Z</time>
      </trkpt>
      <trkpt lat="45.29717" lon="0.57803">
        <ele>164</ele>
        <time>2016-06-21T13:07:19Z</time>
      </trkpt>
      <trkpt lat="45.2972" lon="0.57807">
        <ele>162</ele>
        <time>2016-06-21T13:07:23Z</time>
      </trkpt>
      <trkpt lat="45.29723" lon="0.57811">
        <ele>162</ele>
        <time>2016-06-21T13:07:28Z</time>
      </trkpt>
      <trkpt lat="45.29726" lon="0.57814">
        <ele>163</ele>
        <time>2016-06-21T13:07:32Z</time>
      </trkpt>
      <trkpt lat="45.29731" lon="0.57824">
        <ele>163</ele>
        <time>2016-06-21T13:07:37Z</time>
      </trkpt>
      <trkpt lat="45.29735" lon="0.5783">
        <ele>162</ele>
        <time>2016-06-21T13:07:42Z</time>
      </trkpt>
      <trkpt lat="45.29738" lon="0.57834">
        <ele>162</ele>
        <time>2016-06-21T13:07:47Z</time>
      </trkpt>
      <trkpt lat="45.29739" lon="0.5784">
        <ele>164</ele>
        <time>2016-06-21T13:07:52Z</time>
      </trkpt>
      <trkpt lat="45.29741" lon="0.57846">
        <ele>165</ele>
        <time>2016-06-21T13:07:56Z</time>
      </trkpt>
      <trkpt lat="45.29745" lon="0.57853">
        <ele>168</ele>
        <time>2016-06-21T13:08:00Z</time>
      </trkpt>
      <trkpt lat="45.29747" lon="0.57859">
        <ele>167</ele>
        <time>2016-06-21T13:08:04Z</time>
      </trkpt>
      <trkpt lat="45.29752" lon="0.57865">
        <ele>165</ele>
        <time>2016-06-21T13:08:09Z</time>
      </trkpt>
      <trkpt lat="45.29753" lon="0.5787">
        <ele>167</ele>
        <time>2016-06-21T13:08:13Z</time>
      </trkpt>
      <trkpt lat="45.29758" lon="0.57879">
        <ele>166</ele>
        <time>2016-06-21T13:08:17Z</time>
      </trkpt>
      <trkpt lat="45.29763" lon="0.57886">
        <ele>166</ele>
        <time>2016-06-21T13:08:22Z</time>
      </trkpt>
      <trkpt lat="45.29764" lon="0.57894">
        <ele>169</ele>
        <time>2016-06-21T13:08:26Z</time>
      </trkpt>
      <trkpt lat="45.29769" lon="0.57898">
        <ele>172</ele>
        <time>2016-06-21T13:08:31Z</time>
      </trkpt>
      <trkpt lat="45.2977" lon="0.57903">
        <ele>172</ele>
        <time>2016-06-21T13:08:36Z</time>
      </trkpt>
      <trkpt lat="45.29774" lon="0.57908">
        <ele>174</ele>
        <time>2016-06-21T13:08:40Z</time>
      </trkpt>
      <trkpt lat="45.29779" lon="0.57907">
        <ele>173</ele>
        <time>2016-06-21T13:08:46Z</time>
      </trkpt>
      <trkpt lat="45.2978" lon="0.57913">
        <ele>173</ele>
        <time>2016-06-21T13:09:00Z</time>
      </trkpt>
      <trkpt lat="45.29783" lon="0.57913">
        <ele>172</ele>
        <time>2016-06-21T13:09:39Z</time>
      </trkpt>
      <trkpt lat="45.29788" lon="0.57913">
        <ele>167</ele>
        <time>2016-06-21T13:09:43Z</time>
      </trkpt>
      <trkpt lat="45.29791" lon="0.57915">
        <ele>165</ele>
        <time>2016-06-21T13:09:51Z</time>
      </trkpt>
      <trkpt lat="45.29794" lon="0.57916">
        <ele>165</ele>
        <time>2016-06-21T13:10:04Z</time>
      </trkpt>
      <trkpt lat="45.29798" lon="0.57919">
        <ele>167</ele>
        <time>2016-06-21T13:10:08Z</time>
      </trkpt>
      <trkpt lat="45.29802" lon="0.57917">
        <ele>162</ele>
        <time>2016-06-21T13:10:13Z</time>
      </trkpt>
      <trkpt lat="45.29809" lon="0.57915">
        <ele>161</ele>
        <time>2016-06-21T13:10:18Z</time>
      </trkpt>
      <trkpt lat="45.29811" lon="0.57912">
        <ele>163</ele>
        <time>2016-06-21T13:10:22Z</time>
      </trkpt>
      <trkpt lat="45.29814" lon="0.57905">
        <ele>165</ele>
        <time>2016-06-21T13:10:26Z</time>
      </trkpt>
      <trkpt lat="45.29817" lon="0.579">
        <ele>165</ele>
        <time>2016-06-21T13:10:31Z</time>
      </trkpt>
      <trkpt lat="45.2982" lon="0.57892">
        <ele>163</ele>
        <time>2016-06-21T13:10:36Z</time>
      </trkpt>
      <trkpt lat="45.29821" lon="0.57888">
        <ele>162</ele>
        <time>2016-06-21T13:11:15Z</time>
      </trkpt>
      <trkpt lat="45.29825" lon="0.57877">
        <ele>157</ele>
        <time>2016-06-21T13:11:19Z</time>
      </trkpt>
      <trkpt lat="45.29827" lon="0.57871">
        <ele>157</ele>
        <time>2016-06-21T13:11:23Z</time>
      </trkpt>
      <trkpt lat="45.29824" lon="0.57868">
        <ele>161</ele>
        <time>2016-06-21T13:11:27Z</time>
      </trkpt>
      <trkpt lat="45.29824" lon="0.57863">
        <ele>162</ele>
        <time>2016-06-21T13:11:31Z</time>
      </trkpt>
      <trkpt lat="45.29827" lon="0.57855">
        <ele>159</ele>
        <time>2016-06-21T13:11:36Z</time>
      </trkpt>
      <trkpt lat="45.29826" lon="0.57848">
        <ele>161</ele>
        <time>2016-06-21T13:11:40Z</time>
      </trkpt>
      <trkpt lat="45.2983" lon="0.57842">
        <ele>160</ele>
        <time>2016-06-21T13:11:45Z</time>
      </trkpt>
      <trkpt lat="45.29832" lon="0.57833">
        <ele>159</ele>
        <time>2016-06-21T13:11:50Z</time>
      </trkpt>
      <trkpt lat="45.29836" lon="0.57826">
        <ele>159</ele>
        <time>2016-06-21T13:11:55Z</time>
      </trkpt>
      <trkpt lat="45.2984" lon="0.5782">
        <ele>158</ele>
        <time>2016-06-21T13:11:59Z</time>
      </trkpt>
      <trkpt lat="45.29841" lon="0.57814">
        <ele>157</ele>
        <time>2016-06-21T13:12:03Z</time>
      </trkpt>
      <trkpt lat="45.29845" lon="0.57804">
        <ele>154</ele>
        <time>2016-06-21T13:12:08Z</time>
      </trkpt>
      <trkpt lat="45.2985" lon="0.57796">
        <ele>147</ele>
        <time>2016-06-21T13:12:12Z</time>
      </trkpt>
      <trkpt lat="45.29852" lon="0.57789">
        <ele>148</ele>
        <time>2016-06-21T13:12:16Z</time>
      </trkpt>
      <trkpt lat="45.2985" lon="0.57784">
        <ele>153</ele>
        <time>2016-06-21T13:12:20Z</time>
      </trkpt>
      <trkpt lat="45.29855" lon="0.57776">
        <ele>152</ele>
        <time>2016-06-21T13:12:25Z</time>
      </trkpt>
      <trkpt lat="45.29857" lon="0.57768">
        <ele>152</ele>
        <time>2016-06-21T13:12:29Z</time>
      </trkpt>
      <trkpt lat="45.2986" lon="0.57759">
        <ele>152</ele>
        <time>2016-06-21T13:12:34Z</time>
      </trkpt>
      <trkpt lat="45.29864" lon="0.57755">
        <ele>149</ele>
        <time>2016-06-21T13:12:38Z</time>
      </trkpt>
      <trkpt lat="45.29867" lon="0.57752">
        <ele>148</ele>
        <time>2016-06-21T13:12:43Z</time>
      </trkpt>
      <trkpt lat="45.29872" lon="0.57747">
        <ele>147</ele>
        <time>2016-06-21T13:12:47Z</time>
      </trkpt>
      <trkpt lat="45.29878" lon="0.57742">
        <ele>145</ele>
        <time>2016-06-21T13:12:51Z</time>
      </trkpt>
      <trkpt lat="45.29879" lon="0.57736">
        <ele>147</ele>
        <time>2016-06-21T13:12:55Z</time>
      </trkpt>
      <trkpt lat="45.29882" lon="0.57732">
        <ele>146</ele>
        <time>2016-06-21T13:13:04Z</time>
      </trkpt>
      <trkpt lat="45.29884" lon="0.57729">
        <ele>149</ele>
        <time>2016-06-21T13:13:14Z</time>
      </trkpt>
      <trkpt lat="45.29888" lon="0.57726">
        <ele>153</ele>
        <time>2016-06-21T13:13:19Z</time>
      </trkpt>
      <trkpt lat="45.29892" lon="0.57725">
        <ele>150</ele>
        <time>2016-06-21T13:13:27Z</time>
      </trkpt>
      <trkpt lat="45.29899" lon="0.57723">
        <ele>149</ele>
        <time>2016-06-21T13:13:31Z</time>
      </trkpt>
      <trkpt lat="45.29903" lon="0.57722">
        <ele>146</ele>
        <time>2016-06-21T13:13:41Z</time>
      </trkpt>
      <trkpt lat="45.29908" lon="0.5772">
        <ele>145</ele>
        <time>2016-06-21T13:13:45Z</time>
      </trkpt>
      <trkpt lat="45.29916" lon="0.5771">
        <ele>138</ele>
        <time>2016-06-21T13:13:49Z</time>
      </trkpt>
      <trkpt lat="45.2992" lon="0.57708">
        <ele>138</ele>
        <time>2016-06-21T13:13:53Z</time>
      </trkpt>
      <trkpt lat="45.29929" lon="0.57707">
        <ele>141</ele>
        <time>2016-06-21T13:13:57Z</time>
      </trkpt>
      <trkpt lat="45.29932" lon="0.57703">
        <ele>142</ele>
        <time>2016-06-21T13:14:01Z</time>
      </trkpt>
      <trkpt lat="45.29935" lon="0.57693">
        <ele>142</ele>
        <time>2016-06-21T13:14:05Z</time>
      </trkpt>
      <trkpt lat="45.29937" lon="0.5769">
        <ele>140</ele>
        <time>2016-06-21T13:14:09Z</time>
      </trkpt>
      <trkpt lat="45.29941" lon="0.57688">
        <ele>138</ele>
        <time>2016-06-21T13:14:13Z</time>
      </trkpt>
      <trkpt lat="45.29945" lon="0.57688">
        <ele>137</ele>
        <time>2016-06-21T13:14:18Z</time>
      </trkpt>
      <trkpt lat="45.29948" lon="0.5769">
        <ele>140</ele>
        <time>2016-06-21T13:14:24Z</time>
      </trkpt>
      <trkpt lat="45.29954" lon="0.57688">
        <ele>137</ele>
        <time>2016-06-21T13:14:29Z</time>
      </trkpt>
      <trkpt lat="45.29958" lon="0.57689">
        <ele>137</ele>
        <time>2016-06-21T13:14:35Z</time>
      </trkpt>
      <trkpt lat="45.29962" lon="0.57687">
        <ele>136</ele>
        <time>2016-06-21T13:14:39Z</time>
      </trkpt>
      <trkpt lat="45.29969" lon="0.57686">
        <ele>126</ele>
        <time>2016-06-21T13:14:44Z</time>
      </trkpt>
      <trkpt lat="45.29976" lon="0.57686">
        <ele>120</ele>
        <time>2016-06-21T13:14:48Z</time>
      </trkpt>
      <trkpt lat="45.29981" lon="0.57687">
        <ele>122</ele>
        <time>2016-06-21T13:14:53Z</time>
      </trkpt>
      <trkpt lat="45.29985" lon="0.5769">
        <ele>119</ele>
        <time>2016-06-21T13:14:57Z</time>
      </trkpt>
      <trkpt lat="45.2999" lon="0.57689">
        <ele>119</ele>
        <time>2016-06-21T13:15:01Z</time>
      </trkpt>
      <trkpt lat="45.29995" lon="0.57687">
        <ele>120</ele>
        <time>2016-06-21T13:15:05Z</time>
      </trkpt>
      <trkpt lat="45.3" lon="0.57684">
        <ele>122</ele>
        <time>2016-06-21T13:15:09Z</time>
      </trkpt>
      <trkpt lat="45.30005" lon="0.57681">
        <ele>122</ele>
        <time>2016-06-21T13:15:14Z</time>
      </trkpt>
      <trkpt lat="45.30008" lon="0.57676">
        <ele>118</ele>
        <time>2016-06-21T13:15:18Z</time>
      </trkpt>
      <trkpt lat="45.30013" lon="0.57669">
        <ele>121</ele>
        <time>2016-06-21T13:15:23Z</time>
      </trkpt>
      <trkpt lat="45.30015" lon="0.57665">
        <ele>124</ele>
        <time>2016-06-21T13:15:27Z</time>
      </trkpt>
      <trkpt lat="45.30019" lon="0.5766">
        <ele>123</ele>
        <time>2016-06-21T13:15:32Z</time>
      </trkpt>
      <trkpt lat="45.30022" lon="0.57654">
        <ele>124</ele>
        <time>2016-06-21T13:15:36Z</time>
      </trkpt>
      <trkpt lat="45.30027" lon="0.5765">
        <ele>125</ele>
        <time>2016-06-21T13:15:41Z</time>
      </trkpt>
      <trkpt lat="45.30029" lon="0.57644">
        <ele>125</ele>
        <time>2016-06-21T13:15:45Z</time>
      </trkpt>
      <trkpt lat="45.30031" lon="0.57637">
        <ele>126</ele>
        <time>2016-06-21T13:15:50Z</time>
      </trkpt>
      <trkpt lat="45.30033" lon="0.57632">
        <ele>129</ele>
        <time>2016-06-21T13:15:56Z</time>
      </trkpt>
      <trkpt lat="45.30034" lon="0.57627">
        <ele>131</ele>
        <time>2016-06-21T13:16:11Z</time>
      </trkpt>
      <trkpt lat="45.30036" lon="0.57622">
        <ele>134</ele>
        <time>2016-06-21T13:16:16Z</time>
      </trkpt>
      <trkpt lat="45.30036" lon="0.57617">
        <ele>135</ele>
        <time>2016-06-21T13:16:21Z</time>
      </trkpt>
      <trkpt lat="45.3004" lon="0.57608">
        <ele>133</ele>
        <time>2016-06-21T13:16:26Z</time>
      </trkpt>
      <trkpt lat="45.30042" lon="0.576">
        <ele>132</ele>
        <time>2016-06-21T13:16:30Z</time>
      </trkpt>
      <trkpt lat="45.30043" lon="0.57593">
        <ele>135</ele>
        <time>2016-06-21T13:16:35Z</time>
      </trkpt>
      <trkpt lat="45.30045" lon="0.57588">
        <ele>139</ele>
        <time>2016-06-21T13:16:42Z</time>
      </trkpt>
      <trkpt lat="45.30047" lon="0.57585">
        <ele>142</ele>
        <time>2016-06-21T13:16:46Z</time>
      </trkpt>
      <trkpt lat="45.3005" lon="0.57581">
        <ele>138</ele>
        <time>2016-06-21T13:16:50Z</time>
      </trkpt>
      <trkpt lat="45.30051" lon="0.57575">
        <ele>140</ele>
        <time>2016-06-21T13:16:55Z</time>
      </trkpt>
      <trkpt lat="45.30052" lon="0.57568">
        <ele>142</ele>
        <time>2016-06-21T13:17:00Z</time>
      </trkpt>
      <trkpt lat="45.30053" lon="0.57563">
        <ele>138</ele>
        <time>2016-06-21T13:17:04Z</time>
      </trkpt>
      <trkpt lat="45.30058" lon="0.57557">
        <ele>139</ele>
        <time>2016-06-21T13:17:09Z</time>
      </trkpt>
      <trkpt lat="45.30062" lon="0.57553">
        <ele>139</ele>
        <time>2016-06-21T13:17:13Z</time>
      </trkpt>
      <trkpt lat="45.30064" lon="0.5755">
        <ele>143</ele>
        <time>2016-06-21T13:17:19Z</time>
      </trkpt>
      <trkpt lat="45.30066" lon="0.57544">
        <ele>143</ele>
        <time>2016-06-21T13:17:24Z</time>
      </trkpt>
      <trkpt lat="45.30066" lon="0.57537">
        <ele>144</ele>
        <time>2016-06-21T13:17:28Z</time>
      </trkpt>
      <trkpt lat="45.30068" lon="0.57532">
        <ele>147</ele>
        <time>2016-06-21T13:17:34Z</time>
      </trkpt>
      <trkpt lat="45.30071" lon="0.57527">
        <ele>148</ele>
        <time>2016-06-21T13:17:42Z</time>
      </trkpt>
      <trkpt lat="45.30074" lon="0.57523">
        <ele>146</ele>
        <time>2016-06-21T13:17:48Z</time>
      </trkpt>
      <trkpt lat="45.30076" lon="0.57518">
        <ele>146</ele>
        <time>2016-06-21T13:17:52Z</time>
      </trkpt>
      <trkpt lat="45.3008" lon="0.57516">
        <ele>147</ele>
        <time>2016-06-21T13:17:59Z</time>
      </trkpt>
      <trkpt lat="45.30083" lon="0.57514">
        <ele>150</ele>
        <time>2016-06-21T13:18:06Z</time>
      </trkpt>
      <trkpt lat="45.30088" lon="0.57512">
        <ele>149</ele>
        <time>2016-06-21T13:18:11Z</time>
      </trkpt>
      <trkpt lat="45.3009" lon="0.57508">
        <ele>145</ele>
        <time>2016-06-21T13:18:16Z</time>
      </trkpt>
      <trkpt lat="45.30094" lon="0.57503">
        <ele>147</ele>
        <time>2016-06-21T13:18:21Z</time>
      </trkpt>
      <trkpt lat="45.30096" lon="0.57494">
        <ele>145</ele>
        <time>2016-06-21T13:18:25Z</time>
      </trkpt>
      <trkpt lat="45.30103" lon="0.57488">
        <ele>143</ele>
        <time>2016-06-21T13:18:30Z</time>
      </trkpt>
      <trkpt lat="45.30109" lon="0.57482">
        <ele>140</ele>
        <time>2016-06-21T13:18:35Z</time>
      </trkpt>
      <trkpt lat="45.30112" lon="0.57479">
        <ele>141</ele>
        <time>2016-06-21T13:18:41Z</time>
      </trkpt>
      <trkpt lat="45.30116" lon="0.57476">
        <ele>141</ele>
        <time>2016-06-21T13:18:46Z</time>
      </trkpt>
      <trkpt lat="45.3012" lon="0.57474">
        <ele>142</ele>
        <time>2016-06-21T13:18:52Z</time>
      </trkpt>
      <trkpt lat="45.30125" lon="0.57474">
        <ele>145</ele>
        <time>2016-06-21T13:18:58Z</time>
      </trkpt>
      <trkpt lat="45.3013" lon="0.57471">
        <ele>146</ele>
        <time>2016-06-21T13:19:02Z</time>
      </trkpt>
      <trkpt lat="45.30133" lon="0.57471">
        <ele>146</ele>
        <time>2016-06-21T13:19:06Z</time>
      </trkpt>
      <trkpt lat="45.30137" lon="0.57471">
        <ele>146</ele>
        <time>2016-06-21T13:19:11Z</time>
      </trkpt>
      <trkpt lat="45.30142" lon="0.57469">
        <ele>146</ele>
        <time>2016-06-21T13:19:15Z</time>
      </trkpt>
      <trkpt lat="45.30146" lon="0.57469">
        <ele>146</ele>
        <time>2016-06-21T13:19:19Z</time>
      </trkpt>
      <trkpt lat="45.3015" lon="0.57468">
        <ele>147</ele>
        <time>2016-06-21T13:19:23Z</time>
      </trkpt>
      <trkpt lat="45.30153" lon="0.57465">
        <ele>151</ele>
        <time>2016-06-21T13:19:27Z</time>
      </trkpt>
      <trkpt lat="45.30159" lon="0.57459">
        <ele>149</ele>
        <time>2016-06-21T13:19:32Z</time>
      </trkpt>
      <trkpt lat="45.30163" lon="0.57454">
        <ele>147</ele>
        <time>2016-06-21T13:19:36Z</time>
      </trkpt>
      <trkpt lat="45.30166" lon="0.57443">
        <ele>145</ele>
        <time>2016-06-21T13:19:41Z</time>
      </trkpt>
      <trkpt lat="45.30168" lon="0.57438">
        <ele>144</ele>
        <time>2016-06-21T13:19:45Z</time>
      </trkpt>
      <trkpt lat="45.30168" lon="0.57433">
        <ele>148</ele>
        <time>2016-06-21T13:19:57Z</time>
      </trkpt>
      <trkpt lat="45.30169" lon="0.57427">
        <ele>148</ele>
        <time>2016-06-21T13:20:14Z</time>
      </trkpt>
      <trkpt lat="45.30171" lon="0.57422">
        <ele>148</ele>
        <time>2016-06-21T13:20:20Z</time>
      </trkpt>
      <trkpt lat="45.30171" lon="0.57415">
        <ele>151</ele>
        <time>2016-06-21T13:20:25Z</time>
      </trkpt>
      <trkpt lat="45.3017" lon="0.57405">
        <ele>153</ele>
        <time>2016-06-21T13:20:30Z</time>
      </trkpt>
      <trkpt lat="45.30169" lon="0.57397">
        <ele>150</ele>
        <time>2016-06-21T13:20:35Z</time>
      </trkpt>
      <trkpt lat="45.30168" lon="0.57394">
        <ele>146</ele>
        <time>2016-06-21T13:22:05Z</time>
      </trkpt>
      <trkpt lat="45.30165" lon="0.57389">
        <ele>144</ele>
        <time>2016-06-21T13:22:30Z</time>
      </trkpt>
      <trkpt lat="45.30165" lon="0.57383">
        <ele>141</ele>
        <time>2016-06-21T13:22:34Z</time>
      </trkpt>
      <trkpt lat="45.30165" lon="0.57376">
        <ele>142</ele>
        <time>2016-06-21T13:22:43Z</time>
      </trkpt>
      <trkpt lat="45.30168" lon="0.57369">
        <ele>143</ele>
        <time>2016-06-21T13:22:48Z</time>
      </trkpt>
      <trkpt lat="45.30169" lon="0.57364">
        <ele>143</ele>
        <time>2016-06-21T13:22:53Z</time>
      </trkpt>
      <trkpt lat="45.3017" lon="0.57358">
        <ele>141</ele>
        <time>2016-06-21T13:22:59Z</time>
      </trkpt>
      <trkpt lat="45.30173" lon="0.57352">
        <ele>143</ele>
        <time>2016-06-21T13:23:04Z</time>
      </trkpt>
      <trkpt lat="45.30176" lon="0.57345">
        <ele>144</ele>
        <time>2016-06-21T13:23:08Z</time>
      </trkpt>
      <trkpt lat="45.30179" lon="0.57342">
        <ele>150</ele>
        <time>2016-06-21T13:23:14Z</time>
      </trkpt>
      <trkpt lat="45.30183" lon="0.57334">
        <ele>149</ele>
        <time>2016-06-21T13:23:19Z</time>
      </trkpt>
      <trkpt lat="45.30185" lon="0.57329">
        <ele>149</ele>
        <time>2016-06-21T13:23:23Z</time>
      </trkpt>
      <trkpt lat="45.30187" lon="0.57323">
        <ele>149</ele>
        <time>2016-06-21T13:23:30Z</time>
      </trkpt>
      <trkpt lat="45.30188" lon="0.57319">
        <ele>150</ele>
        <time>2016-06-21T13:23:34Z</time>
      </trkpt>
      <trkpt lat="45.30187" lon="0.57306">
        <ele>147</ele>
        <time>2016-06-21T13:23:39Z</time>
      </trkpt>
      <trkpt lat="45.30191" lon="0.57298">
        <ele>139</ele>
        <time>2016-06-21T13:23:44Z</time>
      </trkpt>
      <trkpt lat="45.30191" lon="0.57293">
        <ele>139</ele>
        <time>2016-06-21T13:24:07Z</time>
      </trkpt>
      <trkpt lat="45.30183" lon="0.57286">
        <ele>142</ele>
        <time>2016-06-21T13:24:12Z</time>
      </trkpt>
      <trkpt lat="45.30177" lon="0.57282">
        <ele>141</ele>
        <time>2016-06-21T13:24:17Z</time>
      </trkpt>
      <trkpt lat="45.30172" lon="0.57277">
        <ele>145</ele>
        <time>2016-06-21T13:24:21Z</time>
      </trkpt>
      <trkpt lat="45.30169" lon="0.57275">
        <ele>149</ele>
        <time>2016-06-21T13:24:25Z</time>
      </trkpt>
      <trkpt lat="45.30166" lon="0.57273">
        <ele>146</ele>
        <time>2016-06-21T13:24:29Z</time>
      </trkpt>
      <trkpt lat="45.30159" lon="0.5727">
        <ele>145</ele>
        <time>2016-06-21T13:24:33Z</time>
      </trkpt>
      <trkpt lat="45.30157" lon="0.57268">
        <ele>149</ele>
        <time>2016-06-21T13:24:38Z</time>
      </trkpt>
      <trkpt lat="45.30151" lon="0.57259">
        <ele>146</ele>
        <time>2016-06-21T13:24:43Z</time>
      </trkpt>
      <trkpt lat="45.30148" lon="0.57255">
        <ele>144</ele>
        <time>2016-06-21T13:24:48Z</time>
      </trkpt>
      <trkpt lat="45.30144" lon="0.57256">
        <ele>141</ele>
        <time>2016-06-21T13:24:52Z</time>
      </trkpt>
      <trkpt lat="45.30141" lon="0.57254">
        <ele>141</ele>
        <time>2016-06-21T13:24:56Z</time>
      </trkpt>
      <trkpt lat="45.30136" lon="0.57247">
        <ele>139</ele>
        <time>2016-06-21T13:25:01Z</time>
      </trkpt>
      <trkpt lat="45.30135" lon="0.57242">
        <ele>136</ele>
        <time>2016-06-21T13:25:08Z</time>
      </trkpt>
      <trkpt lat="45.30138" lon="0.57241">
        <ele>132</ele>
        <time>2016-06-21T13:25:13Z</time>
      </trkpt>
      <trkpt lat="45.30143" lon="0.57241">
        <ele>133</ele>
        <time>2016-06-21T13:25:18Z</time>
      </trkpt>
      <trkpt lat="45.30145" lon="0.57236">
        <ele>137</ele>
        <time>2016-06-21T13:25:27Z</time>
      </trkpt>
      <trkpt lat="45.30147" lon="0.57231">
        <ele>140</ele>
        <time>2016-06-21T13:25:32Z</time>
      </trkpt>
      <trkpt lat="45.30151" lon="0.57228">
        <ele>140</ele>
        <time>2016-06-21T13:25:36Z</time>
      </trkpt>
      <trkpt lat="45.30154" lon="0.57225">
        <ele>144</ele>
        <time>2016-06-21T13:25:42Z</time>
      </trkpt>
      <trkpt lat="45.30158" lon="0.57225">
        <ele>145</ele>
        <time>2016-06-21T13:25:49Z</time>
      </trkpt>
      <trkpt lat="45.30162" lon="0.57216">
        <ele>149</ele>
        <time>2016-06-21T13:25:54Z</time>
      </trkpt>
      <trkpt lat="45.30166" lon="0.5721">
        <ele>150</ele>
        <time>2016-06-21T13:25:58Z</time>
      </trkpt>
      <trkpt lat="45.3017" lon="0.57203">
        <ele>152</ele>
        <time>2016-06-21T13:26:02Z</time>
      </trkpt>
      <trkpt lat="45.30175" lon="0.57194">
        <ele>148</ele>
        <time>2016-06-21T13:26:06Z</time>
      </trkpt>
      <trkpt lat="45.30177" lon="0.5719">
        <ele>147</ele>
        <time>2016-06-21T13:26:11Z</time>
      </trkpt>
      <trkpt lat="45.30183" lon="0.57184">
        <ele>141</ele>
        <time>2016-06-21T13:26:15Z</time>
      </trkpt>
      <trkpt lat="45.30186" lon="0.57182">
        <ele>142</ele>
        <time>2016-06-21T13:26:19Z</time>
      </trkpt>
      <trkpt lat="45.30192" lon="0.57177">
        <ele>137</ele>
        <time>2016-06-21T13:26:24Z</time>
      </trkpt>
      <trkpt lat="45.30196" lon="0.57174">
        <ele>138</ele>
        <time>2016-06-21T13:26:29Z</time>
      </trkpt>
      <trkpt lat="45.30197" lon="0.57168">
        <ele>142</ele>
        <time>2016-06-21T13:26:36Z</time>
      </trkpt>
      <trkpt lat="45.30199" lon="0.57161">
        <ele>141</ele>
        <time>2016-06-21T13:26:40Z</time>
      </trkpt>
      <trkpt lat="45.30201" lon="0.57154">
        <ele>140</ele>
        <time>2016-06-21T13:26:44Z</time>
      </trkpt>
      <trkpt lat="45.302" lon="0.57148">
        <ele>139</ele>
        <time>2016-06-21T13:26:49Z</time>
      </trkpt>
      <trkpt lat="45.30196" lon="0.57141">
        <ele>137</ele>
        <time>2016-06-21T13:26:53Z</time>
      </trkpt>
      <trkpt lat="45.30193" lon="0.5713">
        <ele>136</ele>
        <time>2016-06-21T13:26:58Z</time>
      </trkpt>
      <trkpt lat="45.30193" lon="0.57125">
        <ele>137</ele>
        <time>2016-06-21T13:27:02Z</time>
      </trkpt>
      <trkpt lat="45.3019" lon="0.57116">
        <ele>136</ele>
        <time>2016-06-21T13:27:07Z</time>
      </trkpt>
      <trkpt lat="45.30188" lon="0.57112">
        <ele>135</ele>
        <time>2016-06-21T13:27:11Z</time>
      </trkpt>
      <trkpt lat="45.30183" lon="0.57105">
        <ele>135</ele>
        <time>2016-06-21T13:27:15Z</time>
      </trkpt>
      <trkpt lat="45.3018" lon="0.571">
        <ele>137</ele>
        <time>2016-06-21T13:27:20Z</time>
      </trkpt>
      <trkpt lat="45.30176" lon="0.57097">
        <ele>137</ele>
        <time>2016-06-21T13:27:26Z</time>
      </trkpt>
      <trkpt lat="45.30172" lon="0.57094">
        <ele>136</ele>
        <time>2016-06-21T13:27:30Z</time>
      </trkpt>
      <trkpt lat="45.3017" lon="0.57087">
        <ele>136</ele>
        <time>2016-06-21T13:27:34Z</time>
      </trkpt>
      <trkpt lat="45.30169" lon="0.57082">
        <ele>137</ele>
        <time>2016-06-21T13:27:38Z</time>
      </trkpt>
      <trkpt lat="45.30166" lon="0.57077">
        <ele>137</ele>
        <time>2016-06-21T13:27:43Z</time>
      </trkpt>
      <trkpt lat="45.30163" lon="0.57073">
        <ele>136</ele>
        <time>2016-06-21T13:27:47Z</time>
      </trkpt>
      <trkpt lat="45.3016" lon="0.57068">
        <ele>137</ele>
        <time>2016-06-21T13:27:52Z</time>
      </trkpt>
      <trkpt lat="45.30156" lon="0.57064">
        <ele>137</ele>
        <time>2016-06-21T13:27:56Z</time>
      </trkpt>
      <trkpt lat="45.30154" lon="0.57058">
        <ele>136</ele>
        <time>2016-06-21T13:28:01Z</time>
      </trkpt>
      <trkpt lat="45.30152" lon="0.57053">
        <ele>136</ele>
        <time>2016-06-21T13:28:05Z</time>
      </trkpt>
      <trkpt lat="45.30147" lon="0.57051">
        <ele>137</ele>
        <time>2016-06-21T13:28:10Z</time>
      </trkpt>
      <trkpt lat="45.30143" lon="0.57046">
        <ele>135</ele>
        <time>2016-06-21T13:28:14Z</time>
      </trkpt>
      <trkpt lat="45.30141" lon="0.57042">
        <ele>136</ele>
        <time>2016-06-21T13:28:18Z</time>
      </trkpt>
      <trkpt lat="45.30137" lon="0.57035">
        <ele>134</ele>
        <time>2016-06-21T13:28:22Z</time>
      </trkpt>
      <trkpt lat="45.30132" lon="0.57028">
        <ele>134</ele>
        <time>2016-06-21T13:28:27Z</time>
      </trkpt>
      <trkpt lat="45.3013" lon="0.57022">
        <ele>134</ele>
        <time>2016-06-21T13:28:32Z</time>
      </trkpt>
      <trkpt lat="45.30125" lon="0.57017">
        <ele>134</ele>
        <time>2016-06-21T13:28:37Z</time>
      </trkpt>
      <trkpt lat="45.30123" lon="0.57014">
        <ele>134</ele>
        <time>2016-06-21T13:28:44Z</time>
      </trkpt>
      <trkpt lat="45.3012" lon="0.57003">
        <ele>132</ele>
        <time>2016-06-21T13:28:49Z</time>
      </trkpt>
      <trkpt lat="45.30117" lon="0.56997">
        <ele>132</ele>
        <time>2016-06-21T13:28:53Z</time>
      </trkpt>
      <trkpt lat="45.30115" lon="0.5699">
        <ele>132</ele>
        <time>2016-06-21T13:28:57Z</time>
      </trkpt>
      <trkpt lat="45.30112" lon="0.56983">
        <ele>132</ele>
        <time>2016-06-21T13:29:01Z</time>
      </trkpt>
      <trkpt lat="45.30109" lon="0.56978">
        <ele>133</ele>
        <time>2016-06-21T13:29:05Z</time>
      </trkpt>
      <trkpt lat="45.30107" lon="0.56974">
        <ele>134</ele>
        <time>2016-06-21T13:29:10Z</time>
      </trkpt>
      <trkpt lat="45.30105" lon="0.56969">
        <ele>134</ele>
        <time>2016-06-21T13:29:14Z</time>
      </trkpt>
      <trkpt lat="45.30102" lon="0.56963">
        <ele>134</ele>
        <time>2016-06-21T13:29:18Z</time>
      </trkpt>
      <trkpt lat="45.30099" lon="0.56962">
        <ele>135</ele>
        <time>2016-06-21T13:29:22Z</time>
      </trkpt>
      <trkpt lat="45.30096" lon="0.56955">
        <ele>135</ele>
        <time>2016-06-21T13:29:26Z</time>
      </trkpt>
      <trkpt lat="45.30093" lon="0.56946">
        <ele>137</ele>
        <time>2016-06-21T13:29:31Z</time>
      </trkpt>
      <trkpt lat="45.30091" lon="0.56939">
        <ele>137</ele>
        <time>2016-06-21T13:29:36Z</time>
      </trkpt>
      <trkpt lat="45.30089" lon="0.56932">
        <ele>136</ele>
        <time>2016-06-21T13:29:41Z</time>
      </trkpt>
      <trkpt lat="45.30084" lon="0.56925">
        <ele>134</ele>
        <time>2016-06-21T13:29:45Z</time>
      </trkpt>
      <trkpt lat="45.30082" lon="0.5692">
        <ele>133</ele>
        <time>2016-06-21T13:29:49Z</time>
      </trkpt>
      <trkpt lat="45.30079" lon="0.56915">
        <ele>133</ele>
        <time>2016-06-21T13:29:53Z</time>
      </trkpt>
      <trkpt lat="45.30078" lon="0.56908">
        <ele>134</ele>
        <time>2016-06-21T13:29:58Z</time>
      </trkpt>
      <trkpt lat="45.30076" lon="0.56903">
        <ele>134</ele>
        <time>2016-06-21T13:30:02Z</time>
      </trkpt>
      <trkpt lat="45.30075" lon="0.56897">
        <ele>134</ele>
        <time>2016-06-21T13:30:06Z</time>
      </trkpt>
      <trkpt lat="45.30073" lon="0.56891">
        <ele>134</ele>
        <time>2016-06-21T13:30:10Z</time>
      </trkpt>
      <trkpt lat="45.30073" lon="0.56886">
        <ele>135</ele>
        <time>2016-06-21T13:30:14Z</time>
      </trkpt>
      <trkpt lat="45.30073" lon="0.56879">
        <ele>135</ele>
        <time>2016-06-21T13:30:19Z</time>
      </trkpt>
      <trkpt lat="45.30071" lon="0.56874">
        <ele>135</ele>
        <time>2016-06-21T13:30:23Z</time>
      </trkpt>
      <trkpt lat="45.30069" lon="0.56868">
        <ele>135</ele>
        <time>2016-06-21T13:30:27Z</time>
      </trkpt>
      <trkpt lat="45.30066" lon="0.56861">
        <ele>135</ele>
        <time>2016-06-21T13:30:32Z</time>
      </trkpt>
      <trkpt lat="45.30062" lon="0.56857">
        <ele>134</ele>
        <time>2016-06-21T13:30:36Z</time>
      </trkpt>
      <trkpt lat="45.3006" lon="0.56852">
        <ele>134</ele>
        <time>2016-06-21T13:30:40Z</time>
      </trkpt>
      <trkpt lat="45.30056" lon="0.56844">
        <ele>135</ele>
        <time>2016-06-21T13:30:45Z</time>
      </trkpt>
      <trkpt lat="45.30053" lon="0.56838">
        <ele>136</ele>
        <time>2016-06-21T13:30:49Z</time>
      </trkpt>
      <trkpt lat="45.3005" lon="0.56832">
        <ele>134</ele>
        <time>2016-06-21T13:30:53Z</time>
      </trkpt>
      <trkpt lat="45.30045" lon="0.56826">
        <ele>134</ele>
        <time>2016-06-21T13:30:58Z</time>
      </trkpt>
      <trkpt lat="45.30044" lon="0.56821">
        <ele>135</ele>
        <time>2016-06-21T13:31:02Z</time>
      </trkpt>
      <trkpt lat="45.30041" lon="0.56816">
        <ele>134</ele>
        <time>2016-06-21T13:31:06Z</time>
      </trkpt>
      <trkpt lat="45.30039" lon="0.5681">
        <ele>134</ele>
        <time>2016-06-21T13:31:10Z</time>
      </trkpt>
      <trkpt lat="45.30036" lon="0.56803">
        <ele>134</ele>
        <time>2016-06-21T13:31:15Z</time>
      </trkpt>
      <trkpt lat="45.30034" lon="0.56796">
        <ele>133</ele>
        <time>2016-06-21T13:31:20Z</time>
      </trkpt>
      <trkpt lat="45.30031" lon="0.56789">
        <ele>132</ele>
        <time>2016-06-21T13:31:24Z</time>
      </trkpt>
      <trkpt lat="45.30029" lon="0.56784">
        <ele>132</ele>
        <time>2016-06-21T13:31:28Z</time>
      </trkpt>
      <trkpt lat="45.30027" lon="0.56779">
        <ele>133</ele>
        <time>2016-06-21T13:31:32Z</time>
      </trkpt>
      <trkpt lat="45.30024" lon="0.56773">
        <ele>132</ele>
        <time>2016-06-21T13:31:37Z</time>
      </trkpt>
      <trkpt lat="45.30021" lon="0.56767">
        <ele>132</ele>
        <time>2016-06-21T13:31:41Z</time>
      </trkpt>
      <trkpt lat="45.3002" lon="0.56762">
        <ele>132</ele>
        <time>2016-06-21T13:31:45Z</time>
      </trkpt>
      <trkpt lat="45.30016" lon="0.56755">
        <ele>131</ele>
        <time>2016-06-21T13:31:49Z</time>
      </trkpt>
      <trkpt lat="45.30014" lon="0.56749">
        <ele>131</ele>
        <time>2016-06-21T13:31:54Z</time>
      </trkpt>
      <trkpt lat="45.30011" lon="0.56741">
        <ele>131</ele>
        <time>2016-06-21T13:31:59Z</time>
      </trkpt>
      <trkpt lat="45.30008" lon="0.56735">
        <ele>131</ele>
        <time>2016-06-21T13:32:03Z</time>
      </trkpt>
      <trkpt lat="45.30006" lon="0.56729">
        <ele>131</ele>
        <time>2016-06-21T13:32:07Z</time>
      </trkpt>
      <trkpt lat="45.30004" lon="0.56723">
        <ele>131</ele>
        <time>2016-06-21T13:32:12Z</time>
      </trkpt>
      <trkpt lat="45.30002" lon="0.56717">
        <ele>131</ele>
        <time>2016-06-21T13:32:16Z</time>
      </trkpt>
      <trkpt lat="45.29999" lon="0.56713">
        <ele>131</ele>
        <time>2016-06-21T13:32:28Z</time>
      </trkpt>
      <trkpt lat="45.30002" lon="0.56708">
        <ele>130</ele>
        <time>2016-06-21T13:35:10Z</time>
      </trkpt>
      <trkpt lat="45.30006" lon="0.56706">
        <ele>130</ele>
        <time>2016-06-21T13:35:16Z</time>
      </trkpt>
      <trkpt lat="45.30009" lon="0.56703">
        <ele>130</ele>
        <time>2016-06-21T13:35:20Z</time>
      </trkpt>
      <trkpt lat="45.30012" lon="0.567">
        <ele>130</ele>
        <time>2016-06-21T13:35:25Z</time>
      </trkpt>
      <trkpt lat="45.30016" lon="0.56697">
        <ele>131</ele>
        <time>2016-06-21T13:35:30Z</time>
      </trkpt>
      <trkpt lat="45.3002" lon="0.56695">
        <ele>132</ele>
        <time>2016-06-21T13:35:35Z</time>
      </trkpt>
      <trkpt lat="45.30025" lon="0.56694">
        <ele>133</ele>
        <time>2016-06-21T13:35:40Z</time>
      </trkpt>
      <trkpt lat="45.30027" lon="0.56691">
        <ele>133</ele>
        <time>2016-06-21T13:35:44Z</time>
      </trkpt>
      <trkpt lat="45.30028" lon="0.56677">
        <ele>129</ele>
        <time>2016-06-21T13:35:49Z</time>
      </trkpt>
      <trkpt lat="45.30028" lon="0.5667">
        <ele>129</ele>
        <time>2016-06-21T13:35:54Z</time>
      </trkpt>
      <trkpt lat="45.30026" lon="0.56664">
        <ele>128</ele>
        <time>2016-06-21T13:35:58Z</time>
      </trkpt>
      <trkpt lat="45.30024" lon="0.56659">
        <ele>129</ele>
        <time>2016-06-21T13:36:03Z</time>
      </trkpt>
      <trkpt lat="45.30022" lon="0.56654">
        <ele>129</ele>
        <time>2016-06-21T13:36:07Z</time>
      </trkpt>
      <trkpt lat="45.30019" lon="0.56648">
        <ele>129</ele>
        <time>2016-06-21T13:36:11Z</time>
      </trkpt>
      <trkpt lat="45.30017" lon="0.56641">
        <ele>130</ele>
        <time>2016-06-21T13:36:16Z</time>
      </trkpt>
      <trkpt lat="45.30014" lon="0.56637">
        <ele>130</ele>
        <time>2016-06-21T13:36:20Z</time>
      </trkpt>
      <trkpt lat="45.3001" lon="0.56632">
        <ele>130</ele>
        <time>2016-06-21T13:36:24Z</time>
      </trkpt>
      <trkpt lat="45.30007" lon="0.56626">
        <ele>132</ele>
        <time>2016-06-21T13:36:29Z</time>
      </trkpt>
      <trkpt lat="45.30002" lon="0.56622">
        <ele>130</ele>
        <time>2016-06-21T13:36:33Z</time>
      </trkpt>
      <trkpt lat="45.29998" lon="0.56616">
        <ele>130</ele>
        <time>2016-06-21T13:36:38Z</time>
      </trkpt>
      <trkpt lat="45.29994" lon="0.56612">
        <ele>131</ele>
        <time>2016-06-21T13:36:42Z</time>
      </trkpt>
      <trkpt lat="45.29991" lon="0.56607">
        <ele>132</ele>
        <time>2016-06-21T13:36:46Z</time>
      </trkpt>
      <trkpt lat="45.29988" lon="0.56603">
        <ele>133</ele>
        <time>2016-06-21T13:36:51Z</time>
      </trkpt>
      <trkpt lat="45.29984" lon="0.56598">
        <ele>133</ele>
        <time>2016-06-21T13:36:55Z</time>
      </trkpt>
      <trkpt lat="45.2998" lon="0.56593">
        <ele>133</ele>
        <time>2016-06-21T13:37:00Z</time>
      </trkpt>
      <trkpt lat="45.29977" lon="0.56591">
        <ele>134</ele>
        <time>2016-06-21T13:37:04Z</time>
      </trkpt>
      <trkpt lat="45.29974" lon="0.56584">
        <ele>134</ele>
        <time>2016-06-21T13:37:09Z</time>
      </trkpt>
      <trkpt lat="45.2997" lon="0.56581">
        <ele>134</ele>
        <time>2016-06-21T13:37:13Z</time>
      </trkpt>
      <trkpt lat="45.29964" lon="0.56579">
        <ele>133</ele>
        <time>2016-06-21T13:37:17Z</time>
      </trkpt>
      <trkpt lat="45.2996" lon="0.56581">
        <ele>135</ele>
        <time>2016-06-21T13:37:22Z</time>
      </trkpt>
      <trkpt lat="45.29955" lon="0.56585">
        <ele>136</ele>
        <time>2016-06-21T13:37:26Z</time>
      </trkpt>
      <trkpt lat="45.29951" lon="0.56589">
        <ele>135</ele>
        <time>2016-06-21T13:37:30Z</time>
      </trkpt>
      <trkpt lat="45.29947" lon="0.5659">
        <ele>135</ele>
        <time>2016-06-21T13:37:34Z</time>
      </trkpt>
      <trkpt lat="45.29943" lon="0.56587">
        <ele>136</ele>
        <time>2016-06-21T13:37:40Z</time>
      </trkpt>
      <trkpt lat="45.2994" lon="0.56583">
        <ele>134</ele>
        <time>2016-06-21T13:37:47Z</time>
      </trkpt>
      <trkpt lat="45.29938" lon="0.5658">
        <ele>133</ele>
        <time>2016-06-21T13:37:51Z</time>
      </trkpt>
      <trkpt lat="45.29937" lon="0.56573">
        <ele>137</ele>
        <time>2016-06-21T13:37:56Z</time>
      </trkpt>
      <trkpt lat="45.29934" lon="0.56569">
        <ele>137</ele>
        <time>2016-06-21T13:38:00Z</time>
      </trkpt>
      <trkpt lat="45.29931" lon="0.56562">
        <ele>138</ele>
        <time>2016-06-21T13:38:05Z</time>
      </trkpt>
      <trkpt lat="45.29927" lon="0.56558">
        <ele>136</ele>
        <time>2016-06-21T13:38:09Z</time>
      </trkpt>
      <trkpt lat="45.29925" lon="0.56552">
        <ele>136</ele>
        <time>2016-06-21T13:38:14Z</time>
      </trkpt>
      <trkpt lat="45.29921" lon="0.56544">
        <ele>136</ele>
        <time>2016-06-21T13:38:19Z</time>
      </trkpt>
      <trkpt lat="45.29918" lon="0.56539">
        <ele>135</ele>
        <time>2016-06-21T13:38:23Z</time>
      </trkpt>
      <trkpt lat="45.29913" lon="0.56534">
        <ele>135</ele>
        <time>2016-06-21T13:38:27Z</time>
      </trkpt>
      <trkpt lat="45.29911" lon="0.56529">
        <ele>133</ele>
        <time>2016-06-21T13:38:31Z</time>
      </trkpt>
      <trkpt lat="45.29908" lon="0.56523">
        <ele>133</ele>
        <time>2016-06-21T13:38:35Z</time>
      </trkpt>
      <trkpt lat="45.29906" lon="0.56518">
        <ele>132</ele>
        <time>2016-06-21T13:38:39Z</time>
      </trkpt>
      <trkpt lat="45.29903" lon="0.56513">
        <ele>132</ele>
        <time>2016-06-21T13:38:43Z</time>
      </trkpt>
      <trkpt lat="45.29902" lon="0.56507">
        <ele>133</ele>
        <time>2016-06-21T13:38:48Z</time>
      </trkpt>
      <trkpt lat="45.29897" lon="0.565">
        <ele>133</ele>
        <time>2016-06-21T13:38:53Z</time>
      </trkpt>
      <trkpt lat="45.29894" lon="0.56495">
        <ele>133</ele>
        <time>2016-06-21T13:38:57Z</time>
      </trkpt>
      <trkpt lat="45.29892" lon="0.56489">
        <ele>133</ele>
        <time>2016-06-21T13:39:01Z</time>
      </trkpt>
      <trkpt lat="45.29891" lon="0.56484">
        <ele>134</ele>
        <time>2016-06-21T13:39:05Z</time>
      </trkpt>
      <trkpt lat="45.29887" lon="0.56478">
        <ele>134</ele>
        <time>2016-06-21T13:39:10Z</time>
      </trkpt>
      <trkpt lat="45.29885" lon="0.56472">
        <ele>133</ele>
        <time>2016-06-21T13:39:15Z</time>
      </trkpt>
      <trkpt lat="45.29883" lon="0.56467">
        <ele>134</ele>
        <time>2016-06-21T13:39:21Z</time>
      </trkpt>
      <trkpt lat="45.2988" lon="0.56463">
        <ele>134</ele>
        <time>2016-06-21T13:39:25Z</time>
      </trkpt>
      <trkpt lat="45.29878" lon="0.56457">
        <ele>133</ele>
        <time>2016-06-21T13:39:29Z</time>
      </trkpt>
      <trkpt lat="45.29876" lon="0.56451">
        <ele>133</ele>
        <time>2016-06-21T13:39:33Z</time>
      </trkpt>
      <trkpt lat="45.29874" lon="0.56444">
        <ele>135</ele>
        <time>2016-06-21T13:39:38Z</time>
      </trkpt>
      <trkpt lat="45.29871" lon="0.56438">
        <ele>135</ele>
        <time>2016-06-21T13:39:42Z</time>
      </trkpt>
      <trkpt lat="45.2987" lon="0.56432">
        <ele>136</ele>
        <time>2016-06-21T13:39:46Z</time>
      </trkpt>
      <trkpt lat="45.29868" lon="0.56426">
        <ele>135</ele>
        <time>2016-06-21T13:39:50Z</time>
      </trkpt>
      <trkpt lat="45.29866" lon="0.56421">
        <ele>135</ele>
        <time>2016-06-21T13:39:54Z</time>
      </trkpt>
      <trkpt lat="45.29864" lon="0.56413">
        <ele>135</ele>
        <time>2016-06-21T13:39:59Z</time>
      </trkpt>
      <trkpt lat="45.29863" lon="0.56407">
        <ele>135</ele>
        <time>2016-06-21T13:40:03Z</time>
      </trkpt>
      <trkpt lat="45.2986" lon="0.564">
        <ele>135</ele>
        <time>2016-06-21T13:40:08Z</time>
      </trkpt>
      <trkpt lat="45.29859" lon="0.56393">
        <ele>135</ele>
        <time>2016-06-21T13:40:13Z</time>
      </trkpt>
      <trkpt lat="45.29859" lon="0.56388">
        <ele>135</ele>
        <time>2016-06-21T13:40:17Z</time>
      </trkpt>
      <trkpt lat="45.29859" lon="0.5638">
        <ele>135</ele>
        <time>2016-06-21T13:40:22Z</time>
      </trkpt>
      <trkpt lat="45.29857" lon="0.56374">
        <ele>135</ele>
        <time>2016-06-21T13:40:26Z</time>
      </trkpt>
      <trkpt lat="45.29855" lon="0.56367">
        <ele>133</ele>
        <time>2016-06-21T13:40:31Z</time>
      </trkpt>
      <trkpt lat="45.29854" lon="0.56361">
        <ele>134</ele>
        <time>2016-06-21T13:40:36Z</time>
      </trkpt>
      <trkpt lat="45.29852" lon="0.56354">
        <ele>134</ele>
        <time>2016-06-21T13:40:41Z</time>
      </trkpt>
      <trkpt lat="45.2985" lon="0.56349">
        <ele>134</ele>
        <time>2016-06-21T13:40:46Z</time>
      </trkpt>
      <trkpt lat="45.29848" lon="0.56344">
        <ele>134</ele>
        <time>2016-06-21T13:40:50Z</time>
      </trkpt>
      <trkpt lat="45.29848" lon="0.56338">
        <ele>134</ele>
        <time>2016-06-21T13:40:54Z</time>
      </trkpt>
      <trkpt lat="45.29846" lon="0.56333">
        <ele>134</ele>
        <time>2016-06-21T13:40:58Z</time>
      </trkpt>
      <trkpt lat="45.29845" lon="0.56326">
        <ele>134</ele>
        <time>2016-06-21T13:41:03Z</time>
      </trkpt>
      <trkpt lat="45.29844" lon="0.5632">
        <ele>134</ele>
        <time>2016-06-21T13:41:07Z</time>
      </trkpt>
      <trkpt lat="45.29842" lon="0.56315">
        <ele>134</ele>
        <time>2016-06-21T13:41:11Z</time>
      </trkpt>
      <trkpt lat="45.29841" lon="0.56309">
        <ele>135</ele>
        <time>2016-06-21T13:41:16Z</time>
      </trkpt>
      <trkpt lat="45.29839" lon="0.56304">
        <ele>135</ele>
        <time>2016-06-21T13:41:20Z</time>
      </trkpt>
      <trkpt lat="45.29837" lon="0.56298">
        <ele>135</ele>
        <time>2016-06-21T13:41:24Z</time>
      </trkpt>
      <trkpt lat="45.29837" lon="0.56292">
        <ele>136</ele>
        <time>2016-06-21T13:41:29Z</time>
      </trkpt>
      <trkpt lat="45.29835" lon="0.56285">
        <ele>137</ele>
        <time>2016-06-21T13:41:34Z</time>
      </trkpt>
      <trkpt lat="45.29834" lon="0.56278">
        <ele>137</ele>
        <time>2016-06-21T13:41:39Z</time>
      </trkpt>
      <trkpt lat="45.29832" lon="0.56273">
        <ele>137</ele>
        <time>2016-06-21T13:41:43Z</time>
      </trkpt>
      <trkpt lat="45.29831" lon="0.56267">
        <ele>137</ele>
        <time>2016-06-21T13:41:47Z</time>
      </trkpt>
      <trkpt lat="45.29828" lon="0.56261">
        <ele>136</ele>
        <time>2016-06-21T13:41:51Z</time>
      </trkpt>
      <trkpt lat="45.29826" lon="0.56257">
        <ele>137</ele>
        <time>2016-06-21T13:41:55Z</time>
      </trkpt>
      <trkpt lat="45.29824" lon="0.56251">
        <ele>137</ele>
        <time>2016-06-21T13:42:00Z</time>
      </trkpt>
      <trkpt lat="45.29822" lon="0.56244">
        <ele>137</ele>
        <time>2016-06-21T13:42:05Z</time>
      </trkpt>
      <trkpt lat="45.2982" lon="0.56239">
        <ele>136</ele>
        <time>2016-06-21T13:42:09Z</time>
      </trkpt>
      <trkpt lat="45.29817" lon="0.56234">
        <ele>136</ele>
        <time>2016-06-21T13:42:13Z</time>
      </trkpt>
      <trkpt lat="45.29816" lon="0.56228">
        <ele>136</ele>
        <time>2016-06-21T13:42:20Z</time>
      </trkpt>
      <trkpt lat="45.29813" lon="0.56224">
        <ele>136</ele>
        <time>2016-06-21T13:42:30Z</time>
      </trkpt>
      <trkpt lat="45.29812" lon="0.56219">
        <ele>136</ele>
        <time>2016-06-21T13:42:37Z</time>
      </trkpt>
      <trkpt lat="45.29811" lon="0.56213">
        <ele>137</ele>
        <time>2016-06-21T13:42:42Z</time>
      </trkpt>
      <trkpt lat="45.29808" lon="0.56209">
        <ele>137</ele>
        <time>2016-06-21T13:42:47Z</time>
      </trkpt>
      <trkpt lat="45.29805" lon="0.56204">
        <ele>137</ele>
        <time>2016-06-21T13:42:52Z</time>
      </trkpt>
      <trkpt lat="45.29804" lon="0.56198">
        <ele>138</ele>
        <time>2016-06-21T13:42:57Z</time>
      </trkpt>
      <trkpt lat="45.29803" lon="0.56192">
        <ele>139</ele>
        <time>2016-06-21T13:43:02Z</time>
      </trkpt>
      <trkpt lat="45.29802" lon="0.56186">
        <ele>140</ele>
        <time>2016-06-21T13:43:07Z</time>
      </trkpt>
      <trkpt lat="45.298" lon="0.56181">
        <ele>140</ele>
        <time>2016-06-21T13:43:11Z</time>
      </trkpt>
      <trkpt lat="45.29798" lon="0.56175">
        <ele>140</ele>
        <time>2016-06-21T13:43:15Z</time>
      </trkpt>
      <trkpt lat="45.29796" lon="0.5617">
        <ele>142</ele>
        <time>2016-06-21T13:43:21Z</time>
      </trkpt>
      <trkpt lat="45.29793" lon="0.56164">
        <ele>141</ele>
        <time>2016-06-21T13:43:26Z</time>
      </trkpt>
      <trkpt lat="45.29792" lon="0.56159">
        <ele>144</ele>
        <time>2016-06-21T13:43:32Z</time>
      </trkpt>
      <trkpt lat="45.2979" lon="0.56153">
        <ele>144</ele>
        <time>2016-06-21T13:43:37Z</time>
      </trkpt>
      <trkpt lat="45.29789" lon="0.56148">
        <ele>145</ele>
        <time>2016-06-21T13:43:41Z</time>
      </trkpt>
      <trkpt lat="45.29787" lon="0.56143">
        <ele>145</ele>
        <time>2016-06-21T13:43:45Z</time>
      </trkpt>
      <trkpt lat="45.29787" lon="0.56137">
        <ele>146</ele>
        <time>2016-06-21T13:43:51Z</time>
      </trkpt>
      <trkpt lat="45.29784" lon="0.56134">
        <ele>146</ele>
        <time>2016-06-21T13:43:56Z</time>
      </trkpt>
      <trkpt lat="45.29782" lon="0.56128">
        <ele>147</ele>
        <time>2016-06-21T13:44:01Z</time>
      </trkpt>
      <trkpt lat="45.2978" lon="0.56122">
        <ele>147</ele>
        <time>2016-06-21T13:44:06Z</time>
      </trkpt>
      <trkpt lat="45.29779" lon="0.56116">
        <ele>148</ele>
        <time>2016-06-21T13:44:11Z</time>
      </trkpt>
      <trkpt lat="45.29778" lon="0.5611">
        <ele>148</ele>
        <time>2016-06-21T13:44:17Z</time>
      </trkpt>
      <trkpt lat="45.29777" lon="0.56104">
        <ele>149</ele>
        <time>2016-06-21T13:44:23Z</time>
      </trkpt>
      <trkpt lat="45.29778" lon="0.56099">
        <ele>150</ele>
        <time>2016-06-21T13:44:28Z</time>
      </trkpt>
      <trkpt lat="45.29775" lon="0.56096">
        <ele>150</ele>
        <time>2016-06-21T13:44:33Z</time>
      </trkpt>
      <trkpt lat="45.29773" lon="0.56091">
        <ele>150</ele>
        <time>2016-06-21T13:44:37Z</time>
      </trkpt>
      <trkpt lat="45.29773" lon="0.56084">
        <ele>150</ele>
        <time>2016-06-21T13:44:41Z</time>
      </trkpt>
      <trkpt lat="45.29772" lon="0.56079">
        <ele>150</ele>
        <time>2016-06-21T13:44:45Z</time>
      </trkpt>
      <trkpt lat="45.29774" lon="0.56074">
        <ele>152</ele>
        <time>2016-06-21T13:44:50Z</time>
      </trkpt>
      <trkpt lat="45.29775" lon="0.56067">
        <ele>155</ele>
        <time>2016-06-21T13:44:55Z</time>
      </trkpt>
      <trkpt lat="45.29776" lon="0.56062">
        <ele>157</ele>
        <time>2016-06-21T13:45:01Z</time>
      </trkpt>
      <trkpt lat="45.29773" lon="0.56056">
        <ele>156</ele>
        <time>2016-06-21T13:45:06Z</time>
      </trkpt>
      <trkpt lat="45.29772" lon="0.56051">
        <ele>157</ele>
        <time>2016-06-21T13:45:11Z</time>
      </trkpt>
      <trkpt lat="45.2977" lon="0.56043">
        <ele>158</ele>
        <time>2016-06-21T13:45:15Z</time>
      </trkpt>
      <trkpt lat="45.2977" lon="0.56037">
        <ele>161</ele>
        <time>2016-06-21T13:45:19Z</time>
      </trkpt>
      <trkpt lat="45.2977" lon="0.56031">
        <ele>162</ele>
        <time>2016-06-21T13:45:24Z</time>
      </trkpt>
      <trkpt lat="45.29773" lon="0.56027">
        <ele>164</ele>
        <time>2016-06-21T13:45:30Z</time>
      </trkpt>
      <trkpt lat="45.2977" lon="0.5602">
        <ele>163</ele>
        <time>2016-06-21T13:45:34Z</time>
      </trkpt>
      <trkpt lat="45.2976" lon="0.56016">
        <ele>156</ele>
        <time>2016-06-21T13:45:39Z</time>
      </trkpt>
      <trkpt lat="45.29766" lon="0.56011">
        <ele>163</ele>
        <time>2016-06-21T13:45:43Z</time>
      </trkpt>
      <trkpt lat="45.29761" lon="0.56008">
        <ele>163</ele>
        <time>2016-06-21T13:45:47Z</time>
      </trkpt>
      <trkpt lat="45.29761" lon="0.56002">
        <ele>163</ele>
        <time>2016-06-21T13:45:52Z</time>
      </trkpt>
      <trkpt lat="45.29759" lon="0.55996">
        <ele>162</ele>
        <time>2016-06-21T13:45:56Z</time>
      </trkpt>
      <trkpt lat="45.29758" lon="0.55991">
        <ele>163</ele>
        <time>2016-06-21T13:46:02Z</time>
      </trkpt>
      <trkpt lat="45.29757" lon="0.55984">
        <ele>163</ele>
        <time>2016-06-21T13:46:06Z</time>
      </trkpt>
      <trkpt lat="45.29754" lon="0.55977">
        <ele>164</ele>
        <time>2016-06-21T13:46:11Z</time>
      </trkpt>
      <trkpt lat="45.2975" lon="0.55977">
        <ele>163</ele>
        <time>2016-06-21T13:46:24Z</time>
      </trkpt>
      <trkpt lat="45.29748" lon="0.55972">
        <ele>162</ele>
        <time>2016-06-21T13:46:30Z</time>
      </trkpt>
      <trkpt lat="45.29747" lon="0.55967">
        <ele>157</ele>
        <time>2016-06-21T13:46:52Z</time>
      </trkpt>
      <trkpt lat="45.29745" lon="0.55961">
        <ele>156</ele>
        <time>2016-06-21T13:47:38Z</time>
      </trkpt>
      <trkpt lat="45.29743" lon="0.55959">
        <ele>155</ele>
        <time>2016-06-21T13:47:45Z</time>
      </trkpt>
      <trkpt lat="45.29745" lon="0.55954">
        <ele>161</ele>
        <time>2016-06-21T13:50:07Z</time>
      </trkpt>
      <trkpt lat="45.29748" lon="0.5595">
        <ele>159</ele>
        <time>2016-06-21T13:50:25Z</time>
      </trkpt>
      <trkpt lat="45.2975" lon="0.55946">
        <ele>158</ele>
        <time>2016-06-21T13:50:29Z</time>
      </trkpt>
      <trkpt lat="45.29751" lon="0.5594">
        <ele>162</ele>
        <time>2016-06-21T13:50:36Z</time>
      </trkpt>
      <trkpt lat="45.2975" lon="0.55932">
        <ele>157</ele>
        <time>2016-06-21T13:50:41Z</time>
      </trkpt>
      <trkpt lat="45.29748" lon="0.55928">
        <ele>160</ele>
        <time>2016-06-21T13:50:46Z</time>
      </trkpt>
      <trkpt lat="45.29744" lon="0.55924">
        <ele>163</ele>
        <time>2016-06-21T13:50:51Z</time>
      </trkpt>
      <trkpt lat="45.29744" lon="0.55917">
        <ele>163</ele>
        <time>2016-06-21T13:50:55Z</time>
      </trkpt>
      <trkpt lat="45.29744" lon="0.55911">
        <ele>159</ele>
        <time>2016-06-21T13:50:59Z</time>
      </trkpt>
      <trkpt lat="45.29741" lon="0.55905">
        <ele>160</ele>
        <time>2016-06-21T13:51:03Z</time>
      </trkpt>
      <trkpt lat="45.29739" lon="0.55898">
        <ele>159</ele>
        <time>2016-06-21T13:51:08Z</time>
      </trkpt>
      <trkpt lat="45.29737" lon="0.55892">
        <ele>157</ele>
        <time>2016-06-21T13:51:13Z</time>
      </trkpt>
      <trkpt lat="45.29733" lon="0.55885">
        <ele>158</ele>
        <time>2016-06-21T13:51:17Z</time>
      </trkpt>
      <trkpt lat="45.29733" lon="0.55876">
        <ele>157</ele>
        <time>2016-06-21T13:51:21Z</time>
      </trkpt>
      <trkpt lat="45.29732" lon="0.55871">
        <ele>156</ele>
        <time>2016-06-21T13:51:25Z</time>
      </trkpt>
      <trkpt lat="45.29728" lon="0.55867">
        <ele>156</ele>
        <time>2016-06-21T13:51:29Z</time>
      </trkpt>
      <trkpt lat="45.29728" lon="0.55859">
        <ele>156</ele>
        <time>2016-06-21T13:51:33Z</time>
      </trkpt>
      <trkpt lat="45.29726" lon="0.55853">
        <ele>158</ele>
        <time>2016-06-21T13:51:38Z</time>
      </trkpt>
      <trkpt lat="45.2972" lon="0.55844">
        <ele>155</ele>
        <time>2016-06-21T13:51:43Z</time>
      </trkpt>
      <trkpt lat="45.29717" lon="0.55836">
        <ele>154</ele>
        <time>2016-06-21T13:51:47Z</time>
      </trkpt>
      <trkpt lat="45.29713" lon="0.55827">
        <ele>155</ele>
        <time>2016-06-21T13:51:52Z</time>
      </trkpt>
      <trkpt lat="45.29718" lon="0.5582">
        <ele>158</ele>
        <time>2016-06-21T13:51:57Z</time>
      </trkpt>
      <trkpt lat="45.29718" lon="0.55815">
        <ele>160</ele>
        <time>2016-06-21T13:52:01Z</time>
      </trkpt>
      <trkpt lat="45.29719" lon="0.5581">
        <ele>162</ele>
        <time>2016-06-21T13:52:05Z</time>
      </trkpt>
      <trkpt lat="45.29717" lon="0.55804">
        <ele>161</ele>
        <time>2016-06-21T13:52:09Z</time>
      </trkpt>
      <trkpt lat="45.29711" lon="0.55798">
        <ele>160</ele>
        <time>2016-06-21T13:52:13Z</time>
      </trkpt>
      <trkpt lat="45.29706" lon="0.55791">
        <ele>158</ele>
        <time>2016-06-21T13:52:17Z</time>
      </trkpt>
      <trkpt lat="45.29702" lon="0.55787">
        <ele>157</ele>
        <time>2016-06-21T13:52:21Z</time>
      </trkpt>
      <trkpt lat="45.297" lon="0.55781">
        <ele>157</ele>
        <time>2016-06-21T13:52:26Z</time>
      </trkpt>
      <trkpt lat="45.29699" lon="0.55775">
        <ele>157</ele>
        <time>2016-06-21T13:52:31Z</time>
      </trkpt>
      <trkpt lat="45.29698" lon="0.5577">
        <ele>159</ele>
        <time>2016-06-21T13:52:35Z</time>
      </trkpt>
      <trkpt lat="45.29695" lon="0.55765">
        <ele>158</ele>
        <time>2016-06-21T13:52:39Z</time>
      </trkpt>
      <trkpt lat="45.29693" lon="0.5576">
        <ele>157</ele>
        <time>2016-06-21T13:52:43Z</time>
      </trkpt>
      <trkpt lat="45.29691" lon="0.55753">
        <ele>157</ele>
        <time>2016-06-21T13:52:47Z</time>
      </trkpt>
      <trkpt lat="45.29689" lon="0.55746">
        <ele>158</ele>
        <time>2016-06-21T13:52:51Z</time>
      </trkpt>
      <trkpt lat="45.29685" lon="0.5574">
        <ele>156</ele>
        <time>2016-06-21T13:52:55Z</time>
      </trkpt>
      <trkpt lat="45.29682" lon="0.55734">
        <ele>156</ele>
        <time>2016-06-21T13:52:59Z</time>
      </trkpt>
      <trkpt lat="45.29678" lon="0.55729">
        <ele>155</ele>
        <time>2016-06-21T13:53:03Z</time>
      </trkpt>
      <trkpt lat="45.29676" lon="0.55723">
        <ele>155</ele>
        <time>2016-06-21T13:53:08Z</time>
      </trkpt>
      <trkpt lat="45.29673" lon="0.55716">
        <ele>156</ele>
        <time>2016-06-21T13:53:12Z</time>
      </trkpt>
      <trkpt lat="45.29672" lon="0.55711">
        <ele>155</ele>
        <time>2016-06-21T13:53:16Z</time>
      </trkpt>
      <trkpt lat="45.29668" lon="0.55705">
        <ele>155</ele>
        <time>2016-06-21T13:53:20Z</time>
      </trkpt>
      <trkpt lat="45.29667" lon="0.557">
        <ele>155</ele>
        <time>2016-06-21T13:53:24Z</time>
      </trkpt>
      <trkpt lat="45.29664" lon="0.55695">
        <ele>155</ele>
        <time>2016-06-21T13:53:28Z</time>
      </trkpt>
      <trkpt lat="45.29657" lon="0.55689">
        <ele>151</ele>
        <time>2016-06-21T13:53:33Z</time>
      </trkpt>
      <trkpt lat="45.29652" lon="0.55683">
        <ele>151</ele>
        <time>2016-06-21T13:53:38Z</time>
      </trkpt>
      <trkpt lat="45.2965" lon="0.55676">
        <ele>150</ele>
        <time>2016-06-21T13:53:43Z</time>
      </trkpt>
      <trkpt lat="45.29647" lon="0.55669">
        <ele>151</ele>
        <time>2016-06-21T13:53:48Z</time>
      </trkpt>
      <trkpt lat="45.29643" lon="0.55665">
        <ele>150</ele>
        <time>2016-06-21T13:53:52Z</time>
      </trkpt>
      <trkpt lat="45.29643" lon="0.55656">
        <ele>151</ele>
        <time>2016-06-21T13:53:57Z</time>
      </trkpt>
      <trkpt lat="45.29642" lon="0.5565">
        <ele>151</ele>
        <time>2016-06-21T13:54:02Z</time>
      </trkpt>
      <trkpt lat="45.29637" lon="0.55644">
        <ele>151</ele>
        <time>2016-06-21T13:54:07Z</time>
      </trkpt>
      <trkpt lat="45.29631" lon="0.55638">
        <ele>150</ele>
        <time>2016-06-21T13:54:11Z</time>
      </trkpt>
      <trkpt lat="45.29629" lon="0.55631">
        <ele>150</ele>
        <time>2016-06-21T13:54:16Z</time>
      </trkpt>
      <trkpt lat="45.29628" lon="0.55626">
        <ele>152</ele>
        <time>2016-06-21T13:54:20Z</time>
      </trkpt>
      <trkpt lat="45.29626" lon="0.55621">
        <ele>153</ele>
        <time>2016-06-21T13:54:24Z</time>
      </trkpt>
      <trkpt lat="45.29626" lon="0.55614">
        <ele>154</ele>
        <time>2016-06-21T13:54:28Z</time>
      </trkpt>
      <trkpt lat="45.29626" lon="0.55607">
        <ele>154</ele>
        <time>2016-06-21T13:54:32Z</time>
      </trkpt>
      <trkpt lat="45.29624" lon="0.55601">
        <ele>152</ele>
        <time>2016-06-21T13:54:36Z</time>
      </trkpt>
      <trkpt lat="45.2961" lon="0.55596">
        <ele>147</ele>
        <time>2016-06-21T13:54:41Z</time>
      </trkpt>
      <trkpt lat="45.29607" lon="0.55591">
        <ele>147</ele>
        <time>2016-06-21T13:54:45Z</time>
      </trkpt>
      <trkpt lat="45.29604" lon="0.55586">
        <ele>148</ele>
        <time>2016-06-21T13:54:50Z</time>
      </trkpt>
      <trkpt lat="45.29605" lon="0.55577">
        <ele>149</ele>
        <time>2016-06-21T13:54:55Z</time>
      </trkpt>
      <trkpt lat="45.29603" lon="0.55571">
        <ele>149</ele>
        <time>2016-06-21T13:54:59Z</time>
      </trkpt>
      <trkpt lat="45.29599" lon="0.55565">
        <ele>148</ele>
        <time>2016-06-21T13:55:03Z</time>
      </trkpt>
      <trkpt lat="45.29595" lon="0.55558">
        <ele>147</ele>
        <time>2016-06-21T13:55:08Z</time>
      </trkpt>
      <trkpt lat="45.29592" lon="0.5555">
        <ele>146</ele>
        <time>2016-06-21T13:55:12Z</time>
      </trkpt>
      <trkpt lat="45.29589" lon="0.55544">
        <ele>144</ele>
        <time>2016-06-21T13:55:16Z</time>
      </trkpt>
      <trkpt lat="45.29587" lon="0.55538">
        <ele>143</ele>
        <time>2016-06-21T13:55:20Z</time>
      </trkpt>
      <trkpt lat="45.29585" lon="0.5553">
        <ele>143</ele>
        <time>2016-06-21T13:55:25Z</time>
      </trkpt>
      <trkpt lat="45.29584" lon="0.55523">
        <ele>143</ele>
        <time>2016-06-21T13:55:30Z</time>
      </trkpt>
      <trkpt lat="45.29581" lon="0.55517">
        <ele>142</ele>
        <time>2016-06-21T13:55:34Z</time>
      </trkpt>
      <trkpt lat="45.29578" lon="0.5551">
        <ele>143</ele>
        <time>2016-06-21T13:55:38Z</time>
      </trkpt>
      <trkpt lat="45.29573" lon="0.55502">
        <ele>142</ele>
        <time>2016-06-21T13:55:43Z</time>
      </trkpt>
      <trkpt lat="45.2957" lon="0.55496">
        <ele>140</ele>
        <time>2016-06-21T13:55:47Z</time>
      </trkpt>
      <trkpt lat="45.29568" lon="0.55491">
        <ele>140</ele>
        <time>2016-06-21T13:55:51Z</time>
      </trkpt>
      <trkpt lat="45.29563" lon="0.55486">
        <ele>141</ele>
        <time>2016-06-21T13:55:55Z</time>
      </trkpt>
      <trkpt lat="45.2956" lon="0.55479">
        <ele>141</ele>
        <time>2016-06-21T13:56:00Z</time>
      </trkpt>
      <trkpt lat="45.29555" lon="0.55472">
        <ele>142</ele>
        <time>2016-06-21T13:56:05Z</time>
      </trkpt>
      <trkpt lat="45.2955" lon="0.55467">
        <ele>142</ele>
        <time>2016-06-21T13:56:09Z</time>
      </trkpt>
      <trkpt lat="45.29545" lon="0.55461">
        <ele>141</ele>
        <time>2016-06-21T13:56:14Z</time>
      </trkpt>
      <trkpt lat="45.29544" lon="0.55456">
        <ele>142</ele>
        <time>2016-06-21T13:56:18Z</time>
      </trkpt>
      <trkpt lat="45.29541" lon="0.55451">
        <ele>142</ele>
        <time>2016-06-21T13:56:22Z</time>
      </trkpt>
      <trkpt lat="45.29537" lon="0.55444">
        <ele>142</ele>
        <time>2016-06-21T13:56:27Z</time>
      </trkpt>
      <trkpt lat="45.29535" lon="0.55438">
        <ele>143</ele>
        <time>2016-06-21T13:56:31Z</time>
      </trkpt>
      <trkpt lat="45.29532" lon="0.55432">
        <ele>144</ele>
        <time>2016-06-21T13:56:35Z</time>
      </trkpt>
      <trkpt lat="45.29526" lon="0.55428">
        <ele>144</ele>
        <time>2016-06-21T13:56:39Z</time>
      </trkpt>
      <trkpt lat="45.29521" lon="0.55424">
        <ele>144</ele>
        <time>2016-06-21T13:56:43Z</time>
      </trkpt>
      <trkpt lat="45.29516" lon="0.5542">
        <ele>145</ele>
        <time>2016-06-21T13:56:48Z</time>
      </trkpt>
      <trkpt lat="45.2951" lon="0.55415">
        <ele>144</ele>
        <time>2016-06-21T13:56:53Z</time>
      </trkpt>
      <trkpt lat="45.29504" lon="0.5541">
        <ele>143</ele>
        <time>2016-06-21T13:56:57Z</time>
      </trkpt>
      <trkpt lat="45.29499" lon="0.55407">
        <ele>143</ele>
        <time>2016-06-21T13:57:01Z</time>
      </trkpt>
      <trkpt lat="45.29495" lon="0.55402">
        <ele>142</ele>
        <time>2016-06-21T13:57:06Z</time>
      </trkpt>
      <trkpt lat="45.29492" lon="0.55398">
        <ele>144</ele>
        <time>2016-06-21T13:57:11Z</time>
      </trkpt>
      <trkpt lat="45.29487" lon="0.55393">
        <ele>143</ele>
        <time>2016-06-21T13:57:16Z</time>
      </trkpt>
      <trkpt lat="45.29485" lon="0.55388">
        <ele>144</ele>
        <time>2016-06-21T13:57:20Z</time>
      </trkpt>
      <trkpt lat="45.2948" lon="0.55386">
        <ele>144</ele>
        <time>2016-06-21T13:57:24Z</time>
      </trkpt>
      <trkpt lat="45.29474" lon="0.55381">
        <ele>140</ele>
        <time>2016-06-21T13:57:28Z</time>
      </trkpt>
      <trkpt lat="45.29471" lon="0.55379">
        <ele>137</ele>
        <time>2016-06-21T13:57:33Z</time>
      </trkpt>
      <trkpt lat="45.29465" lon="0.55376">
        <ele>136</ele>
        <time>2016-06-21T13:57:38Z</time>
      </trkpt>
      <trkpt lat="45.29463" lon="0.55372">
        <ele>138</ele>
        <time>2016-06-21T13:57:45Z</time>
      </trkpt>
      <trkpt lat="45.29459" lon="0.55366">
        <ele>137</ele>
        <time>2016-06-21T13:57:49Z</time>
      </trkpt>
      <trkpt lat="45.29458" lon="0.55359">
        <ele>138</ele>
        <time>2016-06-21T13:57:54Z</time>
      </trkpt>
      <trkpt lat="45.29456" lon="0.55354">
        <ele>140</ele>
        <time>2016-06-21T13:57:59Z</time>
      </trkpt>
      <trkpt lat="45.29451" lon="0.55347">
        <ele>139</ele>
        <time>2016-06-21T13:58:04Z</time>
      </trkpt>
      <trkpt lat="45.29447" lon="0.55341">
        <ele>140</ele>
        <time>2016-06-21T13:58:08Z</time>
      </trkpt>
      <trkpt lat="45.29446" lon="0.55334">
        <ele>142</ele>
        <time>2016-06-21T13:58:13Z</time>
      </trkpt>
      <trkpt lat="45.29444" lon="0.55328">
        <ele>140</ele>
        <time>2016-06-21T13:58:17Z</time>
      </trkpt>
      <trkpt lat="45.29438" lon="0.55322">
        <ele>142</ele>
        <time>2016-06-21T13:58:22Z</time>
      </trkpt>
      <trkpt lat="45.29428" lon="0.55314">
        <ele>142</ele>
        <time>2016-06-21T13:58:27Z</time>
      </trkpt>
      <trkpt lat="45.29429" lon="0.55308">
        <ele>145</ele>
        <time>2016-06-21T13:58:32Z</time>
      </trkpt>
      <trkpt lat="45.29429" lon="0.55303">
        <ele>144</ele>
        <time>2016-06-21T13:58:37Z</time>
      </trkpt>
      <trkpt lat="45.29425" lon="0.55295">
        <ele>146</ele>
        <time>2016-06-21T13:58:42Z</time>
      </trkpt>
      <trkpt lat="45.29424" lon="0.55288">
        <ele>148</ele>
        <time>2016-06-21T13:58:47Z</time>
      </trkpt>
      <trkpt lat="45.2942" lon="0.55286">
        <ele>148</ele>
        <time>2016-06-21T13:58:51Z</time>
      </trkpt>
      <trkpt lat="45.29415" lon="0.55281">
        <ele>145</ele>
        <time>2016-06-21T13:58:56Z</time>
      </trkpt>
      <trkpt lat="45.29411" lon="0.55277">
        <ele>146</ele>
        <time>2016-06-21T13:59:00Z</time>
      </trkpt>
      <trkpt lat="45.29407" lon="0.55271">
        <ele>147</ele>
        <time>2016-06-21T13:59:04Z</time>
      </trkpt>
      <trkpt lat="45.29402" lon="0.55264">
        <ele>150</ele>
        <time>2016-06-21T13:59:09Z</time>
      </trkpt>
      <trkpt lat="45.29396" lon="0.55256">
        <ele>150</ele>
        <time>2016-06-21T13:59:13Z</time>
      </trkpt>
      <trkpt lat="45.29392" lon="0.5525">
        <ele>147</ele>
        <time>2016-06-21T13:59:17Z</time>
      </trkpt>
      <trkpt lat="45.29388" lon="0.55245">
        <ele>143</ele>
        <time>2016-06-21T13:59:21Z</time>
      </trkpt>
      <trkpt lat="45.29384" lon="0.55244">
        <ele>141</ele>
        <time>2016-06-21T13:59:31Z</time>
      </trkpt>
      <trkpt lat="45.29379" lon="0.55243">
        <ele>139</ele>
        <time>2016-06-21T14:01:02Z</time>
      </trkpt>
      <trkpt lat="45.29375" lon="0.5524">
        <ele>141</ele>
        <time>2016-06-21T14:01:31Z</time>
      </trkpt>
      <trkpt lat="45.29371" lon="0.55241">
        <ele>137</ele>
        <time>2016-06-21T14:01:42Z</time>
      </trkpt>
      <trkpt lat="45.29375" lon="0.55239">
        <ele>139</ele>
        <time>2016-06-21T14:02:01Z</time>
      </trkpt>
      <trkpt lat="45.29377" lon="0.55232">
        <ele>136</ele>
        <time>2016-06-21T14:02:06Z</time>
      </trkpt>
      <trkpt lat="45.29379" lon="0.55227">
        <ele>135</ele>
        <time>2016-06-21T14:02:17Z</time>
      </trkpt>
      <trkpt lat="45.29382" lon="0.55223">
        <ele>137</ele>
        <time>2016-06-21T14:02:21Z</time>
      </trkpt>
      <trkpt lat="45.29386" lon="0.5522">
        <ele>139</ele>
        <time>2016-06-21T14:02:26Z</time>
      </trkpt>
      <trkpt lat="45.29391" lon="0.55218">
        <ele>138</ele>
        <time>2016-06-21T14:02:30Z</time>
      </trkpt>
      <trkpt lat="45.29395" lon="0.55216">
        <ele>137</ele>
        <time>2016-06-21T14:02:34Z</time>
      </trkpt>
      <trkpt lat="45.29396" lon="0.5521">
        <ele>139</ele>
        <time>2016-06-21T14:02:39Z</time>
      </trkpt>
      <trkpt lat="45.294" lon="0.55199">
        <ele>138</ele>
        <time>2016-06-21T14:02:43Z</time>
      </trkpt>
      <trkpt lat="45.29405" lon="0.55191">
        <ele>140</ele>
        <time>2016-06-21T14:02:47Z</time>
      </trkpt>
      <trkpt lat="45.29411" lon="0.55183">
        <ele>138</ele>
        <time>2016-06-21T14:02:52Z</time>
      </trkpt>
      <trkpt lat="45.29413" lon="0.55177">
        <ele>135</ele>
        <time>2016-06-21T14:02:58Z</time>
      </trkpt>
      <trkpt lat="45.29415" lon="0.55174">
        <ele>140</ele>
        <time>2016-06-21T14:03:03Z</time>
      </trkpt>
      <trkpt lat="45.29419" lon="0.55167">
        <ele>137</ele>
        <time>2016-06-21T14:03:08Z</time>
      </trkpt>
      <trkpt lat="45.29421" lon="0.55164">
        <ele>136</ele>
        <time>2016-06-21T14:03:14Z</time>
      </trkpt>
      <trkpt lat="45.29424" lon="0.55159">
        <ele>136</ele>
        <time>2016-06-21T14:03:18Z</time>
      </trkpt>
      <trkpt lat="45.29428" lon="0.55155">
        <ele>138</ele>
        <time>2016-06-21T14:03:22Z</time>
      </trkpt>
      <trkpt lat="45.2943" lon="0.5515">
        <ele>135</ele>
        <time>2016-06-21T14:03:27Z</time>
      </trkpt>
      <trkpt lat="45.29432" lon="0.55145">
        <ele>131</ele>
        <time>2016-06-21T14:03:38Z</time>
      </trkpt>
      <trkpt lat="45.29436" lon="0.55137">
        <ele>140</ele>
        <time>2016-06-21T14:03:42Z</time>
      </trkpt>
      <trkpt lat="45.29439" lon="0.55131">
        <ele>141</ele>
        <time>2016-06-21T14:03:46Z</time>
      </trkpt>
      <trkpt lat="45.29445" lon="0.55124">
        <ele>143</ele>
        <time>2016-06-21T14:03:50Z</time>
      </trkpt>
      <trkpt lat="45.29448" lon="0.5512">
        <ele>146</ele>
        <time>2016-06-21T14:03:55Z</time>
      </trkpt>
      <trkpt lat="45.29453" lon="0.55115">
        <ele>144</ele>
        <time>2016-06-21T14:03:59Z</time>
      </trkpt>
      <trkpt lat="45.29457" lon="0.55103">
        <ele>140</ele>
        <time>2016-06-21T14:04:04Z</time>
      </trkpt>
      <trkpt lat="45.29459" lon="0.55098">
        <ele>140</ele>
        <time>2016-06-21T14:04:10Z</time>
      </trkpt>
      <trkpt lat="45.2946" lon="0.55087">
        <ele>138</ele>
        <time>2016-06-21T14:04:14Z</time>
      </trkpt>
      <trkpt lat="45.29462" lon="0.5508">
        <ele>136</ele>
        <time>2016-06-21T14:04:19Z</time>
      </trkpt>
      <trkpt lat="45.29465" lon="0.55077">
        <ele>138</ele>
        <time>2016-06-21T14:04:23Z</time>
      </trkpt>
      <trkpt lat="45.29467" lon="0.55072">
        <ele>137</ele>
        <time>2016-06-21T14:04:27Z</time>
      </trkpt>
      <trkpt lat="45.29469" lon="0.55063">
        <ele>135</ele>
        <time>2016-06-21T14:04:31Z</time>
      </trkpt>
      <trkpt lat="45.29474" lon="0.55053">
        <ele>131</ele>
        <time>2016-06-21T14:04:36Z</time>
      </trkpt>
      <trkpt lat="45.29476" lon="0.55048">
        <ele>131</ele>
        <time>2016-06-21T14:04:46Z</time>
      </trkpt>
      <trkpt lat="45.2948" lon="0.55042">
        <ele>127</ele>
        <time>2016-06-21T14:04:50Z</time>
      </trkpt>
      <trkpt lat="45.29482" lon="0.55034">
        <ele>126</ele>
        <time>2016-06-21T14:04:55Z</time>
      </trkpt>
      <trkpt lat="45.29482" lon="0.55025">
        <ele>126</ele>
        <time>2016-06-21T14:04:59Z</time>
      </trkpt>
      <trkpt lat="45.29485" lon="0.55018">
        <ele>124</ele>
        <time>2016-06-21T14:05:03Z</time>
      </trkpt>
      <trkpt lat="45.29488" lon="0.55013">
        <ele>125</ele>
        <time>2016-06-21T14:05:07Z</time>
      </trkpt>
      <trkpt lat="45.2949" lon="0.55009">
        <ele>126</ele>
        <time>2016-06-21T14:05:12Z</time>
      </trkpt>
      <trkpt lat="45.29493" lon="0.55004">
        <ele>128</ele>
        <time>2016-06-21T14:05:17Z</time>
      </trkpt>
      <trkpt lat="45.29497" lon="0.55001">
        <ele>130</ele>
        <time>2016-06-21T14:05:23Z</time>
      </trkpt>
      <trkpt lat="45.29501" lon="0.55001">
        <ele>133</ele>
        <time>2016-06-21T14:05:30Z</time>
      </trkpt>
      <trkpt lat="45.29504" lon="0.54998">
        <ele>133</ele>
        <time>2016-06-21T14:05:36Z</time>
      </trkpt>
      <trkpt lat="45.29509" lon="0.54994">
        <ele>132</ele>
        <time>2016-06-21T14:05:41Z</time>
      </trkpt>
      <trkpt lat="45.29512" lon="0.54991">
        <ele>131</ele>
        <time>2016-06-21T14:05:47Z</time>
      </trkpt>
      <trkpt lat="45.29518" lon="0.54988">
        <ele>133</ele>
        <time>2016-06-21T14:05:52Z</time>
      </trkpt>
      <trkpt lat="45.29521" lon="0.54984">
        <ele>135</ele>
        <time>2016-06-21T14:05:58Z</time>
      </trkpt>
      <trkpt lat="45.29526" lon="0.54983">
        <ele>135</ele>
        <time>2016-06-21T14:06:09Z</time>
      </trkpt>
      <trkpt lat="45.2953" lon="0.54983">
        <ele>138</ele>
        <time>2016-06-21T14:06:14Z</time>
      </trkpt>
      <trkpt lat="45.29534" lon="0.54981">
        <ele>135</ele>
        <time>2016-06-21T14:06:22Z</time>
      </trkpt>
      <trkpt lat="45.29539" lon="0.54975">
        <ele>129</ele>
        <time>2016-06-21T14:06:26Z</time>
      </trkpt>
      <trkpt lat="45.29543" lon="0.54973">
        <ele>127</ele>
        <time>2016-06-21T14:06:33Z</time>
      </trkpt>
      <trkpt lat="45.29548" lon="0.5497">
        <ele>128</ele>
        <time>2016-06-21T14:06:37Z</time>
      </trkpt>
      <trkpt lat="45.29552" lon="0.54968">
        <ele>129</ele>
        <time>2016-06-21T14:06:41Z</time>
      </trkpt>
      <trkpt lat="45.29555" lon="0.54966">
        <ele>134</ele>
        <time>2016-06-21T14:06:45Z</time>
      </trkpt>
      <trkpt lat="45.2956" lon="0.54964">
        <ele>135</ele>
        <time>2016-06-21T14:06:50Z</time>
      </trkpt>
      <trkpt lat="45.29564" lon="0.54964">
        <ele>136</ele>
        <time>2016-06-21T14:06:55Z</time>
      </trkpt>
      <trkpt lat="45.29568" lon="0.54964">
        <ele>138</ele>
        <time>2016-06-21T14:07:07Z</time>
      </trkpt>
      <trkpt lat="45.29573" lon="0.54963">
        <ele>140</ele>
        <time>2016-06-21T14:07:11Z</time>
      </trkpt>
      <trkpt lat="45.29581" lon="0.5496">
        <ele>138</ele>
        <time>2016-06-21T14:07:16Z</time>
      </trkpt>
      <trkpt lat="45.29588" lon="0.54958">
        <ele>139</ele>
        <time>2016-06-21T14:07:20Z</time>
      </trkpt>
      <trkpt lat="45.29593" lon="0.54956">
        <ele>142</ele>
        <time>2016-06-21T14:07:24Z</time>
      </trkpt>
      <trkpt lat="45.29599" lon="0.54954">
        <ele>141</ele>
        <time>2016-06-21T14:07:28Z</time>
      </trkpt>
      <trkpt lat="45.29603" lon="0.54953">
        <ele>141</ele>
        <time>2016-06-21T14:07:33Z</time>
      </trkpt>
      <trkpt lat="45.29607" lon="0.54954">
        <ele>141</ele>
        <time>2016-06-21T14:07:41Z</time>
      </trkpt>
      <trkpt lat="45.29612" lon="0.54949">
        <ele>137</ele>
        <time>2016-06-21T14:07:45Z</time>
      </trkpt>
      <trkpt lat="45.29619" lon="0.54949">
        <ele>134</ele>
        <time>2016-06-21T14:07:49Z</time>
      </trkpt>
      <trkpt lat="45.29624" lon="0.54947">
        <ele>132</ele>
        <time>2016-06-21T14:07:53Z</time>
      </trkpt>
      <trkpt lat="45.29628" lon="0.54945">
        <ele>131</ele>
        <time>2016-06-21T14:08:00Z</time>
      </trkpt>
      <trkpt lat="45.29632" lon="0.54944">
        <ele>130</ele>
        <time>2016-06-21T14:08:08Z</time>
      </trkpt>
      <trkpt lat="45.2964" lon="0.54945">
        <ele>127</ele>
        <time>2016-06-21T14:08:13Z</time>
      </trkpt>
      <trkpt lat="45.29644" lon="0.54944">
        <ele>128</ele>
        <time>2016-06-21T14:08:18Z</time>
      </trkpt>
      <trkpt lat="45.29649" lon="0.54943">
        <ele>126</ele>
        <time>2016-06-21T14:08:22Z</time>
      </trkpt>
      <trkpt lat="45.29656" lon="0.54943">
        <ele>126</ele>
        <time>2016-06-21T14:08:27Z</time>
      </trkpt>
      <trkpt lat="45.29661" lon="0.54944">
        <ele>126</ele>
        <time>2016-06-21T14:08:32Z</time>
      </trkpt>
      <trkpt lat="45.29664" lon="0.54945">
        <ele>125</ele>
        <time>2016-06-21T14:08:42Z</time>
      </trkpt>
      <trkpt lat="45.2967" lon="0.54947">
        <ele>129</ele>
        <time>2016-06-21T14:08:46Z</time>
      </trkpt>
      <trkpt lat="45.29676" lon="0.54946">
        <ele>130</ele>
        <time>2016-06-21T14:08:50Z</time>
      </trkpt>
      <trkpt lat="45.29682" lon="0.54947">
        <ele>134</ele>
        <time>2016-06-21T14:08:55Z</time>
      </trkpt>
      <trkpt lat="45.29689" lon="0.54943">
        <ele>132</ele>
        <time>2016-06-21T14:08:59Z</time>
      </trkpt>
      <trkpt lat="45.29695" lon="0.54943">
        <ele>132</ele>
        <time>2016-06-21T14:09:04Z</time>
      </trkpt>
      <trkpt lat="45.29701" lon="0.54939">
        <ele>129</ele>
        <time>2016-06-21T14:09:08Z</time>
      </trkpt>
      <trkpt lat="45.29704" lon="0.54939">
        <ele>130</ele>
        <time>2016-06-21T14:09:12Z</time>
      </trkpt>
      <trkpt lat="45.29707" lon="0.54936">
        <ele>129</ele>
        <time>2016-06-21T14:09:18Z</time>
      </trkpt>
      <trkpt lat="45.29713" lon="0.54938">
        <ele>129</ele>
        <time>2016-06-21T14:09:22Z</time>
      </trkpt>
      <trkpt lat="45.29719" lon="0.54939">
        <ele>132</ele>
        <time>2016-06-21T14:09:26Z</time>
      </trkpt>
      <trkpt lat="45.29723" lon="0.54938">
        <ele>132</ele>
        <time>2016-06-21T14:09:35Z</time>
      </trkpt>
      <trkpt lat="45.29726" lon="0.54938">
        <ele>132</ele>
        <time>2016-06-21T14:09:39Z</time>
      </trkpt>
      <trkpt lat="45.29733" lon="0.54936">
        <ele>128</ele>
        <time>2016-06-21T14:09:44Z</time>
      </trkpt>
      <trkpt lat="45.2974" lon="0.54934">
        <ele>126</ele>
        <time>2016-06-21T14:09:49Z</time>
      </trkpt>
      <trkpt lat="45.29747" lon="0.54935">
        <ele>126</ele>
        <time>2016-06-21T14:09:53Z</time>
      </trkpt>
      <trkpt lat="45.29754" lon="0.54936">
        <ele>129</ele>
        <time>2016-06-21T14:09:58Z</time>
      </trkpt>
      <trkpt lat="45.29764" lon="0.54934">
        <ele>129</ele>
        <time>2016-06-21T14:10:03Z</time>
      </trkpt>
      <trkpt lat="45.29768" lon="0.54935">
        <ele>130</ele>
        <time>2016-06-21T14:10:07Z</time>
      </trkpt>
      <trkpt lat="45.29774" lon="0.54934">
        <ele>133</ele>
        <time>2016-06-21T14:10:12Z</time>
      </trkpt>
      <trkpt lat="45.29779" lon="0.54935">
        <ele>132</ele>
        <time>2016-06-21T14:10:16Z</time>
      </trkpt>
      <trkpt lat="45.29787" lon="0.54929">
        <ele>127</ele>
        <time>2016-06-21T14:10:20Z</time>
      </trkpt>
      <trkpt lat="45.29789" lon="0.54926">
        <ele>123</ele>
        <time>2016-06-21T14:10:28Z</time>
      </trkpt>
      <trkpt lat="45.29795" lon="0.54928">
        <ele>123</ele>
        <time>2016-06-21T14:10:32Z</time>
      </trkpt>
      <trkpt lat="45.29802" lon="0.5493">
        <ele>125</ele>
        <time>2016-06-21T14:10:36Z</time>
      </trkpt>
      <trkpt lat="45.29807" lon="0.54932">
        <ele>127</ele>
        <time>2016-06-21T14:10:40Z</time>
      </trkpt>
      <trkpt lat="45.29812" lon="0.54933">
        <ele>127</ele>
        <time>2016-06-21T14:10:45Z</time>
      </trkpt>
      <trkpt lat="45.29819" lon="0.54935">
        <ele>127</ele>
        <time>2016-06-21T14:10:49Z</time>
      </trkpt>
      <trkpt lat="45.29825" lon="0.54934">
        <ele>128</ele>
        <time>2016-06-21T14:10:54Z</time>
      </trkpt>
      <trkpt lat="45.29831" lon="0.54936">
        <ele>130</ele>
        <time>2016-06-21T14:10:58Z</time>
      </trkpt>
      <trkpt lat="45.29836" lon="0.54936">
        <ele>130</ele>
        <time>2016-06-21T14:11:02Z</time>
      </trkpt>
      <trkpt lat="45.29842" lon="0.5493">
        <ele>127</ele>
        <time>2016-06-21T14:11:06Z</time>
      </trkpt>
      <trkpt lat="45.29846" lon="0.54933">
        <ele>129</ele>
        <time>2016-06-21T14:11:10Z</time>
      </trkpt>
      <trkpt lat="45.29851" lon="0.54934">
        <ele>130</ele>
        <time>2016-06-21T14:11:14Z</time>
      </trkpt>
      <trkpt lat="45.29855" lon="0.54936">
        <ele>133</ele>
        <time>2016-06-21T14:11:19Z</time>
      </trkpt>
      <trkpt lat="45.29861" lon="0.54934">
        <ele>131</ele>
        <time>2016-06-21T14:11:24Z</time>
      </trkpt>
      <trkpt lat="45.29867" lon="0.54932">
        <ele>128</ele>
        <time>2016-06-21T14:11:28Z</time>
      </trkpt>
      <trkpt lat="45.29875" lon="0.54931">
        <ele>129</ele>
        <time>2016-06-21T14:11:33Z</time>
      </trkpt>
      <trkpt lat="45.29879" lon="0.54931">
        <ele>126</ele>
        <time>2016-06-21T14:11:38Z</time>
      </trkpt>
      <trkpt lat="45.29885" lon="0.54932">
        <ele>127</ele>
        <time>2016-06-21T14:11:42Z</time>
      </trkpt>
      <trkpt lat="45.29889" lon="0.54932">
        <ele>127</ele>
        <time>2016-06-21T14:11:46Z</time>
      </trkpt>
      <trkpt lat="45.29894" lon="0.54933">
        <ele>125</ele>
        <time>2016-06-21T14:11:56Z</time>
      </trkpt>
      <trkpt lat="45.29897" lon="0.54932">
        <ele>124</ele>
        <time>2016-06-21T14:12:00Z</time>
      </trkpt>
      <trkpt lat="45.299" lon="0.54932">
        <ele>125</ele>
        <time>2016-06-21T14:12:04Z</time>
      </trkpt>
      <trkpt lat="45.29907" lon="0.5493">
        <ele>121</ele>
        <time>2016-06-21T14:12:09Z</time>
      </trkpt>
      <trkpt lat="45.29914" lon="0.54931">
        <ele>116</ele>
        <time>2016-06-21T14:12:13Z</time>
      </trkpt>
      <trkpt lat="45.29919" lon="0.5493">
        <ele>116</ele>
        <time>2016-06-21T14:12:17Z</time>
      </trkpt>
      <trkpt lat="45.29926" lon="0.54932">
        <ele>119</ele>
        <time>2016-06-21T14:12:22Z</time>
      </trkpt>
      <trkpt lat="45.2993" lon="0.5493">
        <ele>119</ele>
        <time>2016-06-21T14:12:26Z</time>
      </trkpt>
      <trkpt lat="45.29937" lon="0.5493">
        <ele>120</ele>
        <time>2016-06-21T14:12:31Z</time>
      </trkpt>
      <trkpt lat="45.29944" lon="0.54933">
        <ele>123</ele>
        <time>2016-06-21T14:12:35Z</time>
      </trkpt>
      <trkpt lat="45.29948" lon="0.54936">
        <ele>120</ele>
        <time>2016-06-21T14:12:40Z</time>
      </trkpt>
      <trkpt lat="45.29954" lon="0.54937">
        <ele>122</ele>
        <time>2016-06-21T14:12:44Z</time>
      </trkpt>
      <trkpt lat="45.29962" lon="0.54937">
        <ele>124</ele>
        <time>2016-06-21T14:12:49Z</time>
      </trkpt>
      <trkpt lat="45.29966" lon="0.54937">
        <ele>125</ele>
        <time>2016-06-21T14:12:53Z</time>
      </trkpt>
      <trkpt lat="45.29971" lon="0.54938">
        <ele>122</ele>
        <time>2016-06-21T14:13:00Z</time>
      </trkpt>
      <trkpt lat="45.29975" lon="0.54937">
        <ele>118</ele>
        <time>2016-06-21T14:13:08Z</time>
      </trkpt>
      <trkpt lat="45.29979" lon="0.54938">
        <ele>116</ele>
        <time>2016-06-21T14:13:12Z</time>
      </trkpt>
      <trkpt lat="45.29989" lon="0.54938">
        <ele>112</ele>
        <time>2016-06-21T14:13:17Z</time>
      </trkpt>
      <trkpt lat="45.29994" lon="0.54932">
        <ele>111</ele>
        <time>2016-06-21T14:13:21Z</time>
      </trkpt>
      <trkpt lat="45.30001" lon="0.54925">
        <ele>115</ele>
        <time>2016-06-21T14:13:26Z</time>
      </trkpt>
      <trkpt lat="45.30007" lon="0.54919">
        <ele>117</ele>
        <time>2016-06-21T14:13:30Z</time>
      </trkpt>
      <trkpt lat="45.30007" lon="0.54912">
        <ele>114</ele>
        <time>2016-06-21T14:13:34Z</time>
      </trkpt>
      <trkpt lat="45.30008" lon="0.54906">
        <ele>115</ele>
        <time>2016-06-21T14:13:38Z</time>
      </trkpt>
      <trkpt lat="45.30008" lon="0.54901">
        <ele>114</ele>
        <time>2016-06-21T14:13:42Z</time>
      </trkpt>
      <trkpt lat="45.30007" lon="0.54896">
        <ele>115</ele>
        <time>2016-06-21T14:13:46Z</time>
      </trkpt>
      <trkpt lat="45.30007" lon="0.54889">
        <ele>115</ele>
        <time>2016-06-21T14:13:50Z</time>
      </trkpt>
      <trkpt lat="45.30009" lon="0.54883">
        <ele>116</ele>
        <time>2016-06-21T14:13:54Z</time>
      </trkpt>
      <trkpt lat="45.30009" lon="0.54878">
        <ele>116</ele>
        <time>2016-06-21T14:13:58Z</time>
      </trkpt>
      <trkpt lat="45.30006" lon="0.54872">
        <ele>118</ele>
        <time>2016-06-21T14:14:02Z</time>
      </trkpt>
      <trkpt lat="45.30008" lon="0.54865">
        <ele>117</ele>
        <time>2016-06-21T14:14:06Z</time>
      </trkpt>
      <trkpt lat="45.30008" lon="0.54857">
        <ele>111</ele>
        <time>2016-06-21T14:14:10Z</time>
      </trkpt>
      <trkpt lat="45.30008" lon="0.54851">
        <ele>111</ele>
        <time>2016-06-21T14:14:14Z</time>
      </trkpt>
      <trkpt lat="45.30005" lon="0.54846">
        <ele>115</ele>
        <time>2016-06-21T14:14:18Z</time>
      </trkpt>
      <trkpt lat="45.30003" lon="0.54836">
        <ele>114</ele>
        <time>2016-06-21T14:14:23Z</time>
      </trkpt>
      <trkpt lat="45.30004" lon="0.54831">
        <ele>115</ele>
        <time>2016-06-21T14:14:28Z</time>
      </trkpt>
      <trkpt lat="45.30005" lon="0.54824">
        <ele>112</ele>
        <time>2016-06-21T14:14:33Z</time>
      </trkpt>
      <trkpt lat="45.30005" lon="0.54819">
        <ele>115</ele>
        <time>2016-06-21T14:14:37Z</time>
      </trkpt>
      <trkpt lat="45.30006" lon="0.54804">
        <ele>105</ele>
        <time>2016-06-21T14:14:42Z</time>
      </trkpt>
      <trkpt lat="45.30003" lon="0.548">
        <ele>111</ele>
        <time>2016-06-21T14:14:47Z</time>
      </trkpt>
      <trkpt lat="45.30004" lon="0.54791">
        <ele>109</ele>
        <time>2016-06-21T14:14:51Z</time>
      </trkpt>
      <trkpt lat="45.3" lon="0.54785">
        <ele>110</ele>
        <time>2016-06-21T14:14:56Z</time>
      </trkpt>
      <trkpt lat="45.29998" lon="0.54779">
        <ele>112</ele>
        <time>2016-06-21T14:15:00Z</time>
      </trkpt>
      <trkpt lat="45.29995" lon="0.54773">
        <ele>115</ele>
        <time>2016-06-21T14:15:04Z</time>
      </trkpt>
      <trkpt lat="45.29996" lon="0.54767">
        <ele>116</ele>
        <time>2016-06-21T14:15:09Z</time>
      </trkpt>
      <trkpt lat="45.2999" lon="0.54761">
        <ele>115</ele>
        <time>2016-06-21T14:15:14Z</time>
      </trkpt>
      <trkpt lat="45.29989" lon="0.54755">
        <ele>117</ele>
        <time>2016-06-21T14:15:18Z</time>
      </trkpt>
      <trkpt lat="45.29993" lon="0.54751">
        <ele>120</ele>
        <time>2016-06-21T14:15:22Z</time>
      </trkpt>
      <trkpt lat="45.29987" lon="0.54747">
        <ele>123</ele>
        <time>2016-06-21T14:15:26Z</time>
      </trkpt>
      <trkpt lat="45.29984" lon="0.54744">
        <ele>123</ele>
        <time>2016-06-21T14:15:31Z</time>
      </trkpt>
      <trkpt lat="45.29976" lon="0.5474">
        <ele>121</ele>
        <time>2016-06-21T14:15:35Z</time>
      </trkpt>
      <trkpt lat="45.29972" lon="0.54736">
        <ele>121</ele>
        <time>2016-06-21T14:15:39Z</time>
      </trkpt>
      <trkpt lat="45.29968" lon="0.54733">
        <ele>125</ele>
        <time>2016-06-21T14:15:44Z</time>
      </trkpt>
      <trkpt lat="45.29966" lon="0.54726">
        <ele>123</ele>
        <time>2016-06-21T14:15:48Z</time>
      </trkpt>
      <trkpt lat="45.29961" lon="0.54721">
        <ele>120</ele>
        <time>2016-06-21T14:15:53Z</time>
      </trkpt>
      <trkpt lat="45.2996" lon="0.54714">
        <ele>121</ele>
        <time>2016-06-21T14:15:58Z</time>
      </trkpt>
      <trkpt lat="45.29956" lon="0.54708">
        <ele>118</ele>
        <time>2016-06-21T14:16:02Z</time>
      </trkpt>
      <trkpt lat="45.29953" lon="0.54703">
        <ele>120</ele>
        <time>2016-06-21T14:16:09Z</time>
      </trkpt>
      <trkpt lat="45.29951" lon="0.54698">
        <ele>121</ele>
        <time>2016-06-21T14:16:14Z</time>
      </trkpt>
      <trkpt lat="45.29946" lon="0.54693">
        <ele>122</ele>
        <time>2016-06-21T14:16:18Z</time>
      </trkpt>
      <trkpt lat="45.29941" lon="0.54687">
        <ele>121</ele>
        <time>2016-06-21T14:16:23Z</time>
      </trkpt>
      <trkpt lat="45.29935" lon="0.54682">
        <ele>121</ele>
        <time>2016-06-21T14:16:27Z</time>
      </trkpt>
      <trkpt lat="45.29933" lon="0.54677">
        <ele>120</ele>
        <time>2016-06-21T14:16:33Z</time>
      </trkpt>
      <trkpt lat="45.29929" lon="0.5467">
        <ele>115</ele>
        <time>2016-06-21T14:16:38Z</time>
      </trkpt>
      <trkpt lat="45.29925" lon="0.54665">
        <ele>115</ele>
        <time>2016-06-21T14:16:42Z</time>
      </trkpt>
      <trkpt lat="45.2992" lon="0.5466">
        <ele>117</ele>
        <time>2016-06-21T14:16:47Z</time>
      </trkpt>
      <trkpt lat="45.29914" lon="0.54656">
        <ele>118</ele>
        <time>2016-06-21T14:16:52Z</time>
      </trkpt>
      <trkpt lat="45.29913" lon="0.5465">
        <ele>120</ele>
        <time>2016-06-21T14:16:56Z</time>
      </trkpt>
      <trkpt lat="45.2991" lon="0.54644">
        <ele>119</ele>
        <time>2016-06-21T14:17:01Z</time>
      </trkpt>
      <trkpt lat="45.29907" lon="0.54637">
        <ele>119</ele>
        <time>2016-06-21T14:17:06Z</time>
      </trkpt>
      <trkpt lat="45.29902" lon="0.54631">
        <ele>119</ele>
        <time>2016-06-21T14:17:10Z</time>
      </trkpt>
      <trkpt lat="45.29898" lon="0.54625">
        <ele>120</ele>
        <time>2016-06-21T14:17:14Z</time>
      </trkpt>
      <trkpt lat="45.29896" lon="0.54621">
        <ele>123</ele>
        <time>2016-06-21T14:17:18Z</time>
      </trkpt>
      <trkpt lat="45.29894" lon="0.54615">
        <ele>123</ele>
        <time>2016-06-21T14:17:23Z</time>
      </trkpt>
      <trkpt lat="45.29889" lon="0.54613">
        <ele>123</ele>
        <time>2016-06-21T14:17:28Z</time>
      </trkpt>
      <trkpt lat="45.29882" lon="0.54606">
        <ele>120</ele>
        <time>2016-06-21T14:17:32Z</time>
      </trkpt>
      <trkpt lat="45.29873" lon="0.546">
        <ele>120</ele>
        <time>2016-06-21T14:17:37Z</time>
      </trkpt>
      <trkpt lat="45.29867" lon="0.54594">
        <ele>120</ele>
        <time>2016-06-21T14:17:42Z</time>
      </trkpt>
      <trkpt lat="45.29864" lon="0.5459">
        <ele>118</ele>
        <time>2016-06-21T14:17:46Z</time>
      </trkpt>
      <trkpt lat="45.29859" lon="0.54586">
        <ele>117</ele>
        <time>2016-06-21T14:17:51Z</time>
      </trkpt>
      <trkpt lat="45.29857" lon="0.54583">
        <ele>118</ele>
        <time>2016-06-21T14:17:57Z</time>
      </trkpt>
      <trkpt lat="45.29853" lon="0.54578">
        <ele>119</ele>
        <time>2016-06-21T14:18:01Z</time>
      </trkpt>
      <trkpt lat="45.29846" lon="0.54572">
        <ele>119</ele>
        <time>2016-06-21T14:18:06Z</time>
      </trkpt>
      <trkpt lat="45.29843" lon="0.54567">
        <ele>120</ele>
        <time>2016-06-21T14:18:12Z</time>
      </trkpt>
      <trkpt lat="45.2984" lon="0.54564">
        <ele>119</ele>
        <time>2016-06-21T14:18:17Z</time>
      </trkpt>
      <trkpt lat="45.29834" lon="0.54557">
        <ele>117</ele>
        <time>2016-06-21T14:18:21Z</time>
      </trkpt>
      <trkpt lat="45.29827" lon="0.54553">
        <ele>119</ele>
        <time>2016-06-21T14:18:26Z</time>
      </trkpt>
      <trkpt lat="45.29823" lon="0.54551">
        <ele>119</ele>
        <time>2016-06-21T14:18:30Z</time>
      </trkpt>
      <trkpt lat="45.29821" lon="0.54546">
        <ele>118</ele>
        <time>2016-06-21T14:18:36Z</time>
      </trkpt>
      <trkpt lat="45.2982" lon="0.54541">
        <ele>115</ele>
        <time>2016-06-21T14:18:44Z</time>
      </trkpt>
      <trkpt lat="45.29809" lon="0.54532">
        <ele>112</ele>
        <time>2016-06-21T14:18:48Z</time>
      </trkpt>
      <trkpt lat="45.29804" lon="0.54524">
        <ele>107</ele>
        <time>2016-06-21T14:18:52Z</time>
      </trkpt>
      <trkpt lat="45.29802" lon="0.54518">
        <ele>107</ele>
        <time>2016-06-21T14:18:56Z</time>
      </trkpt>
      <trkpt lat="45.298" lon="0.54513">
        <ele>107</ele>
        <time>2016-06-21T14:19:02Z</time>
      </trkpt>
      <trkpt lat="45.29797" lon="0.54507">
        <ele>108</ele>
        <time>2016-06-21T14:19:06Z</time>
      </trkpt>
      <trkpt lat="45.29792" lon="0.54501">
        <ele>107</ele>
        <time>2016-06-21T14:19:10Z</time>
      </trkpt>
      <trkpt lat="45.29786" lon="0.54495">
        <ele>109</ele>
        <time>2016-06-21T14:19:15Z</time>
      </trkpt>
      <trkpt lat="45.29784" lon="0.5449">
        <ele>107</ele>
        <time>2016-06-21T14:19:21Z</time>
      </trkpt>
      <trkpt lat="45.29781" lon="0.54484">
        <ele>106</ele>
        <time>2016-06-21T14:19:26Z</time>
      </trkpt>
      <trkpt lat="45.29778" lon="0.54477">
        <ele>107</ele>
        <time>2016-06-21T14:19:30Z</time>
      </trkpt>
      <trkpt lat="45.29776" lon="0.54469">
        <ele>107</ele>
        <time>2016-06-21T14:19:34Z</time>
      </trkpt>
      <trkpt lat="45.29773" lon="0.54464">
        <ele>107</ele>
        <time>2016-06-21T14:19:38Z</time>
      </trkpt>
      <trkpt lat="45.2977" lon="0.54454">
        <ele>103</ele>
        <time>2016-06-21T14:19:43Z</time>
      </trkpt>
      <trkpt lat="45.2977" lon="0.54447">
        <ele>103</ele>
        <time>2016-06-21T14:19:47Z</time>
      </trkpt>
      <trkpt lat="45.2977" lon="0.54441">
        <ele>102</ele>
        <time>2016-06-21T14:19:51Z</time>
      </trkpt>
      <trkpt lat="45.29769" lon="0.54433">
        <ele>105</ele>
        <time>2016-06-21T14:19:55Z</time>
      </trkpt>
      <trkpt lat="45.29767" lon="0.54425">
        <ele>108</ele>
        <time>2016-06-21T14:20:00Z</time>
      </trkpt>
      <trkpt lat="45.29759" lon="0.54416">
        <ele>106</ele>
        <time>2016-06-21T14:20:05Z</time>
      </trkpt>
      <trkpt lat="45.29755" lon="0.54409">
        <ele>106</ele>
        <time>2016-06-21T14:20:09Z</time>
      </trkpt>
      <trkpt lat="45.29749" lon="0.54404">
        <ele>106</ele>
        <time>2016-06-21T14:20:13Z</time>
      </trkpt>
      <trkpt lat="45.29745" lon="0.54397">
        <ele>105</ele>
        <time>2016-06-21T14:20:18Z</time>
      </trkpt>
      <trkpt lat="45.29742" lon="0.5439">
        <ele>105</ele>
        <time>2016-06-21T14:20:23Z</time>
      </trkpt>
      <trkpt lat="45.29741" lon="0.54383">
        <ele>107</ele>
        <time>2016-06-21T14:20:27Z</time>
      </trkpt>
      <trkpt lat="45.2974" lon="0.54378">
        <ele>107</ele>
        <time>2016-06-21T14:20:31Z</time>
      </trkpt>
      <trkpt lat="45.29741" lon="0.54371">
        <ele>108</ele>
        <time>2016-06-21T14:20:36Z</time>
      </trkpt>
      <trkpt lat="45.29738" lon="0.54367">
        <ele>109</ele>
        <time>2016-06-21T14:20:40Z</time>
      </trkpt>
      <trkpt lat="45.29736" lon="0.54362">
        <ele>110</ele>
        <time>2016-06-21T14:20:44Z</time>
      </trkpt>
      <trkpt lat="45.29735" lon="0.54355">
        <ele>111</ele>
        <time>2016-06-21T14:20:49Z</time>
      </trkpt>
      <trkpt lat="45.29728" lon="0.54345">
        <ele>105</ele>
        <time>2016-06-21T14:20:54Z</time>
      </trkpt>
      <trkpt lat="45.29722" lon="0.54339">
        <ele>105</ele>
        <time>2016-06-21T14:20:59Z</time>
      </trkpt>
      <trkpt lat="45.29715" lon="0.5434">
        <ele>105</ele>
        <time>2016-06-21T14:21:03Z</time>
      </trkpt>
      <trkpt lat="45.29708" lon="0.54342">
        <ele>104</ele>
        <time>2016-06-21T14:21:08Z</time>
      </trkpt>
      <trkpt lat="45.29703" lon="0.54343">
        <ele>105</ele>
        <time>2016-06-21T14:21:12Z</time>
      </trkpt>
      <trkpt lat="45.29699" lon="0.54346">
        <ele>104</ele>
        <time>2016-06-21T14:21:16Z</time>
      </trkpt>
      <trkpt lat="45.29695" lon="0.54345">
        <ele>102</ele>
        <time>2016-06-21T14:21:20Z</time>
      </trkpt>
      <trkpt lat="45.29693" lon="0.54341">
        <ele>106</ele>
        <time>2016-06-21T14:21:25Z</time>
      </trkpt>
      <trkpt lat="45.29691" lon="0.54335">
        <ele>107</ele>
        <time>2016-06-21T14:21:29Z</time>
      </trkpt>
      <trkpt lat="45.29692" lon="0.54328">
        <ele>110</ele>
        <time>2016-06-21T14:21:33Z</time>
      </trkpt>
      <trkpt lat="45.29685" lon="0.54321">
        <ele>108</ele>
        <time>2016-06-21T14:21:38Z</time>
      </trkpt>
      <trkpt lat="45.29682" lon="0.54317">
        <ele>111</ele>
        <time>2016-06-21T14:21:42Z</time>
      </trkpt>
      <trkpt lat="45.2968" lon="0.54309">
        <ele>108</ele>
        <time>2016-06-21T14:21:46Z</time>
      </trkpt>
      <trkpt lat="45.29673" lon="0.54303">
        <ele>107</ele>
        <time>2016-06-21T14:21:51Z</time>
      </trkpt>
      <trkpt lat="45.29671" lon="0.54297">
        <ele>109</ele>
        <time>2016-06-21T14:21:55Z</time>
      </trkpt>
      <trkpt lat="45.29669" lon="0.54292">
        <ele>111</ele>
        <time>2016-06-21T14:22:00Z</time>
      </trkpt>
      <trkpt lat="45.29667" lon="0.54286">
        <ele>112</ele>
        <time>2016-06-21T14:22:04Z</time>
      </trkpt>
      <trkpt lat="45.29664" lon="0.5428">
        <ele>112</ele>
        <time>2016-06-21T14:22:08Z</time>
      </trkpt>
      <trkpt lat="45.29666" lon="0.54272">
        <ele>112</ele>
        <time>2016-06-21T14:22:12Z</time>
      </trkpt>
      <trkpt lat="45.29667" lon="0.54262">
        <ele>109</ele>
        <time>2016-06-21T14:22:17Z</time>
      </trkpt>
      <trkpt lat="45.29665" lon="0.54258">
        <ele>109</ele>
        <time>2016-06-21T14:22:21Z</time>
      </trkpt>
      <trkpt lat="45.2966" lon="0.54253">
        <ele>106</ele>
        <time>2016-06-21T14:22:25Z</time>
      </trkpt>
      <trkpt lat="45.29654" lon="0.5425">
        <ele>107</ele>
        <time>2016-06-21T14:22:29Z</time>
      </trkpt>
      <trkpt lat="45.29647" lon="0.54247">
        <ele>107</ele>
        <time>2016-06-21T14:22:34Z</time>
      </trkpt>
      <trkpt lat="45.29641" lon="0.54247">
        <ele>107</ele>
        <time>2016-06-21T14:22:38Z</time>
      </trkpt>
      <trkpt lat="45.29635" lon="0.54246">
        <ele>107</ele>
        <time>2016-06-21T14:22:43Z</time>
      </trkpt>
      <trkpt lat="45.29631" lon="0.54244">
        <ele>108</ele>
        <time>2016-06-21T14:22:47Z</time>
      </trkpt>
      <trkpt lat="45.29627" lon="0.54244">
        <ele>106</ele>
        <time>2016-06-21T14:22:51Z</time>
      </trkpt>
      <trkpt lat="45.29622" lon="0.54246">
        <ele>106</ele>
        <time>2016-06-21T14:22:55Z</time>
      </trkpt>
      <trkpt lat="45.29618" lon="0.54247">
        <ele>105</ele>
        <time>2016-06-21T14:22:59Z</time>
      </trkpt>
      <trkpt lat="45.29611" lon="0.54246">
        <ele>105</ele>
        <time>2016-06-21T14:23:04Z</time>
      </trkpt>
      <trkpt lat="45.29604" lon="0.54243">
        <ele>105</ele>
        <time>2016-06-21T14:23:09Z</time>
      </trkpt>
      <trkpt lat="45.29596" lon="0.54249">
        <ele>103</ele>
        <time>2016-06-21T14:23:13Z</time>
      </trkpt>
      <trkpt lat="45.2959" lon="0.54245">
        <ele>106</ele>
        <time>2016-06-21T14:23:17Z</time>
      </trkpt>
      <trkpt lat="45.29584" lon="0.54243">
        <ele>107</ele>
        <time>2016-06-21T14:23:22Z</time>
      </trkpt>
      <trkpt lat="45.29577" lon="0.54242">
        <ele>106</ele>
        <time>2016-06-21T14:23:26Z</time>
      </trkpt>
      <trkpt lat="45.29572" lon="0.5424">
        <ele>109</ele>
        <time>2016-06-21T14:23:30Z</time>
      </trkpt>
      <trkpt lat="45.29566" lon="0.5424">
        <ele>109</ele>
        <time>2016-06-21T14:23:35Z</time>
      </trkpt>
      <trkpt lat="45.2956" lon="0.5424">
        <ele>109</ele>
        <time>2016-06-21T14:23:40Z</time>
      </trkpt>
      <trkpt lat="45.29556" lon="0.5424">
        <ele>109</ele>
        <time>2016-06-21T14:23:44Z</time>
      </trkpt>
      <trkpt lat="45.29551" lon="0.54239">
        <ele>110</ele>
        <time>2016-06-21T14:23:48Z</time>
      </trkpt>
      <trkpt lat="45.29545" lon="0.54239">
        <ele>111</ele>
        <time>2016-06-21T14:23:52Z</time>
      </trkpt>
      <trkpt lat="45.29541" lon="0.5424">
        <ele>110</ele>
        <time>2016-06-21T14:23:56Z</time>
      </trkpt>
      <trkpt lat="45.29536" lon="0.5424">
        <ele>110</ele>
        <time>2016-06-21T14:24:00Z</time>
      </trkpt>
      <trkpt lat="45.2953" lon="0.54242">
        <ele>109</ele>
        <time>2016-06-21T14:24:04Z</time>
      </trkpt>
      <trkpt lat="45.29525" lon="0.54243">
        <ele>108</ele>
        <time>2016-06-21T14:24:08Z</time>
      </trkpt>
      <trkpt lat="45.29519" lon="0.54242">
        <ele>110</ele>
        <time>2016-06-21T14:24:13Z</time>
      </trkpt>
      <trkpt lat="45.29513" lon="0.54246">
        <ele>109</ele>
        <time>2016-06-21T14:24:18Z</time>
      </trkpt>
      <trkpt lat="45.29507" lon="0.54247">
        <ele>109</ele>
        <time>2016-06-21T14:24:23Z</time>
      </trkpt>
      <trkpt lat="45.29502" lon="0.54247">
        <ele>109</ele>
        <time>2016-06-21T14:24:27Z</time>
      </trkpt>
      <trkpt lat="45.29496" lon="0.54247">
        <ele>110</ele>
        <time>2016-06-21T14:24:31Z</time>
      </trkpt>
      <trkpt lat="45.29491" lon="0.54245">
        <ele>111</ele>
        <time>2016-06-21T14:24:35Z</time>
      </trkpt>
      <trkpt lat="45.29486" lon="0.54243">
        <ele>113</ele>
        <time>2016-06-21T14:24:39Z</time>
      </trkpt>
      <trkpt lat="45.29479" lon="0.54241">
        <ele>114</ele>
        <time>2016-06-21T14:24:44Z</time>
      </trkpt>
      <trkpt lat="45.29475" lon="0.54243">
        <ele>112</ele>
        <time>2016-06-21T14:24:48Z</time>
      </trkpt>
      <trkpt lat="45.29471" lon="0.54247">
        <ele>111</ele>
        <time>2016-06-21T14:25:06Z</time>
      </trkpt>
      <trkpt lat="45.29467" lon="0.54246">
        <ele>112</ele>
        <time>2016-06-21T14:25:12Z</time>
      </trkpt>
      <trkpt lat="45.29461" lon="0.54248">
        <ele>112</ele>
        <time>2016-06-21T14:25:16Z</time>
      </trkpt>
      <trkpt lat="45.29453" lon="0.54248">
        <ele>110</ele>
        <time>2016-06-21T14:25:21Z</time>
      </trkpt>
      <trkpt lat="45.2945" lon="0.54251">
        <ele>107</ele>
        <time>2016-06-21T14:25:25Z</time>
      </trkpt>
      <trkpt lat="45.29444" lon="0.5425">
        <ele>106</ele>
        <time>2016-06-21T14:25:29Z</time>
      </trkpt>
      <trkpt lat="45.2944" lon="0.54254">
        <ele>106</ele>
        <time>2016-06-21T14:25:34Z</time>
      </trkpt>
      <trkpt lat="45.29436" lon="0.54253">
        <ele>106</ele>
        <time>2016-06-21T14:25:40Z</time>
      </trkpt>
      <trkpt lat="45.2943" lon="0.5425">
        <ele>108</ele>
        <time>2016-06-21T14:25:44Z</time>
      </trkpt>
      <trkpt lat="45.29423" lon="0.54249">
        <ele>108</ele>
        <time>2016-06-21T14:25:49Z</time>
      </trkpt>
      <trkpt lat="45.29417" lon="0.54249">
        <ele>110</ele>
        <time>2016-06-21T14:25:54Z</time>
      </trkpt>
      <trkpt lat="45.29412" lon="0.54249">
        <ele>111</ele>
        <time>2016-06-21T14:25:58Z</time>
      </trkpt>
      <trkpt lat="45.2941" lon="0.54255">
        <ele>107</ele>
        <time>2016-06-21T14:26:02Z</time>
      </trkpt>
      <trkpt lat="45.29406" lon="0.54256">
        <ele>109</ele>
        <time>2016-06-21T14:26:08Z</time>
      </trkpt>
      <trkpt lat="45.294" lon="0.5426">
        <ele>105</ele>
        <time>2016-06-21T14:26:13Z</time>
      </trkpt>
      <trkpt lat="45.29393" lon="0.54258">
        <ele>104</ele>
        <time>2016-06-21T14:26:17Z</time>
      </trkpt>
      <trkpt lat="45.29389" lon="0.54255">
        <ele>108</ele>
        <time>2016-06-21T14:26:22Z</time>
      </trkpt>
      <trkpt lat="45.29384" lon="0.54256">
        <ele>109</ele>
        <time>2016-06-21T14:26:26Z</time>
      </trkpt>
      <trkpt lat="45.29381" lon="0.5426">
        <ele>107</ele>
        <time>2016-06-21T14:26:36Z</time>
      </trkpt>
      <trkpt lat="45.29379" lon="0.54264">
        <ele>104</ele>
        <time>2016-06-21T14:26:54Z</time>
      </trkpt>
      <trkpt lat="45.29375" lon="0.54266">
        <ele>105</ele>
        <time>2016-06-21T14:26:58Z</time>
      </trkpt>
      <trkpt lat="45.29371" lon="0.54269">
        <ele>104</ele>
        <time>2016-06-21T14:27:03Z</time>
      </trkpt>
      <trkpt lat="45.29367" lon="0.5427">
        <ele>105</ele>
        <time>2016-06-21T14:27:12Z</time>
      </trkpt>
      <trkpt lat="45.29363" lon="0.54269">
        <ele>108</ele>
        <time>2016-06-21T14:27:22Z</time>
      </trkpt>
      <trkpt lat="45.29358" lon="0.54262">
        <ele>107</ele>
        <time>2016-06-21T14:27:26Z</time>
      </trkpt>
      <trkpt lat="45.29351" lon="0.54262">
        <ele>107</ele>
        <time>2016-06-21T14:27:30Z</time>
      </trkpt>
      <trkpt lat="45.29347" lon="0.54265">
        <ele>110</ele>
        <time>2016-06-21T14:27:35Z</time>
      </trkpt>
      <trkpt lat="45.29344" lon="0.54268">
        <ele>111</ele>
        <time>2016-06-21T14:27:40Z</time>
      </trkpt>
      <trkpt lat="45.29341" lon="0.54268">
        <ele>115</ele>
        <time>2016-06-21T14:27:46Z</time>
      </trkpt>
      <trkpt lat="45.29328" lon="0.54269">
        <ele>113</ele>
        <time>2016-06-21T14:27:50Z</time>
      </trkpt>
      <trkpt lat="45.2932" lon="0.54272">
        <ele>110</ele>
        <time>2016-06-21T14:27:54Z</time>
      </trkpt>
      <trkpt lat="45.29313" lon="0.5427">
        <ele>111</ele>
        <time>2016-06-21T14:27:58Z</time>
      </trkpt>
      <trkpt lat="45.2931" lon="0.54275">
        <ele>109</ele>
        <time>2016-06-21T14:28:02Z</time>
      </trkpt>
      <trkpt lat="45.29307" lon="0.54275">
        <ele>114</ele>
        <time>2016-06-21T14:28:09Z</time>
      </trkpt>
      <trkpt lat="45.29297" lon="0.54273">
        <ele>113</ele>
        <time>2016-06-21T14:28:13Z</time>
      </trkpt>
      <trkpt lat="45.29286" lon="0.54267">
        <ele>115</ele>
        <time>2016-06-21T14:28:17Z</time>
      </trkpt>
      <trkpt lat="45.29282" lon="0.54267">
        <ele>118</ele>
        <time>2016-06-21T14:28:26Z</time>
      </trkpt>
      <trkpt lat="45.29278" lon="0.54266">
        <ele>118</ele>
        <time>2016-06-21T14:28:30Z</time>
      </trkpt>
      <trkpt lat="45.29271" lon="0.54269">
        <ele>116</ele>
        <time>2016-06-21T14:28:34Z</time>
      </trkpt>
      <trkpt lat="45.29263" lon="0.54271">
        <ele>116</ele>
        <time>2016-06-21T14:28:39Z</time>
      </trkpt>
      <trkpt lat="45.29257" lon="0.54276">
        <ele>110</ele>
        <time>2016-06-21T14:28:43Z</time>
      </trkpt>
      <trkpt lat="45.29254" lon="0.54285">
        <ele>107</ele>
        <time>2016-06-21T14:28:47Z</time>
      </trkpt>
      <trkpt lat="45.29247" lon="0.54285">
        <ele>106</ele>
        <time>2016-06-21T14:28:52Z</time>
      </trkpt>
      <trkpt lat="45.29241" lon="0.54282">
        <ele>109</ele>
        <time>2016-06-21T14:28:56Z</time>
      </trkpt>
      <trkpt lat="45.29235" lon="0.54283">
        <ele>109</ele>
        <time>2016-06-21T14:29:01Z</time>
      </trkpt>
      <trkpt lat="45.29236" lon="0.54288">
        <ele>109</ele>
        <time>2016-06-21T14:29:06Z</time>
      </trkpt>
      <trkpt lat="45.29232" lon="0.54287">
        <ele>114</ele>
        <time>2016-06-21T14:29:15Z</time>
      </trkpt>
      <trkpt lat="45.29225" lon="0.54283">
        <ele>115</ele>
        <time>2016-06-21T14:29:19Z</time>
      </trkpt>
      <trkpt lat="45.29219" lon="0.54282">
        <ele>116</ele>
        <time>2016-06-21T14:29:23Z</time>
      </trkpt>
      <trkpt lat="45.29212" lon="0.54282">
        <ele>115</ele>
        <time>2016-06-21T14:29:27Z</time>
      </trkpt>
      <trkpt lat="45.29208" lon="0.54278">
        <ele>114</ele>
        <time>2016-06-21T14:29:31Z</time>
      </trkpt>
      <trkpt lat="45.29203" lon="0.54281">
        <ele>113</ele>
        <time>2016-06-21T14:29:36Z</time>
      </trkpt>
      <trkpt lat="45.29196" lon="0.54281">
        <ele>113</ele>
        <time>2016-06-21T14:29:40Z</time>
      </trkpt>
      <trkpt lat="45.29189" lon="0.5428">
        <ele>113</ele>
        <time>2016-06-21T14:29:45Z</time>
      </trkpt>
      <trkpt lat="45.29182" lon="0.54284">
        <ele>112</ele>
        <time>2016-06-21T14:29:49Z</time>
      </trkpt>
      <trkpt lat="45.29177" lon="0.54284">
        <ele>111</ele>
        <time>2016-06-21T14:29:53Z</time>
      </trkpt>
      <trkpt lat="45.2917" lon="0.54284">
        <ele>110</ele>
        <time>2016-06-21T14:29:58Z</time>
      </trkpt>
      <trkpt lat="45.29166" lon="0.54284">
        <ele>109</ele>
        <time>2016-06-21T14:30:02Z</time>
      </trkpt>
      <trkpt lat="45.29161" lon="0.54283">
        <ele>109</ele>
        <time>2016-06-21T14:30:06Z</time>
      </trkpt>
      <trkpt lat="45.29155" lon="0.54281">
        <ele>109</ele>
        <time>2016-06-21T14:30:11Z</time>
      </trkpt>
      <trkpt lat="45.29151" lon="0.54276">
        <ele>112</ele>
        <time>2016-06-21T14:30:15Z</time>
      </trkpt>
      <trkpt lat="45.29146" lon="0.54275">
        <ele>110</ele>
        <time>2016-06-21T14:30:20Z</time>
      </trkpt>
      <trkpt lat="45.2914" lon="0.54273">
        <ele>110</ele>
        <time>2016-06-21T14:30:25Z</time>
      </trkpt>
      <trkpt lat="45.29135" lon="0.54274">
        <ele>109</ele>
        <time>2016-06-21T14:30:30Z</time>
      </trkpt>
      <trkpt lat="45.29129" lon="0.54273">
        <ele>109</ele>
        <time>2016-06-21T14:30:34Z</time>
      </trkpt>
      <trkpt lat="45.29124" lon="0.54271">
        <ele>110</ele>
        <time>2016-06-21T14:30:39Z</time>
      </trkpt>
      <trkpt lat="45.2912" lon="0.54268">
        <ele>110</ele>
        <time>2016-06-21T14:30:43Z</time>
      </trkpt>
      <trkpt lat="45.29116" lon="0.54269">
        <ele>110</ele>
        <time>2016-06-21T14:30:47Z</time>
      </trkpt>
      <trkpt lat="45.2911" lon="0.54268">
        <ele>108</ele>
        <time>2016-06-21T14:30:52Z</time>
      </trkpt>
      <trkpt lat="45.29102" lon="0.54266">
        <ele>109</ele>
        <time>2016-06-21T14:30:56Z</time>
      </trkpt>
      <trkpt lat="45.29098" lon="0.54267">
        <ele>107</ele>
        <time>2016-06-21T14:31:01Z</time>
      </trkpt>
      <trkpt lat="45.29094" lon="0.54268">
        <ele>108</ele>
        <time>2016-06-21T14:31:05Z</time>
      </trkpt>
      <trkpt lat="45.29089" lon="0.54271">
        <ele>107</ele>
        <time>2016-06-21T14:31:10Z</time>
      </trkpt>
      <trkpt lat="45.29085" lon="0.54277">
        <ele>106</ele>
        <time>2016-06-21T14:31:14Z</time>
      </trkpt>
      <trkpt lat="45.29082" lon="0.54282">
        <ele>101</ele>
        <time>2016-06-21T14:31:26Z</time>
      </trkpt>
      <trkpt lat="45.2908" lon="0.54286">
        <ele>102</ele>
        <time>2016-06-21T14:31:46Z</time>
      </trkpt>
      <trkpt lat="45.2908" lon="0.54292">
        <ele>107</ele>
        <time>2016-06-21T14:31:53Z</time>
      </trkpt>
      <trkpt lat="45.29082" lon="0.54297">
        <ele>106</ele>
        <time>2016-06-21T14:31:58Z</time>
      </trkpt>
      <trkpt lat="45.29083" lon="0.54303">
        <ele>105</ele>
        <time>2016-06-21T14:32:02Z</time>
      </trkpt>
      <trkpt lat="45.29083" lon="0.54309">
        <ele>106</ele>
        <time>2016-06-21T14:32:06Z</time>
      </trkpt>
      <trkpt lat="45.29084" lon="0.54315">
        <ele>109</ele>
        <time>2016-06-21T14:32:13Z</time>
      </trkpt>
      <trkpt lat="45.29086" lon="0.54321">
        <ele>110</ele>
        <time>2016-06-21T14:32:19Z</time>
      </trkpt>
      <trkpt lat="45.29089" lon="0.54325">
        <ele>107</ele>
        <time>2016-06-21T14:32:27Z</time>
      </trkpt>
      <trkpt lat="45.29093" lon="0.54329">
        <ele>105</ele>
        <time>2016-06-21T14:32:32Z</time>
      </trkpt>
      <trkpt lat="45.29094" lon="0.54334">
        <ele>104</ele>
        <time>2016-06-21T14:32:36Z</time>
      </trkpt>
      <trkpt lat="45.29093" lon="0.54343">
        <ele>106</ele>
        <time>2016-06-21T14:32:40Z</time>
      </trkpt>
      <trkpt lat="45.29094" lon="0.54348">
        <ele>106</ele>
        <time>2016-06-21T14:32:44Z</time>
      </trkpt>
      <trkpt lat="45.29096" lon="0.54354">
        <ele>106</ele>
        <time>2016-06-21T14:32:48Z</time>
      </trkpt>
      <trkpt lat="45.29096" lon="0.5436">
        <ele>105</ele>
        <time>2016-06-21T14:32:52Z</time>
      </trkpt>
      <trkpt lat="45.29095" lon="0.54366">
        <ele>106</ele>
        <time>2016-06-21T14:32:56Z</time>
      </trkpt>
      <trkpt lat="45.29097" lon="0.54371">
        <ele>105</ele>
        <time>2016-06-21T14:33:00Z</time>
      </trkpt>
      <trkpt lat="45.291" lon="0.54375">
        <ele>112</ele>
        <time>2016-06-21T14:33:55Z</time>
      </trkpt>
      <trkpt lat="45.29104" lon="0.54377">
        <ele>113</ele>
        <time>2016-06-21T14:36:57Z</time>
      </trkpt>
      <trkpt lat="45.29107" lon="0.54373">
        <ele>107</ele>
        <time>2016-06-21T14:37:20Z</time>
      </trkpt>
      <trkpt lat="45.29108" lon="0.54368">
        <ele>103</ele>
        <time>2016-06-21T14:37:34Z</time>
      </trkpt>
      <trkpt lat="45.29108" lon="0.5436">
        <ele>101</ele>
        <time>2016-06-21T14:37:39Z</time>
      </trkpt>
      <trkpt lat="45.29109" lon="0.54355">
        <ele>102</ele>
        <time>2016-06-21T14:37:43Z</time>
      </trkpt>
      <trkpt lat="45.29108" lon="0.54348">
        <ele>100</ele>
        <time>2016-06-21T14:37:48Z</time>
      </trkpt>
      <trkpt lat="45.29109" lon="0.54342">
        <ele>105</ele>
        <time>2016-06-21T14:37:55Z</time>
      </trkpt>
      <trkpt lat="45.29107" lon="0.54337">
        <ele>105</ele>
        <time>2016-06-21T14:38:00Z</time>
      </trkpt>
      <trkpt lat="45.29104" lon="0.54331">
        <ele>107</ele>
        <time>2016-06-21T14:38:04Z</time>
      </trkpt>
      <trkpt lat="45.291" lon="0.54328">
        <ele>107</ele>
        <time>2016-06-21T14:38:09Z</time>
      </trkpt>
      <trkpt lat="45.29097" lon="0.54325">
        <ele>107</ele>
        <time>2016-06-21T14:38:14Z</time>
      </trkpt>
      <trkpt lat="45.29094" lon="0.5432">
        <ele>108</ele>
        <time>2016-06-21T14:38:23Z</time>
      </trkpt>
      <trkpt lat="45.29091" lon="0.54315">
        <ele>107</ele>
        <time>2016-06-21T14:38:36Z</time>
      </trkpt>
      <trkpt lat="45.29091" lon="0.54311">
        <ele>105</ele>
        <time>2016-06-21T14:38:49Z</time>
      </trkpt>
      <trkpt lat="45.29091" lon="0.54298">
        <ele>101</ele>
        <time>2016-06-21T14:38:53Z</time>
      </trkpt>
      <trkpt lat="45.29089" lon="0.54293">
        <ele>101</ele>
        <time>2016-06-21T14:38:58Z</time>
      </trkpt>
      <trkpt lat="45.29085" lon="0.5429">
        <ele>98</ele>
        <time>2016-06-21T14:39:03Z</time>
      </trkpt>
      <trkpt lat="45.2908" lon="0.54291">
        <ele>96</ele>
        <time>2016-06-21T14:39:07Z</time>
      </trkpt>
      <trkpt lat="45.29076" lon="0.54293">
        <ele>96</ele>
        <time>2016-06-21T14:39:11Z</time>
      </trkpt>
      <trkpt lat="45.29072" lon="0.54296">
        <ele>96</ele>
        <time>2016-06-21T14:39:16Z</time>
      </trkpt>
      <trkpt lat="45.29068" lon="0.54299">
        <ele>96</ele>
        <time>2016-06-21T14:39:20Z</time>
      </trkpt>
      <trkpt lat="45.29064" lon="0.54301">
        <ele>95</ele>
        <time>2016-06-21T14:39:24Z</time>
      </trkpt>
      <trkpt lat="45.29059" lon="0.54306">
        <ele>93</ele>
        <time>2016-06-21T14:39:29Z</time>
      </trkpt>
      <trkpt lat="45.29055" lon="0.5431">
        <ele>93</ele>
        <time>2016-06-21T14:39:34Z</time>
      </trkpt>
      <trkpt lat="45.29052" lon="0.54314">
        <ele>91</ele>
        <time>2016-06-21T14:39:38Z</time>
      </trkpt>
      <trkpt lat="45.29048" lon="0.54318">
        <ele>90</ele>
        <time>2016-06-21T14:39:42Z</time>
      </trkpt>
      <trkpt lat="45.29044" lon="0.5432">
        <ele>91</ele>
        <time>2016-06-21T14:39:46Z</time>
      </trkpt>
      <trkpt lat="45.29039" lon="0.54322">
        <ele>91</ele>
        <time>2016-06-21T14:39:50Z</time>
      </trkpt>
      <trkpt lat="45.29034" lon="0.54326">
        <ele>91</ele>
        <time>2016-06-21T14:39:55Z</time>
      </trkpt>
      <trkpt lat="45.29029" lon="0.54329">
        <ele>90</ele>
        <time>2016-06-21T14:39:59Z</time>
      </trkpt>
      <trkpt lat="45.29025" lon="0.54337">
        <ele>87</ele>
        <time>2016-06-21T14:40:04Z</time>
      </trkpt>
      <trkpt lat="45.29021" lon="0.54343">
        <ele>87</ele>
        <time>2016-06-21T14:40:08Z</time>
      </trkpt>
      <trkpt lat="45.29017" lon="0.54345">
        <ele>89</ele>
        <time>2016-06-21T14:40:14Z</time>
      </trkpt>
      <trkpt lat="45.29014" lon="0.54344">
        <ele>90</ele>
        <time>2016-06-21T14:40:18Z</time>
      </trkpt>
      <trkpt lat="45.2901" lon="0.54343">
        <ele>92</ele>
        <time>2016-06-21T14:40:22Z</time>
      </trkpt>
      <trkpt lat="45.29004" lon="0.54335">
        <ele>93</ele>
        <time>2016-06-21T14:40:26Z</time>
      </trkpt>
      <trkpt lat="45.29001" lon="0.54328">
        <ele>97</ele>
        <time>2016-06-21T14:40:31Z</time>
      </trkpt>
      <trkpt lat="45.28999" lon="0.54323">
        <ele>99</ele>
        <time>2016-06-21T14:40:35Z</time>
      </trkpt>
      <trkpt lat="45.28997" lon="0.54316">
        <ele>101</ele>
        <time>2016-06-21T14:40:40Z</time>
      </trkpt>
      <trkpt lat="45.28996" lon="0.5431">
        <ele>104</ele>
        <time>2016-06-21T14:40:45Z</time>
      </trkpt>
      <trkpt lat="45.28995" lon="0.54305">
        <ele>104</ele>
        <time>2016-06-21T14:40:49Z</time>
      </trkpt>
      <trkpt lat="45.28991" lon="0.543">
        <ele>103</ele>
        <time>2016-06-21T14:40:53Z</time>
      </trkpt>
      <trkpt lat="45.28985" lon="0.54297">
        <ele>101</ele>
        <time>2016-06-21T14:40:58Z</time>
      </trkpt>
      <trkpt lat="45.28979" lon="0.54297">
        <ele>100</ele>
        <time>2016-06-21T14:41:02Z</time>
      </trkpt>
      <trkpt lat="45.28974" lon="0.54301">
        <ele>95</ele>
        <time>2016-06-21T14:41:07Z</time>
      </trkpt>
      <trkpt lat="45.28972" lon="0.54306">
        <ele>93</ele>
        <time>2016-06-21T14:41:11Z</time>
      </trkpt>
      <trkpt lat="45.28965" lon="0.54311">
        <ele>91</ele>
        <time>2016-06-21T14:41:16Z</time>
      </trkpt>
      <trkpt lat="45.28961" lon="0.54312">
        <ele>91</ele>
        <time>2016-06-21T14:41:20Z</time>
      </trkpt>
      <trkpt lat="45.28956" lon="0.54315">
        <ele>90</ele>
        <time>2016-06-21T14:41:24Z</time>
      </trkpt>
      <trkpt lat="45.2895" lon="0.54313">
        <ele>91</ele>
        <time>2016-06-21T14:41:29Z</time>
      </trkpt>
      <trkpt lat="45.28946" lon="0.54316">
        <ele>91</ele>
        <time>2016-06-21T14:41:33Z</time>
      </trkpt>
      <trkpt lat="45.28943" lon="0.54319">
        <ele>91</ele>
        <time>2016-06-21T14:41:37Z</time>
      </trkpt>
      <trkpt lat="45.28941" lon="0.54314">
        <ele>95</ele>
        <time>2016-06-21T14:41:43Z</time>
      </trkpt>
      <trkpt lat="45.28935" lon="0.54315">
        <ele>97</ele>
        <time>2016-06-21T14:41:48Z</time>
      </trkpt>
      <trkpt lat="45.2893" lon="0.54317">
        <ele>99</ele>
        <time>2016-06-21T14:41:53Z</time>
      </trkpt>
      <trkpt lat="45.28926" lon="0.54317">
        <ele>100</ele>
        <time>2016-06-21T14:41:57Z</time>
      </trkpt>
      <trkpt lat="45.28923" lon="0.54318">
        <ele>100</ele>
        <time>2016-06-21T14:42:02Z</time>
      </trkpt>
      <trkpt lat="45.28915" lon="0.5433">
        <ele>98</ele>
        <time>2016-06-21T14:42:07Z</time>
      </trkpt>
      <trkpt lat="45.28913" lon="0.54333">
        <ele>96</ele>
        <time>2016-06-21T14:42:14Z</time>
      </trkpt>
      <trkpt lat="45.2891" lon="0.54336">
        <ele>95</ele>
        <time>2016-06-21T14:42:18Z</time>
      </trkpt>
      <trkpt lat="45.28903" lon="0.54343">
        <ele>97</ele>
        <time>2016-06-21T14:42:23Z</time>
      </trkpt>
      <trkpt lat="45.289" lon="0.54347">
        <ele>97</ele>
        <time>2016-06-21T14:42:27Z</time>
      </trkpt>
      <trkpt lat="45.28897" lon="0.54356">
        <ele>93</ele>
        <time>2016-06-21T14:42:32Z</time>
      </trkpt>
      <trkpt lat="45.28896" lon="0.54362">
        <ele>93</ele>
        <time>2016-06-21T14:42:37Z</time>
      </trkpt>
      <trkpt lat="45.28892" lon="0.54366">
        <ele>95</ele>
        <time>2016-06-21T14:42:51Z</time>
      </trkpt>
      <trkpt lat="45.28889" lon="0.5437">
        <ele>93</ele>
        <time>2016-06-21T14:42:58Z</time>
      </trkpt>
      <trkpt lat="45.28885" lon="0.54371">
        <ele>92</ele>
        <time>2016-06-21T14:43:07Z</time>
      </trkpt>
      <trkpt lat="45.28884" lon="0.54377">
        <ele>89</ele>
        <time>2016-06-21T14:43:11Z</time>
      </trkpt>
      <trkpt lat="45.28881" lon="0.54376">
        <ele>89</ele>
        <time>2016-06-21T14:43:44Z</time>
      </trkpt>
      <trkpt lat="45.28878" lon="0.54376">
        <ele>90</ele>
        <time>2016-06-21T14:43:48Z</time>
      </trkpt>
      <trkpt lat="45.28872" lon="0.54379">
        <ele>91</ele>
        <time>2016-06-21T14:43:52Z</time>
      </trkpt>
      <trkpt lat="45.28866" lon="0.54383">
        <ele>92</ele>
        <time>2016-06-21T14:43:56Z</time>
      </trkpt>
      <trkpt lat="45.28862" lon="0.54387">
        <ele>96</ele>
        <time>2016-06-21T14:44:00Z</time>
      </trkpt>
      <trkpt lat="45.28858" lon="0.54389">
        <ele>98</ele>
        <time>2016-06-21T14:44:05Z</time>
      </trkpt>
      <trkpt lat="45.28854" lon="0.54392">
        <ele>96</ele>
        <time>2016-06-21T14:44:10Z</time>
      </trkpt>
      <trkpt lat="45.28854" lon="0.54402">
        <ele>93</ele>
        <time>2016-06-21T14:44:15Z</time>
      </trkpt>
      <trkpt lat="45.28851" lon="0.54406">
        <ele>91</ele>
        <time>2016-06-21T14:44:19Z</time>
      </trkpt>
      <trkpt lat="45.28847" lon="0.54412">
        <ele>89</ele>
        <time>2016-06-21T14:44:24Z</time>
      </trkpt>
      <trkpt lat="45.28846" lon="0.54417">
        <ele>87</ele>
        <time>2016-06-21T14:44:36Z</time>
      </trkpt>
      <trkpt lat="45.28841" lon="0.5442">
        <ele>86</ele>
        <time>2016-06-21T14:44:40Z</time>
      </trkpt>
      <trkpt lat="45.28837" lon="0.54424">
        <ele>86</ele>
        <time>2016-06-21T14:44:44Z</time>
      </trkpt>
      <trkpt lat="45.28834" lon="0.54428">
        <ele>88</ele>
        <time>2016-06-21T14:44:49Z</time>
      </trkpt>
      <trkpt lat="45.2883" lon="0.54435">
        <ele>90</ele>
        <time>2016-06-21T14:44:54Z</time>
      </trkpt>
      <trkpt lat="45.28826" lon="0.54438">
        <ele>90</ele>
        <time>2016-06-21T14:44:58Z</time>
      </trkpt>
      <trkpt lat="45.28822" lon="0.54447">
        <ele>91</ele>
        <time>2016-06-21T14:45:03Z</time>
      </trkpt>
      <trkpt lat="45.28819" lon="0.54451">
        <ele>89</ele>
        <time>2016-06-21T14:45:08Z</time>
      </trkpt>
      <trkpt lat="45.28816" lon="0.54457">
        <ele>86</ele>
        <time>2016-06-21T14:45:12Z</time>
      </trkpt>
      <trkpt lat="45.28812" lon="0.5446">
        <ele>86</ele>
        <time>2016-06-21T14:45:18Z</time>
      </trkpt>
      <trkpt lat="45.28808" lon="0.54464">
        <ele>86</ele>
        <time>2016-06-21T14:45:29Z</time>
      </trkpt>
      <trkpt lat="45.28806" lon="0.54469">
        <ele>86</ele>
        <time>2016-06-21T14:45:34Z</time>
      </trkpt>
      <trkpt lat="45.28804" lon="0.54476">
        <ele>86</ele>
        <time>2016-06-21T14:45:39Z</time>
      </trkpt>
      <trkpt lat="45.28801" lon="0.5448">
        <ele>85</ele>
        <time>2016-06-21T14:45:44Z</time>
      </trkpt>
      <trkpt lat="45.28799" lon="0.54485">
        <ele>82</ele>
        <time>2016-06-21T14:45:49Z</time>
      </trkpt>
      <trkpt lat="45.28796" lon="0.54488">
        <ele>82</ele>
        <time>2016-06-21T14:45:54Z</time>
      </trkpt>
      <trkpt lat="45.28793" lon="0.5449">
        <ele>84</ele>
        <time>2016-06-21T14:45:59Z</time>
      </trkpt>
      <trkpt lat="45.28786" lon="0.54491">
        <ele>85</ele>
        <time>2016-06-21T14:46:04Z</time>
      </trkpt>
      <trkpt lat="45.28782" lon="0.54492">
        <ele>86</ele>
        <time>2016-06-21T14:46:09Z</time>
      </trkpt>
      <trkpt lat="45.28777" lon="0.54494">
        <ele>86</ele>
        <time>2016-06-21T14:46:14Z</time>
      </trkpt>
      <trkpt lat="45.28774" lon="0.54497">
        <ele>87</ele>
        <time>2016-06-21T14:46:19Z</time>
      </trkpt>
      <trkpt lat="45.28769" lon="0.54499">
        <ele>87</ele>
        <time>2016-06-21T14:46:32Z</time>
      </trkpt>
      <trkpt lat="45.28766" lon="0.54502">
        <ele>87</ele>
        <time>2016-06-21T14:46:43Z</time>
      </trkpt>
      <trkpt lat="45.28763" lon="0.54505">
        <ele>88</ele>
        <time>2016-06-21T14:46:49Z</time>
      </trkpt>
      <trkpt lat="45.28758" lon="0.54507">
        <ele>87</ele>
        <time>2016-06-21T14:48:02Z</time>
      </trkpt>
      <trkpt lat="45.28762" lon="0.54512">
        <ele>87</ele>
        <time>2016-06-21T14:49:08Z</time>
      </trkpt>
      <trkpt lat="45.28759" lon="0.54508">
        <ele>87</ele>
        <time>2016-06-21T14:49:23Z</time>
      </trkpt>
      <trkpt lat="45.28755" lon="0.54503">
        <ele>86</ele>
        <time>2016-06-21T14:49:27Z</time>
      </trkpt>
      <trkpt lat="45.28753" lon="0.54499">
        <ele>84</ele>
        <time>2016-06-21T14:49:33Z</time>
      </trkpt>
      <trkpt lat="45.28749" lon="0.54496">
        <ele>82</ele>
        <time>2016-06-21T14:49:38Z</time>
      </trkpt>
      <trkpt lat="45.28749" lon="0.545">
        <ele>81</ele>
        <time>2016-06-21T14:49:58Z</time>
      </trkpt>
      <trkpt lat="45.2875" lon="0.54506">
        <ele>87</ele>
        <time>2016-06-21T14:50:04Z</time>
      </trkpt>
      <trkpt lat="45.28752" lon="0.54512">
        <ele>86</ele>
        <time>2016-06-21T14:50:09Z</time>
      </trkpt>
      <trkpt lat="45.28758" lon="0.54513">
        <ele>86</ele>
        <time>2016-06-21T14:50:14Z</time>
      </trkpt>
      <trkpt lat="45.28762" lon="0.54513">
        <ele>84</ele>
        <time>2016-06-21T14:50:25Z</time>
      </trkpt>
      <trkpt lat="45.28765" lon="0.54509">
        <ele>89</ele>
        <time>2016-06-21T14:51:05Z</time>
      </trkpt>
      <trkpt lat="45.28762" lon="0.54507">
        <ele>93</ele>
        <time>2016-06-21T14:51:30Z</time>
      </trkpt>
      <trkpt lat="45.28757" lon="0.54509">
        <ele>91</ele>
        <time>2016-06-21T14:51:37Z</time>
      </trkpt>
      <trkpt lat="45.28758" lon="0.54503">
        <ele>90</ele>
        <time>2016-06-21T14:51:46Z</time>
      </trkpt>
      <trkpt lat="45.28753" lon="0.54498">
        <ele>91</ele>
        <time>2016-06-21T14:51:50Z</time>
      </trkpt>
      <trkpt lat="45.28749" lon="0.54496">
        <ele>91</ele>
        <time>2016-06-21T14:51:54Z</time>
      </trkpt>
      <trkpt lat="45.28742" lon="0.54491">
        <ele>93</ele>
        <time>2016-06-21T14:51:59Z</time>
      </trkpt>
      <trkpt lat="45.28739" lon="0.54491">
        <ele>90</ele>
        <time>2016-06-21T14:52:03Z</time>
      </trkpt>
      <trkpt lat="45.28732" lon="0.54484">
        <ele>89</ele>
        <time>2016-06-21T14:52:08Z</time>
      </trkpt>
      <trkpt lat="45.28725" lon="0.54483">
        <ele>89</ele>
        <time>2016-06-21T14:52:12Z</time>
      </trkpt>
      <trkpt lat="45.2872" lon="0.54476">
        <ele>89</ele>
        <time>2016-06-21T14:52:17Z</time>
      </trkpt>
      <trkpt lat="45.28716" lon="0.5447">
        <ele>91</ele>
        <time>2016-06-21T14:52:21Z</time>
      </trkpt>
      <trkpt lat="45.28709" lon="0.54469">
        <ele>92</ele>
        <time>2016-06-21T14:52:25Z</time>
      </trkpt>
      <trkpt lat="45.28706" lon="0.54468">
        <ele>94</ele>
        <time>2016-06-21T14:52:30Z</time>
      </trkpt>
      <trkpt lat="45.287" lon="0.54472">
        <ele>90</ele>
        <time>2016-06-21T14:52:34Z</time>
      </trkpt>
      <trkpt lat="45.28697" lon="0.54471">
        <ele>93</ele>
        <time>2016-06-21T14:52:38Z</time>
      </trkpt>
      <trkpt lat="45.28693" lon="0.54467">
        <ele>94</ele>
        <time>2016-06-21T14:52:43Z</time>
      </trkpt>
      <trkpt lat="45.28687" lon="0.54466">
        <ele>93</ele>
        <time>2016-06-21T14:52:47Z</time>
      </trkpt>
      <trkpt lat="45.28673" lon="0.54465">
        <ele>91</ele>
        <time>2016-06-21T14:52:52Z</time>
      </trkpt>
      <trkpt lat="45.28669" lon="0.54465">
        <ele>94</ele>
        <time>2016-06-21T14:52:56Z</time>
      </trkpt>
      <trkpt lat="45.28658" lon="0.54464">
        <ele>96</ele>
        <time>2016-06-21T14:53:01Z</time>
      </trkpt>
      <trkpt lat="45.28648" lon="0.5446">
        <ele>92</ele>
        <time>2016-06-21T14:53:06Z</time>
      </trkpt>
      <trkpt lat="45.28643" lon="0.5446">
        <ele>91</ele>
        <time>2016-06-21T14:53:11Z</time>
      </trkpt>
      <trkpt lat="45.28634" lon="0.54458">
        <ele>89</ele>
        <time>2016-06-21T14:53:16Z</time>
      </trkpt>
      <trkpt lat="45.28627" lon="0.54459">
        <ele>90</ele>
        <time>2016-06-21T14:53:20Z</time>
      </trkpt>
      <trkpt lat="45.2862" lon="0.54457">
        <ele>87</ele>
        <time>2016-06-21T14:53:25Z</time>
      </trkpt>
      <trkpt lat="45.28615" lon="0.54457">
        <ele>87</ele>
        <time>2016-06-21T14:53:29Z</time>
      </trkpt>
      <trkpt lat="45.28609" lon="0.54456">
        <ele>89</ele>
        <time>2016-06-21T14:53:34Z</time>
      </trkpt>
      <trkpt lat="45.28603" lon="0.54456">
        <ele>90</ele>
        <time>2016-06-21T14:53:39Z</time>
      </trkpt>
      <trkpt lat="45.28597" lon="0.54455">
        <ele>89</ele>
        <time>2016-06-21T14:53:43Z</time>
      </trkpt>
      <trkpt lat="45.2859" lon="0.54454">
        <ele>90</ele>
        <time>2016-06-21T14:53:47Z</time>
      </trkpt>
      <trkpt lat="45.28584" lon="0.54453">
        <ele>90</ele>
        <time>2016-06-21T14:53:52Z</time>
      </trkpt>
      <trkpt lat="45.28578" lon="0.54453">
        <ele>90</ele>
        <time>2016-06-21T14:53:56Z</time>
      </trkpt>
      <trkpt lat="45.28571" lon="0.54453">
        <ele>89</ele>
        <time>2016-06-21T14:54:00Z</time>
      </trkpt>
      <trkpt lat="45.28563" lon="0.54453">
        <ele>90</ele>
        <time>2016-06-21T14:54:05Z</time>
      </trkpt>
      <trkpt lat="45.28558" lon="0.54454">
        <ele>89</ele>
        <time>2016-06-21T14:54:09Z</time>
      </trkpt>
      <trkpt lat="45.28553" lon="0.54454">
        <ele>90</ele>
        <time>2016-06-21T14:54:13Z</time>
      </trkpt>
      <trkpt lat="45.28544" lon="0.5445">
        <ele>91</ele>
        <time>2016-06-21T14:54:18Z</time>
      </trkpt>
      <trkpt lat="45.28539" lon="0.54449">
        <ele>90</ele>
        <time>2016-06-21T14:54:22Z</time>
      </trkpt>
      <trkpt lat="45.28533" lon="0.54449">
        <ele>89</ele>
        <time>2016-06-21T14:54:26Z</time>
      </trkpt>
      <trkpt lat="45.28527" lon="0.54449">
        <ele>89</ele>
        <time>2016-06-21T14:54:31Z</time>
      </trkpt>
      <trkpt lat="45.2852" lon="0.54451">
        <ele>88</ele>
        <time>2016-06-21T14:54:36Z</time>
      </trkpt>
      <trkpt lat="45.28513" lon="0.54453">
        <ele>88</ele>
        <time>2016-06-21T14:54:41Z</time>
      </trkpt>
      <trkpt lat="45.28507" lon="0.54457">
        <ele>87</ele>
        <time>2016-06-21T14:54:45Z</time>
      </trkpt>
      <trkpt lat="45.28502" lon="0.5446">
        <ele>86</ele>
        <time>2016-06-21T14:54:49Z</time>
      </trkpt>
      <trkpt lat="45.28496" lon="0.54464">
        <ele>86</ele>
        <time>2016-06-21T14:54:54Z</time>
      </trkpt>
      <trkpt lat="45.28492" lon="0.54466">
        <ele>87</ele>
        <time>2016-06-21T14:54:59Z</time>
      </trkpt>
      <trkpt lat="45.28486" lon="0.54471">
        <ele>84</ele>
        <time>2016-06-21T14:55:04Z</time>
      </trkpt>
      <trkpt lat="45.28482" lon="0.54474">
        <ele>85</ele>
        <time>2016-06-21T14:55:08Z</time>
      </trkpt>
      <trkpt lat="45.28477" lon="0.54476">
        <ele>85</ele>
        <time>2016-06-21T14:55:12Z</time>
      </trkpt>
      <trkpt lat="45.28473" lon="0.54481">
        <ele>85</ele>
        <time>2016-06-21T14:55:16Z</time>
      </trkpt>
      <trkpt lat="45.28469" lon="0.54485">
        <ele>82</ele>
        <time>2016-06-21T14:55:20Z</time>
      </trkpt>
      <trkpt lat="45.28464" lon="0.5449">
        <ele>83</ele>
        <time>2016-06-21T14:55:25Z</time>
      </trkpt>
      <trkpt lat="45.28458" lon="0.54495">
        <ele>84</ele>
        <time>2016-06-21T14:55:30Z</time>
      </trkpt>
      <trkpt lat="45.28455" lon="0.54502">
        <ele>81</ele>
        <time>2016-06-21T14:55:34Z</time>
      </trkpt>
      <trkpt lat="45.2845" lon="0.54507">
        <ele>80</ele>
        <time>2016-06-21T14:55:39Z</time>
      </trkpt>
      <trkpt lat="45.28445" lon="0.54511">
        <ele>82</ele>
        <time>2016-06-21T14:55:43Z</time>
      </trkpt>
      <trkpt lat="45.28443" lon="0.54515">
        <ele>82</ele>
        <time>2016-06-21T14:55:47Z</time>
      </trkpt>
      <trkpt lat="45.28438" lon="0.5452">
        <ele>82</ele>
        <time>2016-06-21T14:55:51Z</time>
      </trkpt>
      <trkpt lat="45.28434" lon="0.5452">
        <ele>87</ele>
        <time>2016-06-21T14:55:55Z</time>
      </trkpt>
      <trkpt lat="45.2843" lon="0.54523">
        <ele>89</ele>
        <time>2016-06-21T14:56:00Z</time>
      </trkpt>
      <trkpt lat="45.28428" lon="0.54529">
        <ele>89</ele>
        <time>2016-06-21T14:56:04Z</time>
      </trkpt>
      <trkpt lat="45.28424" lon="0.54533">
        <ele>90</ele>
        <time>2016-06-21T14:56:08Z</time>
      </trkpt>
      <trkpt lat="45.2842" lon="0.54539">
        <ele>90</ele>
        <time>2016-06-21T14:56:13Z</time>
      </trkpt>
      <trkpt lat="45.28417" lon="0.54543">
        <ele>89</ele>
        <time>2016-06-21T14:56:17Z</time>
      </trkpt>
      <trkpt lat="45.28413" lon="0.54547">
        <ele>88</ele>
        <time>2016-06-21T14:56:22Z</time>
      </trkpt>
      <trkpt lat="45.28408" lon="0.54545">
        <ele>88</ele>
        <time>2016-06-21T14:56:26Z</time>
      </trkpt>
      <trkpt lat="45.28404" lon="0.54547">
        <ele>86</ele>
        <time>2016-06-21T14:56:30Z</time>
      </trkpt>
      <trkpt lat="45.284" lon="0.54548">
        <ele>90</ele>
        <time>2016-06-21T14:56:35Z</time>
      </trkpt>
      <trkpt lat="45.28395" lon="0.54551">
        <ele>91</ele>
        <time>2016-06-21T14:56:39Z</time>
      </trkpt>
      <trkpt lat="45.2839" lon="0.54554">
        <ele>92</ele>
        <time>2016-06-21T14:56:43Z</time>
      </trkpt>
      <trkpt lat="45.28383" lon="0.54557">
        <ele>93</ele>
        <time>2016-06-21T14:56:48Z</time>
      </trkpt>
      <trkpt lat="45.28377" lon="0.5456">
        <ele>93</ele>
        <time>2016-06-21T14:56:52Z</time>
      </trkpt>
      <trkpt lat="45.28374" lon="0.54564">
        <ele>92</ele>
        <time>2016-06-21T14:56:56Z</time>
      </trkpt>
      <trkpt lat="45.28369" lon="0.54569">
        <ele>91</ele>
        <time>2016-06-21T14:57:01Z</time>
      </trkpt>
      <trkpt lat="45.28363" lon="0.54574">
        <ele>92</ele>
        <time>2016-06-21T14:57:06Z</time>
      </trkpt>
      <trkpt lat="45.28358" lon="0.54577">
        <ele>92</ele>
        <time>2016-06-21T14:57:10Z</time>
      </trkpt>
      <trkpt lat="45.28353" lon="0.54584">
        <ele>92</ele>
        <time>2016-06-21T14:57:15Z</time>
      </trkpt>
      <trkpt lat="45.2835" lon="0.54589">
        <ele>91</ele>
        <time>2016-06-21T14:57:19Z</time>
      </trkpt>
      <trkpt lat="45.28344" lon="0.54593">
        <ele>91</ele>
        <time>2016-06-21T14:57:23Z</time>
      </trkpt>
      <trkpt lat="45.28339" lon="0.54598">
        <ele>92</ele>
        <time>2016-06-21T14:57:28Z</time>
      </trkpt>
      <trkpt lat="45.28335" lon="0.54604">
        <ele>91</ele>
        <time>2016-06-21T14:57:33Z</time>
      </trkpt>
      <trkpt lat="45.28331" lon="0.54609">
        <ele>90</ele>
        <time>2016-06-21T14:57:37Z</time>
      </trkpt>
      <trkpt lat="45.28326" lon="0.54612">
        <ele>91</ele>
        <time>2016-06-21T14:57:41Z</time>
      </trkpt>
      <trkpt lat="45.28322" lon="0.54617">
        <ele>92</ele>
        <time>2016-06-21T14:57:45Z</time>
      </trkpt>
      <trkpt lat="45.28316" lon="0.54623">
        <ele>93</ele>
        <time>2016-06-21T14:57:50Z</time>
      </trkpt>
      <trkpt lat="45.28312" lon="0.54628">
        <ele>93</ele>
        <time>2016-06-21T14:57:54Z</time>
      </trkpt>
      <trkpt lat="45.28308" lon="0.54634">
        <ele>93</ele>
        <time>2016-06-21T14:57:59Z</time>
      </trkpt>
      <trkpt lat="45.28303" lon="0.54638">
        <ele>92</ele>
        <time>2016-06-21T14:58:04Z</time>
      </trkpt>
      <trkpt lat="45.283" lon="0.54642">
        <ele>92</ele>
        <time>2016-06-21T14:58:08Z</time>
      </trkpt>
      <trkpt lat="45.28296" lon="0.54645">
        <ele>94</ele>
        <time>2016-06-21T14:58:12Z</time>
      </trkpt>
      <trkpt lat="45.2829" lon="0.54648">
        <ele>95</ele>
        <time>2016-06-21T14:58:17Z</time>
      </trkpt>
      <trkpt lat="45.28286" lon="0.54656">
        <ele>93</ele>
        <time>2016-06-21T14:58:21Z</time>
      </trkpt>
      <trkpt lat="45.28281" lon="0.54662">
        <ele>93</ele>
        <time>2016-06-21T14:58:26Z</time>
      </trkpt>
      <trkpt lat="45.28275" lon="0.54663">
        <ele>95</ele>
        <time>2016-06-21T14:58:30Z</time>
      </trkpt>
      <trkpt lat="45.28272" lon="0.54672">
        <ele>92</ele>
        <time>2016-06-21T14:58:34Z</time>
      </trkpt>
      <trkpt lat="45.28265" lon="0.54671">
        <ele>93</ele>
        <time>2016-06-21T14:58:39Z</time>
      </trkpt>
      <trkpt lat="45.28262" lon="0.54676">
        <ele>93</ele>
        <time>2016-06-21T14:58:43Z</time>
      </trkpt>
      <trkpt lat="45.28257" lon="0.54678">
        <ele>95</ele>
        <time>2016-06-21T14:58:47Z</time>
      </trkpt>
      <trkpt lat="45.28251" lon="0.54684">
        <ele>95</ele>
        <time>2016-06-21T14:58:51Z</time>
      </trkpt>
      <trkpt lat="45.28247" lon="0.54687">
        <ele>98</ele>
        <time>2016-06-21T14:58:56Z</time>
      </trkpt>
      <trkpt lat="45.28242" lon="0.54694">
        <ele>99</ele>
        <time>2016-06-21T14:59:01Z</time>
      </trkpt>
      <trkpt lat="45.28238" lon="0.54699">
        <ele>100</ele>
        <time>2016-06-21T14:59:06Z</time>
      </trkpt>
      <trkpt lat="45.28233" lon="0.54706">
        <ele>101</ele>
        <time>2016-06-21T14:59:11Z</time>
      </trkpt>
      <trkpt lat="45.28229" lon="0.54711">
        <ele>102</ele>
        <time>2016-06-21T14:59:15Z</time>
      </trkpt>
      <trkpt lat="45.28225" lon="0.54715">
        <ele>102</ele>
        <time>2016-06-21T14:59:19Z</time>
      </trkpt>
      <trkpt lat="45.28222" lon="0.54724">
        <ele>97</ele>
        <time>2016-06-21T14:59:23Z</time>
      </trkpt>
      <trkpt lat="45.28217" lon="0.54727">
        <ele>98</ele>
        <time>2016-06-21T14:59:27Z</time>
      </trkpt>
      <trkpt lat="45.28212" lon="0.54731">
        <ele>97</ele>
        <time>2016-06-21T14:59:32Z</time>
      </trkpt>
      <trkpt lat="45.28208" lon="0.54734">
        <ele>99</ele>
        <time>2016-06-21T14:59:36Z</time>
      </trkpt>
      <trkpt lat="45.28204" lon="0.54739">
        <ele>98</ele>
        <time>2016-06-21T14:59:40Z</time>
      </trkpt>
      <trkpt lat="45.282" lon="0.54742">
        <ele>99</ele>
        <time>2016-06-21T14:59:44Z</time>
      </trkpt>
      <trkpt lat="45.28197" lon="0.54748">
        <ele>96</ele>
        <time>2016-06-21T14:59:48Z</time>
      </trkpt>
      <trkpt lat="45.28191" lon="0.54751">
        <ele>96</ele>
        <time>2016-06-21T14:59:53Z</time>
      </trkpt>
      <trkpt lat="45.28186" lon="0.54756">
        <ele>94</ele>
        <time>2016-06-21T14:59:57Z</time>
      </trkpt>
      <trkpt lat="45.28181" lon="0.5476">
        <ele>92</ele>
        <time>2016-06-21T15:00:02Z</time>
      </trkpt>
      <trkpt lat="45.28176" lon="0.5476">
        <ele>95</ele>
        <time>2016-06-21T15:00:06Z</time>
      </trkpt>
      <trkpt lat="45.28173" lon="0.54764">
        <ele>94</ele>
        <time>2016-06-21T15:00:12Z</time>
      </trkpt>
      <trkpt lat="45.28167" lon="0.5477">
        <ele>93</ele>
        <time>2016-06-21T15:00:17Z</time>
      </trkpt>
      <trkpt lat="45.28163" lon="0.54771">
        <ele>93</ele>
        <time>2016-06-21T15:00:20Z</time>
      </trkpt>
      <trkpt lat="45.28156" lon="0.54772">
        <ele>93</ele>
        <time>2016-06-21T15:00:24Z</time>
      </trkpt>
      <trkpt lat="45.28151" lon="0.54773">
        <ele>93</ele>
        <time>2016-06-21T15:00:28Z</time>
      </trkpt>
      <trkpt lat="45.28145" lon="0.54774">
        <ele>93</ele>
        <time>2016-06-21T15:00:32Z</time>
      </trkpt>
      <trkpt lat="45.2814" lon="0.54778">
        <ele>92</ele>
        <time>2016-06-21T15:00:36Z</time>
      </trkpt>
      <trkpt lat="45.28134" lon="0.5478">
        <ele>94</ele>
        <time>2016-06-21T15:00:41Z</time>
      </trkpt>
      <trkpt lat="45.2813" lon="0.54783">
        <ele>92</ele>
        <time>2016-06-21T15:00:45Z</time>
      </trkpt>
      <trkpt lat="45.28124" lon="0.54783">
        <ele>93</ele>
        <time>2016-06-21T15:00:50Z</time>
      </trkpt>
      <trkpt lat="45.28121" lon="0.54784">
        <ele>92</ele>
        <time>2016-06-21T15:00:54Z</time>
      </trkpt>
      <trkpt lat="45.28116" lon="0.54783">
        <ele>93</ele>
        <time>2016-06-21T15:00:58Z</time>
      </trkpt>
      <trkpt lat="45.28111" lon="0.54785">
        <ele>93</ele>
        <time>2016-06-21T15:01:02Z</time>
      </trkpt>
      <trkpt lat="45.28106" lon="0.54784">
        <ele>92</ele>
        <time>2016-06-21T15:01:07Z</time>
      </trkpt>
      <trkpt lat="45.28099" lon="0.5479">
        <ele>93</ele>
        <time>2016-06-21T15:01:11Z</time>
      </trkpt>
      <trkpt lat="45.28095" lon="0.54791">
        <ele>92</ele>
        <time>2016-06-21T15:01:15Z</time>
      </trkpt>
      <trkpt lat="45.2809" lon="0.54792">
        <ele>95</ele>
        <time>2016-06-21T15:01:19Z</time>
      </trkpt>
      <trkpt lat="45.28086" lon="0.54794">
        <ele>95</ele>
        <time>2016-06-21T15:01:23Z</time>
      </trkpt>
      <trkpt lat="45.28081" lon="0.54792">
        <ele>97</ele>
        <time>2016-06-21T15:01:27Z</time>
      </trkpt>
      <trkpt lat="45.28074" lon="0.5479">
        <ele>101</ele>
        <time>2016-06-21T15:01:31Z</time>
      </trkpt>
      <trkpt lat="45.28071" lon="0.5479">
        <ele>102</ele>
        <time>2016-06-21T15:01:36Z</time>
      </trkpt>
      <trkpt lat="45.28063" lon="0.54789">
        <ele>101</ele>
        <time>2016-06-21T15:01:41Z</time>
      </trkpt>
      <trkpt lat="45.28059" lon="0.5479">
        <ele>98</ele>
        <time>2016-06-21T15:01:49Z</time>
      </trkpt>
      <trkpt lat="45.28055" lon="0.54791">
        <ele>97</ele>
        <time>2016-06-21T15:01:53Z</time>
      </trkpt>
      <trkpt lat="45.28047" lon="0.54791">
        <ele>96</ele>
        <time>2016-06-21T15:01:57Z</time>
      </trkpt>
      <trkpt lat="45.28044" lon="0.54793">
        <ele>97</ele>
        <time>2016-06-21T15:02:07Z</time>
      </trkpt>
      <trkpt lat="45.28036" lon="0.54794">
        <ele>99</ele>
        <time>2016-06-21T15:02:11Z</time>
      </trkpt>
      <trkpt lat="45.28033" lon="0.54795">
        <ele>99</ele>
        <time>2016-06-21T15:02:16Z</time>
      </trkpt>
      <trkpt lat="45.28023" lon="0.54799">
        <ele>99</ele>
        <time>2016-06-21T15:02:21Z</time>
      </trkpt>
      <trkpt lat="45.28014" lon="0.548">
        <ele>96</ele>
        <time>2016-06-21T15:02:25Z</time>
      </trkpt>
      <trkpt lat="45.28008" lon="0.54799">
        <ele>99</ele>
        <time>2016-06-21T15:02:29Z</time>
      </trkpt>
      <trkpt lat="45.28002" lon="0.548">
        <ele>102</ele>
        <time>2016-06-21T15:02:34Z</time>
      </trkpt>
      <trkpt lat="45.27998" lon="0.54801">
        <ele>102</ele>
        <time>2016-06-21T15:02:39Z</time>
      </trkpt>
      <trkpt lat="45.27991" lon="0.54807">
        <ele>102</ele>
        <time>2016-06-21T15:02:43Z</time>
      </trkpt>
      <trkpt lat="45.27984" lon="0.5481">
        <ele>102</ele>
        <time>2016-06-21T15:02:47Z</time>
      </trkpt>
      <trkpt lat="45.27979" lon="0.54811">
        <ele>102</ele>
        <time>2016-06-21T15:02:51Z</time>
      </trkpt>
      <trkpt lat="45.27975" lon="0.54818">
        <ele>100</ele>
        <time>2016-06-21T15:02:56Z</time>
      </trkpt>
      <trkpt lat="45.27969" lon="0.54821">
        <ele>96</ele>
        <time>2016-06-21T15:03:01Z</time>
      </trkpt>
      <trkpt lat="45.27963" lon="0.54824">
        <ele>95</ele>
        <time>2016-06-21T15:03:05Z</time>
      </trkpt>
      <trkpt lat="45.27957" lon="0.54829">
        <ele>96</ele>
        <time>2016-06-21T15:03:10Z</time>
      </trkpt>
      <trkpt lat="45.27954" lon="0.54834">
        <ele>94</ele>
        <time>2016-06-21T15:03:14Z</time>
      </trkpt>
      <trkpt lat="45.27953" lon="0.54833">
        <ele>98</ele>
        <time>2016-06-21T15:03:20Z</time>
      </trkpt>
      <trkpt lat="45.27943" lon="0.54831">
        <ele>97</ele>
        <time>2016-06-21T15:03:25Z</time>
      </trkpt>
      <trkpt lat="45.2794" lon="0.54834">
        <ele>95</ele>
        <time>2016-06-21T15:03:30Z</time>
      </trkpt>
      <trkpt lat="45.27937" lon="0.54835">
        <ele>92</ele>
        <time>2016-06-21T15:03:36Z</time>
      </trkpt>
      <trkpt lat="45.27933" lon="0.54835">
        <ele>93</ele>
        <time>2016-06-21T15:03:40Z</time>
      </trkpt>
      <trkpt lat="45.27927" lon="0.54837">
        <ele>97</ele>
        <time>2016-06-21T15:03:45Z</time>
      </trkpt>
      <trkpt lat="45.27922" lon="0.5484">
        <ele>99</ele>
        <time>2016-06-21T15:03:49Z</time>
      </trkpt>
      <trkpt lat="45.27918" lon="0.54842">
        <ele>100</ele>
        <time>2016-06-21T15:03:56Z</time>
      </trkpt>
      <trkpt lat="45.27916" lon="0.54848">
        <ele>100</ele>
        <time>2016-06-21T15:04:01Z</time>
      </trkpt>
      <trkpt lat="45.27919" lon="0.54852">
        <ele>95</ele>
        <time>2016-06-21T15:04:31Z</time>
      </trkpt>
      <trkpt lat="45.27918" lon="0.54856">
        <ele>89</ele>
        <time>2016-06-21T15:05:42Z</time>
      </trkpt>
      <trkpt lat="45.27918" lon="0.54856">
        <ele>89</ele>
        <time>2016-06-21T15:05:43Z</time>
      </trkpt>
      <trkpt lat="45.27919" lon="0.54856">
        <ele>89</ele>
        <time>2016-06-21T15:06:05Z</time>
      </trkpt>
      <trkpt lat="45.27919" lon="0.54858">
        <ele>85</ele>
        <time>2016-06-21T15:07:01Z</time>
      </trkpt>
      <trkpt lat="45.27919" lon="0.54858">
        <ele>85</ele>
        <time>2016-06-21T15:07:02Z</time>
      </trkpt>
      <trkpt lat="45.27918" lon="0.54856">
        <ele>87</ele>
        <time>2016-06-21T15:07:50Z</time>
      </trkpt>
      <trkpt lat="45.27918" lon="0.54857">
        <ele>86</ele>
        <time>2016-06-21T15:08:32Z</time>
      </trkpt>
      <trkpt lat="45.27918" lon="0.54857">
        <ele>86</ele>
        <time>2016-06-21T15:08:33Z</time>
      </trkpt>
      <trkpt lat="45.27903" lon="0.5489">
        <ele>95</ele>
        <time>2016-06-21T15:08:56Z</time>
      </trkpt>
      <trkpt lat="45.279" lon="0.54894">
        <ele>93</ele>
        <time>2016-06-21T15:09:00Z</time>
      </trkpt>
      <trkpt lat="45.27897" lon="0.54897">
        <ele>90</ele>
        <time>2016-06-21T15:09:04Z</time>
      </trkpt>
      <trkpt lat="45.27894" lon="0.54905">
        <ele>90</ele>
        <time>2016-06-21T15:09:08Z</time>
      </trkpt>
      <trkpt lat="45.27894" lon="0.54905">
        <ele>90</ele>
        <time>2016-06-21T15:09:08Z</time>
      </trkpt>
    </trkseg>
  </trk>
</gpx>